GFSWCAN_500_spd_003.txt.gz
Wind_Speed
51 52 59 66 59 54 50 50 47 44 44 43 43 43 43 44 44 45 44 43 44 43 41 43 40 42 46 48 52 50 47 38 36 36 39 39 42 42 45 45 43 45 47 49 52 54 55 50 54 51 54 58 60 63
56 53 54 51 56 64 60 56 55 57 56 55 51 48 47 54 49 48 49 49 51 50 46 46 49 51 53 53 49 47 45 41 41 40 39 43 46 49 48 52 46 50 46 49 51 58 50 51 56 57 59 62 64 65
55 51 54 52 48 46 52 67 63 64 65 51 52 55 58 59 57 54 55 54 53 55 56 54 49 55 56 55 51 49 45 44 45 43 44 48 50 50 53 55 56 58 54 55 58 54 54 59 59 59 62 65 63 61
61 59 54 52 48 44 40 42 47 52 48 48 48 48 51 55 58 57 57 56 53 56 58 53 54 51 49 44 41 42 41 39 41 41 44 49 50 54 56 57 60 60 56 55 61 59 64 63 64 66 63 63 67 69
65 60 59 55 52 49 46 44 44 42 42 42 43 46 48 52 54 55 54 55 53 52 55 51 42 42 45 45 41 39 41 41 42 46 47 48 53 54 55 60 63 56 55 58 63 64 68 67 66 65 67 71 74 76
67 66 64 62 57 52 50 52 49 48 48 43 43 41 42 44 46 48 50 47 45 44 44 46 44 38 38 41 42 39 39 42 42 43 48 53 52 59 61 65 63 55 59 62 66 66 67 68 68 69 72 73 74 72
70 67 67 64 63 58 55 54 53 53 52 52 49 45 49 46 45 46 47 46 42 42 42 48 48 47 41 42 44 45 46 48 47 51 55 57 57 61 65 68 59 57 61 63 65 69 69 69 69 70 67 66 64 65
61 70 70 71 68 64 62 61 60 58 57 58 60 55 53 53 50 50 52 51 48 51 51 51 52 54 54 54 51 50 50 50 52 55 58 56 56 60 66 58 58 63 65 67 67 68 69 71 71 69 68 68 67 67
47 56 62 64 64 66 66 66 65 64 59 59 62 60 59 58 56 59 56 55 60 55 51 51 56 63 63 62 60 56 55 56 58 60 59 60 60 63 62 62 64 66 69 68 71 70 72 71 67 69 58 67 72 65
47 46 49 54 58 59 61 61 65 68 65 62 63 62 63 65 63 61 58 57 57 58 56 62 62 63 62 58 58 58 60 62 64 62 64 64 64 61 62 66 68 69 70 71 71 70 61 60 65 65 67 67 73 76
47 50 46 45 47 50 54 58 62 64 65 65 62 64 63 61 60 58 55 59 60 63 65 64 59 57 57 57 57 58 61 63 65 66 67 69 67 65 65 67 69 71 72 68 64 58 61 49 59 66 70 74 72 71
44 43 42 43 43 46 48 50 51 53 56 55 54 54 58 59 61 60 61 62 62 58 57 52 50 51 52 53 55 58 60 63 64 65 68 69 66 65 66 69 72 70 66 62 60 62 64 64 67 69 70 72 71 67
49 45 43 42 41 42 42 43 46 46 44 45 44 44 47 50 54 57 58 58 52 49 49 51 53 55 57 58 60 60 62 63 64 66 67 64 61 66 67 67 66 65 62 62 64 64 65 66 67 69 67 65 61 58
53 52 50 47 45 44 43 43 43 44 45 44 43 43 44 45 47 47 48 48 49 51 53 54 56 56 57 60 61 61 64 65 67 66 61 59 63 64 64 63 62 62 64 65 65 66 67 66 64 63 62 59 56 54
50 51 51 51 51 51 49 48 47 45 46 47 48 50 48 48 49 51 52 52 53 54 55 55 56 57 57 58 58 60 62 64 62 53 54 59 60 59 60 63 64 63 63 63 65 65 63 62 61 59 58 56 53 48
45 45 46 47 48 50 49 49 49 51 51 51 52 51 51 50 50 50 51 51 52 52 53 55 56 56 56 56 57 58 58 53 50 54 56 57 59 61 63 63 64 65 64 63 62 60 60 60 61 58 52 48 44 40
38 37 37 40 42 42 43 44 43 44 46 49 48 47 46 47 47 48 49 50 51 52 52 52 52 52 53 54 52 50 49 51 55 57 59 59 62 61 63 64 63 63 63 61 61 61 61 60 59 56 48 43 40 33
29 31 32 32 32 34 33 34 39 41 40 39 39 39 41 41 41 43 46 46 46 46 47 47 48 48 50 48 47 48 53 56 58 61 61 58 59 61 61 60 60 60 60 60 62 61 59 53 51 46 39 38 35 31
28 29 29 30 29 30 31 33 33 34 33 33 34 34 36 39 41 43 43 44 44 45 45 45 48 45 45 47 51 53 56 58 59 57 57 58 57 57 56 58 58 59 60 60 58 55 50 49 44 33 30 31 29 26
29 29 30 28 27 27 28 28 29 30 30 31 32 34 35 37 40 40 40 40 42 44 44 44 44 47 50 50 52 54 54 53 54 54 52 49 51 54 55 55 56 56 55 51 45 42 36 32 28 25 24 22 22 22
27 28 29 30 30 29 29 29 31 32 34 34 35 36 35 35 36 39 41 43 43 43 44 45 44 44 46 46 43 43 43 45 47 51 53 53 52 53 51 50 48 45 40 37 35 32 30 28 24 21 20 19 20 21
26 27 29 30 30 30 29 29 29 30 30 29 30 33 34 34 34 36 41 42 41 40 42 41 40 40 39 38 41 43 45 47 48 49 48 46 49 47 44 41 39 30 27 30 29 28 26 21 20 19 19 18 19 21
23 24 24 24 23 24 25 27 27 28 29 29 30 32 33 35 37 42 43 41 37 36 38 39 38 39 40 39 40 39 38 40 42 44 45 44 37 32 33 35 29 28 30 30 28 27 24 23 22 21 21 21 22 24
20 22 23 24 24 23 23 23 24 27 30 33 36 38 39 40 41 42 39 33 31 33 36 36 37 33 31 29 28 30 34 38 39 38 35 31 33 32 36 30 27 29 33 31 26 24 22 22 21 21 20 20 21 21
16 18 18 17 17 20 23 26 28 31 33 35 36 36 34 37 40 37 33 28 28 30 30 28 23 22 22 24 27 29 31 34 34 32 32 36 37 35 30 25 25 27 28 26 23 22 21 19 18 17 18 19 20 20
22 22 21 21 22 25 28 29 30 31 32 34 33 34 35 37 38 35 28 26 29 26 22 21 23 24 24 26 28 27 29 31 32 31 30 31 32 31 28 28 27 26 26 23 23 22 20 17 16 17 18 19 21 21
27 25 24 24 28 29 31 32 34 36 36 36 35 34 35 37 34 28 23 24 23 24 26 26 25 27 28 29 29 30 33 34 33 31 29 29 29 29 27 25 27 30 30 26 25 25 24 22 20 19 20 21 23 25
28 28 30 31 34 35 36 36 35 34 31 31 32 31 34 32 25 24 27 28 32 33 31 32 33 34 34 34 35 33 33 33 33 33 30 29 30 29 27 25 24 24 26 28 28 28 25 23 22 23 23 22 22 24
30 30 33 35 37 40 40 37 32 30 29 30 30 28 27 27 28 28 29 31 28 29 29 29 29 33 34 34 34 35 35 33 33 33 30 28 28 29 29 27 26 26 26 26 26 26 25 24 24 24 25 25 26 28
34 37 40 40 41 41 34 34 31 28 28 30 32 33 31 28 29 31 30 30 30 30 29 28 29 32 33 31 30 30 31 32 35 35 28 26 27 27 26 26 26 27 25 24 24 25 25 27 29 30 31 32 33 34
46 46 46 44 45 42 38 36 36 33 30 29 31 32 28 29 30 32 32 31 30 30 29 28 31 33 29 28 28 29 31 32 32 29 27 27 27 26 26 25 26 26 26 26 27 27 28 30 32 34 36 39 41 42
37 37 37 37 34 32 32 34 34 34 33 33 31 33 32 34 34 30 30 31 33 35 34 32 32 30 27 28 28 28 28 28 27 28 29 31 32 32 31 32 32 33 34 34 35 36 38 38 38 38 39 41 42 43
31 33 34 37 36 33 32 37 37 36 35 36 36 38 39 39 38 37 36 35 35 37 36 35 36 37 37 36 35 35 37 37 37 37 37 38 38 38 39 39 40 40 40 39 39 39 39 40 40 41 42 43 45 47

GFSWCAN_500_spd_006.txt.gz
Wind_Speed
52 64 53 55 51 45 45 45 45 44 42 42 41 39 39 39 37 36 37 38 37 36 37 38 38 38 42 45 46 48 50 50 50 47 45 41 39 38 37 37 36 37 40 42 46 52 51 51 52 52 57 61 62 61
51 63 59 60 58 50 48 44 45 45 45 44 42 41 40 40 41 40 40 42 44 44 43 42 43 44 48 47 49 53 51 49 49 46 40 41 41 42 42 43 38 43 41 47 47 52 47 50 56 58 59 63 64 63
58 59 54 54 61 57 51 53 51 46 46 46 46 43 42 43 45 48 50 49 49 51 52 50 48 50 49 52 55 53 51 48 42 40 39 40 43 42 44 46 48 49 48 48 55 48 54 58 58 59 61 63 62 64
67 61 51 55 49 47 58 59 53 51 54 54 53 52 53 51 52 55 52 55 56 57 58 53 52 52 52 51 50 51 44 42 40 40 40 40 45 48 49 50 55 53 54 57 60 56 63 61 62 64 64 65 68 67
70 65 61 60 48 51 51 53 52 49 57 60 60 56 58 61 59 49 50 50 50 52 55 54 51 48 45 46 47 42 42 38 38 39 41 42 45 47 50 54 58 54 57 59 61 60 67 65 67 65 67 67 65 64
71 72 71 68 58 54 55 53 51 47 42 41 44 47 48 43 43 45 46 44 42 40 46 49 46 38 37 37 41 44 43 42 42 42 44 46 48 54 57 58 57 53 57 61 65 65 67 69 65 68 69 68 69 69
67 69 73 74 67 60 55 51 52 50 47 44 40 39 40 39 40 41 40 37 36 41 41 42 40 37 38 40 41 44 45 46 48 49 49 52 54 56 61 62 51 58 59 61 63 67 68 66 68 68 65 66 68 73
61 66 68 65 67 63 58 56 55 54 52 49 48 47 46 44 43 44 44 45 45 42 44 47 46 50 49 47 46 46 48 51 54 54 56 56 59 60 64 55 59 60 61 62 65 67 67 67 67 68 69 68 68 64
50 59 62 61 62 62 63 60 59 60 57 55 53 51 51 50 49 48 48 50 51 47 44 48 47 53 54 57 58 57 53 54 58 59 58 60 61 63 58 60 60 60 63 64 65 65 66 66 67 67 69 70 62 69
44 48 54 60 60 63 62 62 63 62 60 60 59 57 56 53 50 50 52 52 53 57 55 59 59 59 59 63 65 67 68 67 69 69 68 66 64 57 60 63 63 62 63 65 65 65 65 65 65 67 65 64 67 69
46 45 43 46 51 56 61 64 63 63 64 63 63 61 60 59 56 54 53 55 59 61 61 59 64 66 64 62 61 64 67 69 71 69 68 67 64 64 64 63 64 65 64 65 65 61 60 61 62 63 63 65 69 72
50 44 42 42 41 45 52 55 58 60 62 61 60 59 58 60 58 58 59 60 61 64 65 65 61 59 61 62 62 63 62 63 63 63 66 68 66 64 64 64 64 66 66 66 64 62 62 63 66 68 70 70 70 68
50 47 45 43 45 46 45 44 46 47 49 52 54 55 56 57 57 59 58 59 59 57 57 56 56 56 56 56 56 57 59 60 62 62 62 62 58 60 64 65 66 65 62 62 62 61 62 67 68 70 70 69 66 62
52 50 47 43 43 44 47 47 46 44 44 43 45 47 46 49 52 52 50 48 47 48 48 49 49 50 52 53 55 56 59 61 62 62 60 57 58 60 62 62 61 59 59 59 61 64 66 68 69 69 67 65 65 63
47 47 49 47 46 45 44 42 42 43 43 42 43 45 45 46 45 44 44 45 46 48 48 51 53 55 55 57 56 58 60 64 61 54 55 58 60 61 60 59 59 60 61 63 65 66 68 69 67 64 63 63 65 63
42 42 45 47 47 47 46 44 43 44 44 44 43 43 43 44 46 47 49 49 50 51 51 52 52 53 54 56 57 58 59 53 50 53 56 58 59 59 59 59 60 63 65 66 67 68 67 63 63 64 64 63 60 56
38 39 38 39 37 40 43 45 45 47 49 46 45 46 47 47 46 47 47 48 50 50 50 50 51 51 56 58 56 49 45 46 51 54 55 56 58 59 60 63 64 65 65 65 64 61 61 62 65 63 59 53 48 42
40 39 40 41 41 42 42 42 43 44 44 42 40 39 40 43 44 45 47 47 46 45 45 46 50 51 51 48 42 42 47 50 52 54 54 55 58 60 62 63 62 61 59 58 60 61 62 60 55 48 44 36 31 24
45 39 36 36 35 35 35 36 39 38 38 37 37 38 39 40 42 43 42 42 41 40 43 45 48 44 37 39 43 44 48 52 54 54 55 56 57 59 58 56 56 57 58 58 58 55 49 43 39 36 31 28 22 18
31 31 30 30 31 32 32 33 33 34 34 34 35 35 36 36 37 37 37 39 41 42 43 42 36 39 43 42 47 50 50 52 55 55 52 50 50 51 52 53 53 52 52 50 42 37 33 34 32 31 28 23 18 15
21 21 23 27 28 29 30 29 28 29 29 31 32 33 34 35 36 38 40 41 41 39 38 38 40 42 45 44 46 48 47 46 46 48 49 47 46 48 49 47 49 46 39 35 31 27 31 33 29 26 22 20 17 16
23 24 26 26 27 28 29 29 29 30 31 30 31 33 33 34 34 35 38 38 38 38 40 40 44 45 45 44 43 42 43 44 45 46 46 44 43 44 42 42 39 35 34 31 28 30 33 35 30 25 22 21 19 18
19 20 23 25 26 28 28 29 28 29 30 29 31 32 32 33 35 39 40 40 39 41 42 44 45 44 40 37 38 40 41 41 41 38 36 37 38 39 37 34 37 37 34 25 27 30 30 28 27 24 22 22 20 21
20 20 21 23 23 22 22 22 24 26 27 28 30 31 33 35 39 41 40 42 41 39 40 40 40 38 37 35 34 33 33 34 33 31 33 34 34 34 35 33 33 34 30 24 26 27 27 25 25 23 23 22 18 17
19 19 18 18 20 20 19 18 19 21 24 28 30 32 35 40 42 42 39 34 35 36 36 36 36 35 32 28 27 29 30 30 31 29 31 34 36 37 35 32 29 29 30 27 28 29 29 28 26 25 23 20 18 19
19 17 13 11 11 14 18 21 22 25 28 31 31 33 35 37 38 36 30 31 33 34 32 30 28 27 28 28 27 26 28 32 33 33 33 35 37 38 37 32 27 24 27 26 26 27 28 28 27 25 24 23 21 20
21 16 14 15 17 20 23 25 28 30 31 33 34 36 37 38 35 29 30 32 31 25 22 23 25 27 29 31 33 35 36 36 36 37 37 37 36 37 37 35 30 27 25 26 25 25 25 26 28 27 25 24 23 23
17 17 17 21 24 27 30 32 33 35 36 38 39 37 38 36 33 30 28 25 24 22 22 20 22 25 28 30 32 34 35 34 34 33 32 33 35 35 36 36 32 30 27 25 26 26 26 25 26 26 25 24 24 25
23 23 25 27 30 34 38 37 38 40 39 42 42 39 36 33 28 25 27 28 27 27 26 27 26 30 30 30 30 29 31 30 28 27 28 29 30 35 36 32 30 28 28 27 26 27 26 24 23 23 24 26 28 30
27 29 34 37 40 42 41 45 48 49 49 49 46 41 37 30 26 28 25 23 23 26 28 29 30 30 29 30 30 30 29 29 29 29 29 29 30 30 29 28 29 29 29 28 27 27 27 28 29 29 30 30 32 35
36 37 40 43 46 49 52 51 50 47 43 39 36 35 31 29 27 28 30 29 29 29 30 32 32 31 31 30 30 31 31 30 29 29 30 31 32 31 31 32 33 34 35 35 35 35 35 36 36 36 37 38 39 39
43 46 47 44 41 40 41 40 39 39 37 34 28 26 27 32 34 33 29 31 34 37 38 37 37 36 34 34 33 33 36 38 39 39 39 40 40 40 41 40 40 40 40 40 40 40 41 41 40 40 39 40 40 40
32 35 38 40 41 41 42 45 44 42 39 38 35 32 32 34 36 36 36 37 38 38 38 37 36 35 35 36 37 38 39 40 41 41 43 44 45 44 41 40 40 39 39 39 40 40 41 42 43 42 42 42 42 43

GFSWCAN_500_spd_009.txt.gz
Wind_Speed
51 52 53 51 50 50 46 45 45 43 40 39 39 39 38 37 36 36 36 36 36 36 35 34 35 35 37 39 40 41 43 44 47 48 49 50 52 48 43 38 34 35 36 34 39 43 42 47 53 56 59 62 61 61
54 55 56 50 52 51 48 45 46 43 43 40 39 40 41 40 38 38 38 38 38 37 37 37 35 38 42 45 47 47 50 52 56 51 50 50 49 43 39 37 31 37 35 38 42 45 44 51 58 60 63 62 63 64
53 53 52 54 57 52 48 47 46 43 43 41 41 42 42 42 41 41 40 39 40 40 40 37 40 47 50 51 52 54 54 55 53 50 49 47 43 40 38 40 40 41 35 42 47 44 49 56 57 61 64 67 65 67
55 57 50 49 47 59 53 49 46 42 44 44 44 45 45 43 43 43 44 44 43 42 44 43 48 51 55 57 58 60 58 54 46 45 41 42 42 39 39 42 46 45 47 51 55 58 59 58 60 66 67 56 72 72
57 58 57 57 47 54 56 54 52 48 46 46 46 46 48 47 47 46 46 48 49 52 52 51 56 54 49 47 47 46 45 45 41 39 38 41 44 46 46 49 51 48 51 58 63 63 65 66 67 57 69 69 74 75
64 61 60 58 50 49 63 61 60 62 60 54 50 51 49 48 47 49 57 57 56 54 55 56 48 37 38 37 39 39 37 36 38 40 42 44 46 51 55 56 56 50 59 64 66 67 69 68 66 69 72 76 76 75
69 68 63 62 56 57 54 50 49 53 54 58 59 55 53 54 60 61 60 58 58 54 48 46 43 34 32 35 37 39 39 41 45 48 49 51 52 56 60 62 54 61 65 68 69 70 71 71 72 73 74 75 75 75
69 70 69 67 65 66 60 55 50 48 44 46 47 52 56 49 49 50 46 44 42 40 41 42 41 42 42 43 39 39 41 43 47 50 52 54 59 62 65 58 63 67 69 71 71 70 70 72 73 73 74 74 72 71
53 67 68 67 66 67 63 64 59 59 55 53 51 51 54 51 49 46 46 47 45 41 45 47 46 48 50 47 47 46 47 50 52 54 54 59 62 64 64 67 68 68 69 69 69 72 74 72 73 72 72 71 67 61
43 46 64 65 65 66 65 64 67 64 63 57 54 54 54 53 53 54 51 52 52 52 53 55 54 53 51 51 53 56 59 60 62 61 64 65 64 64 67 65 64 63 66 70 70 70 70 68 68 67 64 61 61 65
49 46 43 54 62 64 65 64 61 62 64 64 64 58 56 55 54 54 58 58 55 56 56 56 56 56 54 54 59 62 64 66 68 71 72 72 71 67 65 65 67 68 69 69 68 68 68 67 66 65 65 66 65 67
50 48 46 41 45 50 56 58 59 61 62 59 61 63 61 60 60 62 61 61 61 62 60 56 51 52 55 59 63 66 68 72 73 70 69 69 67 65 65 66 68 69 69 71 71 71 71 70 67 67 66 66 69 71
52 51 44 43 42 42 44 48 53 57 57 57 58 60 60 61 62 62 61 62 61 55 55 54 54 57 58 60 62 63 64 64 65 65 65 62 61 62 63 65 69 70 69 69 68 67 64 63 64 66 68 70 71 72
51 51 46 45 42 39 38 39 41 43 45 47 49 51 53 54 59 59 56 54 54 54 55 54 55 56 56 56 56 57 59 61 62 61 60 61 64 64 66 69 71 69 66 64 63 63 64 65 68 69 70 71 71 69
47 49 49 48 46 44 42 41 41 41 41 41 43 46 47 49 50 50 50 48 47 47 47 49 50 50 50 52 53 57 59 62 61 57 60 64 67 69 69 67 62 59 60 62 62 63 66 68 69 69 67 66 68 69
41 44 46 47 46 45 45 43 43 45 47 45 45 44 45 47 47 47 47 47 48 49 49 50 51 53 53 55 56 56 58 55 55 61 65 67 68 65 60 57 59 61 62 63 65 66 67 67 66 65 65 66 65 59
36 39 42 44 44 45 45 44 44 44 45 43 42 43 44 45 45 45 46 47 48 50 49 51 50 51 53 56 56 52 51 56 61 65 65 61 58 56 57 59 61 63 64 64 64 63 62 63 65 64 63 56 46 40
43 37 34 35 37 38 39 41 42 44 44 45 46 45 45 47 48 49 49 48 49 50 51 50 51 52 53 51 47 50 57 61 59 56 54 54 55 57 61 62 61 61 59 58 60 62 64 63 61 56 46 38 34 34
37 33 32 31 31 32 34 36 39 42 41 41 42 44 44 45 46 46 47 47 46 46 47 48 51 50 44 46 52 53 51 51 52 50 51 53 57 58 59 58 56 56 57 58 59 60 58 53 46 36 33 33 31 29
32 31 31 33 35 36 37 37 38 39 39 37 38 39 39 40 42 43 43 43 42 43 46 47 41 39 45 49 48 47 48 50 52 52 51 51 55 55 53 54 54 54 52 52 52 49 41 33 30 32 34 33 28 25
42 37 37 39 36 34 35 34 33 32 32 33 34 36 37 38 38 38 38 39 43 44 43 39 41 42 44 43 46 49 49 51 52 54 53 49 47 48 49 49 48 47 46 43 42 40 35 28 27 31 29 26 23 23
31 30 28 26 23 22 23 25 28 30 32 33 33 33 33 33 35 37 38 40 40 38 40 39 40 44 45 47 48 50 50 49 48 48 48 47 44 43 42 41 41 39 38 37 37 35 24 21 24 26 25 24 22 22
21 20 19 21 22 22 23 25 27 29 31 31 34 34 34 34 35 36 36 36 37 39 40 41 45 47 48 48 50 47 45 45 44 44 42 41 39 37 36 36 38 38 37 36 36 33 26 23 24 26 27 26 24 24
23 23 23 22 22 22 24 26 28 29 31 31 32 31 31 33 35 37 36 37 40 43 45 46 47 47 47 45 42 41 42 42 40 38 37 36 35 35 36 37 39 39 40 37 36 32 29 26 26 27 27 25 23 22
24 23 21 21 21 21 22 25 26 26 27 27 27 28 29 33 36 37 36 36 40 41 41 42 42 41 39 38 39 39 38 37 34 34 34 35 36 38 40 40 39 40 39 38 35 34 30 28 25 23 23 24 25 23
19 19 17 14 15 17 19 19 19 20 22 25 26 28 30 32 34 36 35 39 41 42 41 40 39 38 37 35 32 30 33 36 38 38 38 41 42 43 42 36 33 34 35 36 34 31 30 29 27 25 25 26 25 24
19 17 16 15 15 16 18 21 23 25 27 29 31 33 34 35 33 34 36 38 37 37 37 37 32 27 23 25 29 32 33 33 34 35 35 34 37 40 38 35 33 30 31 32 29 29 28 27 27 26 27 25 24 25
17 15 16 17 19 22 25 27 30 32 33 35 37 37 39 39 40 39 37 37 38 34 28 23 23 26 28 28 28 28 29 29 28 27 27 29 30 29 28 28 29 30 30 27 26 27 26 26 25 26 26 25 24 24
22 22 22 23 26 29 31 33 35 36 39 42 44 44 46 49 49 39 37 39 33 31 29 29 28 30 28 28 29 29 29 29 30 28 27 26 27 28 27 27 28 30 29 29 30 31 31 30 30 30 30 30 30 31
22 27 30 31 33 35 36 40 42 42 44 47 51 54 51 44 40 38 36 33 31 29 27 27 27 28 27 27 28 30 31 32 33 32 31 30 30 32 34 35 36 37 37 38 39 39 39 38 38 38 38 37 37 37
30 32 35 37 38 37 40 44 48 51 51 49 47 46 40 37 35 34 32 29 29 29 30 32 32 30 31 32 33 33 35 35 36 37 37 37 37 38 39 41 42 43 44 45 44 43 41 41 41 41 40 40 40 40
33 37 40 42 41 39 39 41 42 44 46 49 49 48 46 44 41 37 31 29 30 32 33 34 34 36 37 37 37 37 37 37 37 38 39 40 41 42 44 45 46 46 46 45 43 42 41 41 41 41 41 42 42 43
28 30 32 35 37 38 39 43 43 44 42 45 52 50 47 45 43 39 35 33 33 34 35 37 38 38 39 37 35 36 37 38 38 39 40 41 43 44 44 44 44 44 43 42 41 40 39 39 40 40 40 40 39 38

GFSWCAN_500_spd_012.txt.gz
Wind_Speed
47 50 54 47 47 49 47 46 45 46 44 41 40 38 36 35 35 35 35 34 33 32 32 32 32 32 32 33 34 35 35 37 43 46 50 49 53 52 49 42 40 38 37 33 36 39 37 40 46 49 53 58 60 62
48 45 43 53 49 49 48 47 45 46 44 44 42 41 39 37 35 35 35 35 34 34 33 34 35 35 35 36 37 36 40 45 51 51 53 57 59 52 43 37 33 34 31 36 40 42 42 48 53 56 59 61 63 67
54 48 47 54 50 48 49 47 45 47 44 42 41 42 40 38 37 36 36 35 36 36 36 37 36 37 37 39 39 40 45 51 53 55 54 51 49 43 37 36 35 34 35 41 48 45 49 54 56 60 60 65 69 69
57 54 49 53 54 49 49 49 46 45 45 44 42 42 41 40 39 39 38 38 38 38 39 39 40 40 41 42 42 50 53 55 55 50 48 45 41 37 34 38 41 38 43 48 53 54 57 59 64 64 67 67 74 73
58 61 55 54 54 51 56 50 47 46 45 44 43 44 43 41 41 40 41 41 41 43 43 42 42 44 44 44 48 52 54 50 45 44 42 39 34 37 41 45 47 42 47 53 57 59 62 64 69 71 75 77 75 73
58 56 63 59 51 51 57 49 48 47 47 45 46 45 44 42 43 43 43 43 44 45 48 46 44 47 48 50 52 53 46 41 39 38 40 40 38 42 46 49 50 49 54 59 61 64 67 72 75 77 77 74 74 75
56 57 58 61 55 50 52 50 47 42 52 48 47 47 45 43 42 43 44 44 46 47 49 50 55 55 54 51 50 49 44 42 42 43 43 43 43 47 51 53 52 54 57 63 67 69 71 74 75 76 74 74 77 77
57 58 59 59 62 54 51 49 50 43 46 55 54 49 50 49 49 49 50 50 48 52 53 59 58 53 49 44 41 42 43 45 48 49 50 48 51 54 57 57 57 60 64 69 71 73 73 73 72 73 76 76 73 74
59 62 64 61 58 56 57 54 51 45 41 47 56 55 56 59 59 55 56 56 59 58 60 56 48 45 45 46 48 46 47 48 50 52 54 56 57 59 60 61 63 67 72 73 72 72 73 72 73 73 73 74 75 73
63 61 63 66 63 63 61 58 54 53 49 45 47 47 47 41 43 45 44 47 49 52 53 53 50 49 50 51 52 56 57 56 56 58 58 57 58 62 63 67 71 72 71 71 72 71 70 70 71 72 72 71 71 71
60 56 61 62 67 62 63 63 59 56 54 54 50 48 52 52 51 50 50 51 51 53 54 54 52 50 52 53 55 58 61 63 63 61 61 63 64 67 69 71 71 70 70 70 70 71 71 71 72 75 76 73 70 70
56 57 50 52 58 64 61 56 56 54 55 51 55 61 57 58 59 55 56 54 54 55 56 52 51 54 56 55 57 60 61 62 63 64 65 67 67 68 68 68 68 68 69 72 73 71 73 75 75 73 72 71 71 72
55 52 55 47 43 48 59 62 61 62 59 58 58 59 56 60 63 64 62 59 57 56 54 54 54 55 56 58 59 59 61 63 64 65 65 63 63 65 65 66 68 70 70 71 71 73 73 70 68 69 69 70 73 71
54 46 48 42 46 43 43 48 56 59 61 62 63 66 67 67 68 67 67 65 60 58 57 57 57 57 56 56 56 58 59 61 62 61 58 60 62 64 65 66 67 66 68 70 69 67 67 66 67 68 68 69 69 67
52 45 47 41 40 41 42 42 40 42 47 50 55 59 58 57 57 57 56 53 52 53 51 51 53 53 53 54 54 55 58 59 58 57 60 62 64 65 65 64 66 69 69 64 62 63 64 65 66 66 64 65 67 68
47 50 48 43 41 39 39 41 42 42 42 41 42 42 43 43 43 43 44 45 46 47 47 48 50 52 52 53 54 56 57 55 58 61 63 65 64 62 63 64 65 63 59 59 61 63 64 64 63 64 65 66 66 62
35 40 46 49 45 41 40 40 42 42 43 39 37 39 41 42 42 42 43 44 46 47 47 48 49 51 52 54 55 55 54 58 61 65 64 61 61 60 61 59 57 57 58 60 62 61 60 61 63 65 65 60 54 43
29 30 37 42 45 44 44 42 40 39 40 40 41 41 41 43 44 45 46 47 48 48 48 48 49 50 52 54 51 53 58 62 64 59 59 59 56 56 56 56 57 59 59 58 58 58 59 60 59 57 55 51 40 33
35 33 32 32 35 39 39 38 40 40 39 39 41 42 42 44 45 46 47 48 48 48 49 50 52 51 46 46 49 56 61 59 56 56 54 51 52 54 57 58 59 57 55 55 55 54 53 51 51 49 48 41 33 34
38 40 37 32 29 28 29 31 32 34 35 36 38 41 43 45 46 47 48 48 49 50 51 50 46 43 47 53 55 54 53 53 53 50 46 48 53 57 57 56 53 52 51 49 46 46 45 44 43 43 39 30 30 29
33 31 30 29 27 26 27 27 31 34 38 40 41 43 43 44 43 42 42 42 44 44 42 40 42 46 48 48 48 49 48 49 49 51 52 51 53 54 52 51 50 48 46 43 42 40 41 40 37 37 30 26 26 27
23 26 28 27 26 29 31 34 36 34 34 35 35 35 35 35 35 35 35 38 38 37 41 42 44 46 44 43 44 47 49 51 53 55 55 55 50 48 47 46 43 41 40 41 41 39 39 39 36 33 31 30 31 29
30 27 27 29 31 34 35 32 28 24 25 25 28 29 30 31 32 34 36 37 37 39 39 40 41 42 43 45 48 50 54 55 54 52 50 48 47 45 43 41 41 39 38 39 41 41 40 38 37 34 30 29 28 27
18 20 22 23 21 17 19 23 25 26 26 27 28 29 30 32 34 35 34 33 35 36 38 41 44 46 48 49 49 49 49 49 47 44 44 43 42 41 41 41 42 43 45 47 44 40 39 36 35 34 32 29 27 26
19 22 22 21 23 24 24 26 27 28 29 28 28 29 29 31 32 31 30 31 35 38 40 42 44 45 46 47 47 47 47 45 44 42 38 39 39 41 42 44 44 47 48 47 43 39 37 35 34 32 31 31 29 28
21 22 25 24 24 26 26 26 27 26 26 26 26 26 28 31 33 34 33 34 36 36 39 42 43 43 42 40 40 39 37 38 37 35 32 36 37 38 37 35 34 36 39 38 36 35 34 34 30 29 29 30 28 28
21 23 22 21 21 21 21 21 21 22 23 25 27 29 32 34 33 34 37 39 39 42 46 48 46 42 38 34 34 34 33 31 33 33 31 32 33 34 35 35 33 30 30 30 30 29 29 28 28 29 30 30 30 30
19 17 17 20 22 24 24 25 26 27 28 31 34 36 38 38 38 39 41 42 43 47 53 52 48 43 38 33 32 31 32 34 34 34 36 36 36 35 35 34 32 30 27 29 31 32 33 33 34 35 36 36 35 35
18 18 20 23 25 27 29 29 30 31 34 37 39 40 42 44 45 46 47 50 52 51 48 46 44 42 37 35 33 31 30 31 32 33 34 35 38 39 38 37 35 35 36 37 39 40 41 42 42 43 43 41 40 40
18 19 21 22 24 25 29 34 34 36 38 41 44 45 46 49 52 50 48 46 44 42 41 41 40 39 37 34 32 32 33 33 34 35 37 38 38 40 41 42 42 43 43 43 43 45 46 47 47 47 44 42 41 39
23 25 28 30 30 32 36 38 39 40 42 43 43 44 45 48 50 52 51 48 46 43 39 37 37 37 36 35 34 34 34 36 38 39 40 41 41 40 40 40 42 43 44 45 45 45 45 46 45 44 43 41 40 40
32 33 34 34 34 35 36 35 33 34 35 38 40 43 45 48 50 58 57 52 49 45 39 36 35 36 35 36 37 38 38 39 40 39 39 38 39 41 42 42 42 42 42 43 43 43 43 43 42 41 40 40 41 41
30 30 31 31 31 31 34 35 34 34 35 37 40 40 42 43 45 40 24 20 23 27 32 34 34 35 36 38 38 39 39 40 39 39 39 40 42 42 40 39 40 43 43 43 43 43 42 41 41 42 41 41 40 39

GFSWCAN_500_spd_015.txt.gz
Wind_Speed
46 52 55 54 44 44 44 43 42 43 41 38 35 33 34 35 34 34 33 32 31 30 29 29 30 30 30 30 31 30 31 31 32 34 37 40 43 47 49 47 40 36 38 34 34 32 34 38 41 45 49 53 56 58
48 49 51 52 45 46 44 44 42 43 44 42 39 36 35 33 33 33 34 33 33 32 32 32 32 32 32 33 33 32 32 33 36 38 42 47 50 52 49 45 38 30 32 34 36 36 38 43 46 49 52 56 61 66
44 50 51 50 45 43 42 45 43 43 45 44 42 41 38 36 35 35 35 33 34 34 34 34 34 34 34 35 34 33 34 37 39 41 45 48 53 52 44 43 41 30 29 36 42 39 45 48 51 53 58 63 68 66
48 47 42 44 47 51 45 44 45 44 44 45 43 42 42 42 40 38 36 35 35 35 36 36 35 36 35 35 35 36 37 40 42 45 50 54 51 44 40 39 38 32 37 40 43 44 50 51 55 58 64 67 70 71
57 54 49 46 43 44 46 49 46 46 45 44 43 41 41 41 41 41 40 38 38 39 38 37 38 37 38 38 38 38 41 42 45 49 55 53 46 41 42 43 43 41 45 47 51 54 58 60 63 67 70 75 76 75
57 56 57 53 50 45 42 44 46 44 45 43 43 41 42 42 41 41 40 39 39 40 41 39 39 40 41 40 40 41 42 44 51 56 56 51 46 45 47 49 47 46 49 52 56 60 62 66 69 71 76 78 76 74
56 58 59 54 52 48 43 45 48 42 45 46 46 43 43 43 44 43 42 41 42 43 42 42 42 40 40 41 42 43 47 53 58 56 52 48 46 49 52 53 50 52 55 56 58 62 65 69 72 75 76 73 73 74
54 55 57 58 53 51 47 46 47 49 45 48 47 45 44 45 45 44 43 43 43 43 43 45 44 43 42 43 44 47 50 50 45 43 45 47 50 52 55 54 56 57 58 60 63 67 71 73 73 73 71 70 73 74
50 51 54 55 54 54 55 51 48 46 48 49 49 47 47 46 46 44 43 44 43 44 47 48 47 49 51 52 54 52 50 46 46 47 49 51 54 56 57 59 59 59 61 64 67 69 70 70 67 67 71 72 72 73
52 53 52 55 55 55 53 54 55 47 46 50 50 52 43 42 45 51 49 47 48 51 53 55 55 51 45 44 43 47 49 50 51 53 54 55 57 57 57 57 57 61 64 65 66 66 65 65 68 70 71 72 74 77
58 54 50 54 57 56 57 54 53 50 50 53 49 44 43 40 41 47 47 49 53 55 53 46 45 45 45 44 46 49 52 54 57 58 58 60 60 58 60 62 63 63 64 64 65 66 69 70 71 72 74 76 76 73
51 57 53 52 54 55 56 56 54 54 54 54 54 48 46 46 43 45 49 48 50 51 48 47 45 46 49 50 51 52 54 58 59 61 62 63 61 62 62 63 64 65 64 66 67 69 70 72 73 75 76 74 73 72
41 51 56 53 53 56 55 56 59 59 58 55 52 51 54 56 56 54 52 53 53 53 54 55 54 53 53 55 55 56 59 61 61 62 61 59 58 59 61 63 63 62 63 65 67 70 72 73 73 73 72 71 72 70
43 43 50 54 51 53 55 52 52 54 58 56 58 59 59 56 58 56 54 56 60 60 61 61 58 58 58 58 59 59 60 62 61 58 54 54 58 60 60 59 59 62 64 67 69 70 71 71 69 68 68 68 68 65
45 46 44 46 50 47 48 45 51 59 56 57 55 55 58 61 60 61 60 63 64 63 60 60 59 59 60 58 56 57 57 56 54 51 54 56 57 58 57 59 63 65 67 67 69 68 65 65 66 64 63 63 63 64
42 41 43 43 38 41 44 47 44 44 55 65 64 59 60 63 64 62 61 62 63 62 59 59 59 58 55 52 52 51 52 51 51 54 56 57 58 58 60 63 65 66 67 66 63 61 61 62 62 60 59 61 62 57
36 38 38 41 40 35 35 39 43 43 42 42 43 48 51 53 55 57 58 58 56 53 50 49 48 48 49 50 50 50 50 53 55 57 59 60 57 58 60 62 63 63 60 58 58 59 59 58 57 58 58 57 52 49
31 31 40 40 39 36 35 33 34 38 40 38 39 40 42 43 42 41 42 42 42 44 45 44 45 46 47 48 49 52 55 57 59 60 56 56 57 58 60 61 60 56 56 57 58 57 55 54 53 50 50 50 47 45
23 24 30 38 44 43 36 34 34 32 33 35 36 38 40 42 43 44 45 45 46 46 46 45 47 46 47 50 54 57 59 58 55 54 55 55 56 57 57 55 54 55 56 57 56 53 51 48 45 46 47 47 46 41
31 27 27 28 34 39 41 41 40 39 38 38 39 40 41 42 42 42 43 43 44 44 46 46 46 48 52 54 53 52 51 52 52 53 53 52 51 51 52 55 56 57 56 54 51 49 46 41 41 43 44 44 43 39
32 28 25 24 23 25 26 27 27 27 29 31 33 34 36 38 39 41 42 43 44 44 45 45 47 47 46 45 46 45 46 48 51 52 48 46 48 51 54 56 57 55 51 48 47 44 41 40 42 45 44 42 42 39
35 35 38 36 32 28 25 22 22 24 26 29 30 34 37 38 39 39 39 38 37 36 40 41 41 42 43 43 44 45 47 48 46 47 50 52 52 52 52 53 51 47 45 45 43 41 39 42 45 45 41 39 39 37
29 29 26 23 22 25 24 23 22 24 29 32 35 36 35 34 33 33 33 33 34 38 38 38 39 39 38 39 41 44 46 48 49 51 52 52 53 53 51 48 46 43 42 42 44 44 43 44 43 41 39 38 38 35
24 23 22 22 19 19 21 25 27 27 25 24 25 26 26 27 29 30 30 30 34 35 35 34 35 37 40 42 44 46 48 50 50 49 51 51 50 47 44 38 39 40 41 41 41 39 39 40 38 37 36 36 36 32
16 16 18 19 20 21 21 22 23 24 25 26 27 28 30 31 31 29 27 28 31 30 32 35 36 38 41 43 45 48 50 50 49 47 46 48 45 40 34 34 34 36 37 38 38 38 37 35 33 32 32 31 29 29
16 15 16 17 20 21 23 25 27 29 30 32 32 32 32 31 30 30 27 28 30 32 34 36 40 43 44 47 49 50 52 53 50 47 43 43 39 36 34 34 35 37 37 38 37 36 35 34 30 30 31 32 33 33
15 15 18 20 24 26 28 30 30 29 28 27 26 27 29 30 30 30 32 35 37 39 41 44 46 48 49 49 51 53 54 51 46 44 41 38 37 37 38 38 39 39 40 40 39 39 36 34 35 37 38 39 40 40
20 23 24 24 25 25 25 25 25 27 28 29 30 31 32 33 35 38 40 43 46 48 50 50 52 54 54 53 49 46 43 43 42 41 39 38 39 39 38 39 38 39 40 40 41 41 41 42 44 45 45 44 44 45
22 24 25 26 26 26 25 24 26 28 30 31 32 33 36 40 43 45 47 49 51 51 51 51 51 52 53 51 50 46 43 41 38 38 38 36 36 38 38 38 41 42 43 43 43 42 42 43 44 45 45 45 45 45
22 23 24 25 23 23 24 27 28 29 31 33 36 39 41 45 47 46 45 45 48 50 52 53 54 55 54 48 44 43 41 40 37 35 35 36 38 39 40 42 44 45 43 42 41 43 43 43 43 44 45 45 44 43
20 22 23 23 23 27 31 32 33 34 35 37 39 40 39 41 41 41 43 44 45 47 50 54 56 48 41 43 38 37 38 37 34 35 37 39 40 41 42 44 44 42 41 42 43 40 38 40 44 46 45 45 44 43
27 28 29 30 32 33 34 33 32 30 31 33 35 37 37 38 41 41 43 44 44 45 46 45 40 32 26 27 31 33 35 36 36 36 38 41 43 44 44 43 42 42 43 44 42 42 43 46 47 45 43 42 42 41
29 31 32 32 34 34 33 33 32 30 30 31 32 34 37 41 43 43 44 43 43 42 42 41 37 34 30 29 30 32 34 36 37 39 40 42 43 44 44 45 45 47 48 46 45 45 48 50 46 43 42 42 43 43

GFSWCAN_500_spd_021.txt.gz
Wind_Speed
44 47 44 45 47 46 45 41 38 36 35 34 34 34 33 33 32 33 34 35 35 36 35 33 31 29 28 27 27 26 27 26 28 29 29 30 32 32 33 35 36 38 40 42 46 43 42 39 37 38 39 42 47 50
44 41 42 40 45 45 44 42 40 38 35 35 34 33 33 34 34 34 35 36 36 35 35 35 34 33 31 31 30 30 30 31 32 33 34 35 35 35 36 37 39 37 41 45 48 41 40 42 43 44 45 48 52 57
37 37 47 39 39 43 44 41 39 38 36 36 34 34 33 34 36 36 36 36 37 36 37 37 36 35 34 33 33 33 34 35 36 37 38 38 38 37 40 40 41 36 44 47 48 38 42 42 42 46 48 53 56 58
39 37 40 44 40 39 38 39 41 39 37 36 36 36 34 34 35 36 37 37 37 38 38 38 38 37 37 37 37 37 37 38 38 39 40 41 40 42 42 42 43 40 46 47 48 39 41 44 46 50 53 58 60 63
50 45 39 43 45 46 41 39 39 39 39 38 37 38 38 36 35 35 36 36 38 39 40 39 39 39 39 39 40 40 40 39 40 41 41 42 44 43 46 47 40 41 45 46 45 45 44 49 51 54 58 60 63 66
50 46 43 40 41 43 44 42 44 43 40 40 39 39 38 39 39 38 37 38 38 38 39 39 39 39 40 40 41 41 40 39 42 43 43 45 44 46 49 47 41 47 44 45 45 48 50 53 55 57 59 62 67 70
52 49 46 44 42 42 40 40 40 41 42 40 38 39 41 40 41 42 42 39 39 40 40 41 41 40 40 39 40 42 42 42 44 46 46 44 44 47 49 47 46 46 45 47 49 50 52 55 58 60 63 67 69 70
49 51 51 49 46 43 41 42 42 42 38 38 40 39 40 43 42 42 44 42 42 43 44 47 46 43 40 42 45 45 45 45 46 47 46 44 47 49 52 45 44 44 46 49 51 53 57 60 62 65 68 69 70 71
45 47 53 55 50 46 45 43 44 44 43 40 40 40 41 41 41 43 44 43 43 45 46 48 46 45 44 43 44 45 46 47 48 49 47 48 51 54 46 44 45 45 49 52 55 58 62 63 65 67 68 69 69 69
48 48 46 54 56 53 48 46 46 45 43 44 43 42 43 45 44 44 46 45 45 44 46 46 45 46 46 44 44 46 47 48 50 51 52 54 56 47 42 47 48 52 55 56 59 62 63 64 66 66 66 66 67 69
45 51 49 45 50 55 53 50 48 46 43 44 44 43 40 41 46 49 50 48 43 40 43 43 46 45 45 46 48 51 51 51 51 53 55 56 50 44 48 52 55 56 58 60 63 64 66 65 64 65 65 67 69 70
46 46 46 50 49 47 53 56 54 51 49 47 46 45 46 48 47 47 49 48 46 45 42 41 41 45 48 50 53 53 52 53 55 54 52 52 51 52 56 58 60 61 62 64 67 67 65 65 65 65 66 68 70 71
33 42 47 49 49 49 45 47 57 57 54 48 43 46 49 53 53 55 56 53 49 47 44 42 42 46 47 50 49 45 50 53 52 52 54 54 54 59 62 64 66 66 66 67 66 65 65 64 64 65 67 69 69 69
24 27 35 46 51 50 48 46 46 49 49 49 48 47 53 55 54 55 54 52 52 50 52 53 53 52 52 49 50 50 50 53 57 59 59 59 61 63 66 68 65 65 65 65 66 63 62 62 64 66 67 67 67 65
24 26 28 29 35 47 53 52 49 51 51 52 53 53 55 55 58 58 60 59 56 54 53 55 55 55 54 54 57 58 59 61 61 62 63 63 64 65 63 64 64 64 65 63 60 61 62 64 64 63 64 64 64 62
25 27 29 30 30 29 35 47 56 57 53 54 56 56 53 55 54 54 57 59 59 61 60 59 57 60 60 59 59 61 63 64 64 65 65 64 62 61 59 59 60 60 59 59 61 62 63 64 64 62 60 61 60 59
30 31 32 32 33 33 32 33 39 51 58 56 52 54 55 50 50 50 51 52 54 55 56 58 58 57 58 61 63 63 61 61 61 61 60 56 53 55 57 56 56 58 58 61 62 62 62 61 60 59 58 58 57 55
36 36 36 35 35 35 36 37 37 38 45 53 54 51 50 50 46 46 46 46 46 47 47 47 50 50 51 52 52 52 52 51 49 48 49 50 52 54 55 54 56 57 59 60 59 58 57 57 57 57 57 55 53 51
40 39 37 37 36 35 35 36 36 37 39 41 46 51 53 51 46 43 42 41 41 43 46 50 53 50 49 48 46 43 44 46 48 49 51 52 53 54 56 56 57 57 57 56 55 55 56 55 55 55 54 52 49 47
39 39 37 36 34 33 32 33 34 34 32 31 33 36 39 41 42 40 38 36 36 38 39 40 42 44 44 44 44 45 46 47 49 49 51 53 55 55 54 55 56 56 55 55 54 54 53 52 52 51 49 46 43 42
36 36 34 31 27 27 27 27 23 25 26 28 30 29 28 29 29 30 32 32 32 32 34 36 38 40 40 41 43 45 47 49 50 51 51 52 52 52 52 53 54 53 53 52 51 50 51 50 48 45 40 38 36 36
35 35 33 28 27 26 28 33 31 28 20 24 28 28 28 29 29 28 27 27 28 31 32 33 36 39 41 44 46 46 48 49 49 49 50 50 50 51 52 52 52 53 53 52 53 52 48 45 42 38 35 34 34 34
34 35 29 25 25 23 25 27 31 31 31 30 29 24 22 19 18 19 21 25 30 32 35 36 37 38 40 41 42 43 44 44 45 46 47 48 49 51 52 54 55 56 55 54 53 48 43 39 37 36 36 36 37 36
36 34 32 30 25 26 21 18 19 20 18 18 18 18 18 20 23 25 27 31 35 36 38 38 38 39 40 42 43 43 44 44 44 45 47 50 53 54 57 59 59 58 58 54 50 46 41 37 35 36 37 37 36 35
40 38 36 37 37 24 19 22 22 24 26 24 24 23 23 26 27 30 33 35 36 37 39 41 41 41 41 41 41 42 43 45 47 50 52 56 59 61 61 61 60 58 56 52 49 46 42 36 36 36 36 36 36 38
31 35 36 34 36 36 30 30 23 18 19 21 22 26 29 31 31 33 35 39 40 39 38 38 38 37 38 40 43 45 47 50 53 54 55 57 58 60 62 63 62 58 54 51 48 45 41 37 37 36 37 38 39 41
26 25 23 27 26 25 22 18 17 19 22 26 29 31 31 32 33 36 37 38 37 39 40 41 42 44 45 46 47 49 51 51 51 51 52 54 56 60 62 69 65 56 49 47 45 43 40 38 37 37 39 40 41 43
27 26 25 21 17 17 19 21 23 26 28 29 30 33 36 37 39 39 38 39 40 41 41 42 42 44 45 47 48 46 46 47 49 51 51 53 54 55 57 53 41 36 37 38 39 39 38 37 37 39 41 42 43 44
20 20 20 20 21 23 25 27 28 29 31 35 39 41 40 39 38 38 38 38 38 40 43 45 47 49 47 46 46 46 48 49 50 49 50 50 50 50 45 37 29 30 32 34 35 36 37 38 40 41 43 45 46 47
19 21 23 25 28 30 32 33 34 37 38 39 39 40 39 39 37 38 40 42 44 46 47 47 46 46 46 46 47 49 49 50 50 49 49 49 48 46 41 36 34 34 35 35 35 37 38 40 43 44 45 46 47 49
24 25 27 30 32 34 34 35 36 37 37 37 38 40 40 42 43 44 43 43 44 45 46 46 47 47 47 47 48 49 51 51 51 51 50 49 47 46 43 40 38 39 39 39 39 40 40 42 44 46 47 48 50 52
31 32 33 33 33 34 36 37 38 39 39 41 42 43 43 43 44 44 43 43 44 45 46 46 46 47 48 49 50 52 53 52 52 53 53 53 52 49 46 44 42 41 41 40 39 40 42 43 46 49 50 50 53 54
26 27 28 29 31 33 35 37 38 40 40 40 40 40 41 42 41 41 42 43 44 45 45 47 48 49 51 52 53 54 55 55 56 55 54 53 52 51 51 49 48 46 44 42 42 44 47 50 52 53 53 53 54 51

GFSWCAN_500_spd_024.txt.gz
Wind_Speed
48 51 55 49 48 46 44 41 38 36 34 32 31 32 33 33 34 35 36 37 38 38 37 37 35 35 33 33 30 29 29 27 26 27 27 27 29 30 32 34 35 38 39 40 42 43 45 49 49 50 45 40 41 42
42 53 53 51 47 47 45 42 40 37 35 34 32 32 31 31 32 33 34 35 37 38 37 37 37 38 37 35 33 30 32 29 31 30 30 32 33 33 35 37 39 42 40 43 44 43 46 51 51 51 46 44 47 49
43 46 43 44 46 48 47 44 42 38 36 35 33 32 31 30 31 32 33 33 35 36 37 39 37 37 38 37 35 34 33 34 33 33 34 36 37 37 39 39 41 42 40 44 48 44 47 51 50 50 47 47 50 52
39 44 47 43 41 46 47 45 44 40 38 35 34 33 31 30 32 33 32 34 35 35 37 36 37 38 38 39 38 38 38 38 37 38 38 40 40 41 41 41 44 40 42 43 45 46 52 54 51 49 49 50 52 55
37 40 40 45 45 40 46 45 44 41 39 36 35 34 33 33 33 33 35 35 35 37 36 36 38 38 39 39 40 41 41 41 41 41 42 43 44 43 44 46 43 38 39 43 47 51 52 52 49 49 50 52 55 59
36 35 34 36 43 39 40 43 42 41 38 37 35 34 35 34 34 35 36 36 35 36 37 38 38 38 40 40 41 42 43 42 43 44 45 45 44 45 48 49 42 41 40 46 50 53 53 50 48 49 53 56 60 63
43 39 33 31 38 42 36 36 38 39 38 38 37 36 36 35 36 37 36 33 35 36 37 39 39 40 40 40 40 41 40 39 42 44 44 42 44 49 52 50 40 41 46 51 54 53 50 48 50 53 56 60 62 64
50 48 43 34 36 38 39 40 38 37 36 37 37 37 38 37 38 38 38 38 39 39 40 42 42 39 37 38 39 40 40 42 44 45 47 46 48 50 54 44 44 45 50 54 52 50 49 52 55 58 61 62 64 67
52 47 49 45 40 39 39 40 42 43 42 41 42 41 39 37 38 37 39 40 41 43 44 45 44 44 42 41 42 43 44 45 48 49 48 49 51 52 46 46 48 51 54 54 51 51 53 55 59 62 64 67 68 69
49 51 52 51 46 45 41 41 40 39 37 37 38 41 40 37 38 40 40 41 41 44 46 46 43 43 43 43 42 43 45 46 49 49 49 51 52 50 47 47 49 53 52 53 55 58 60 63 65 67 68 70 68 68
42 45 49 50 49 50 45 45 43 41 38 38 40 38 39 37 38 41 42 42 42 40 40 40 42 43 42 41 43 44 46 48 50 50 52 53 52 51 50 50 50 51 53 57 59 62 65 67 69 68 68 67 66 66
39 37 41 42 44 46 48 48 47 44 41 39 39 39 40 40 42 46 46 44 41 39 40 41 42 42 40 40 44 48 49 49 50 52 56 56 53 50 48 51 53 57 61 61 62 64 66 68 67 66 65 65 65 66
35 38 38 39 40 40 41 41 45 50 49 43 39 39 40 43 47 47 45 45 44 42 39 37 37 37 43 46 47 47 48 50 52 54 52 50 49 50 52 54 58 61 63 66 68 68 68 66 64 63 63 64 66 67
26 31 36 40 42 43 43 45 44 43 46 50 48 46 45 44 47 48 49 47 47 47 46 46 48 48 50 48 46 47 52 54 55 55 54 54 56 58 60 63 64 64 67 68 68 66 64 62 61 62 63 65 66 66
19 21 24 30 36 42 44 44 44 47 45 46 49 48 47 47 47 48 49 51 52 53 53 52 51 51 50 51 54 56 56 57 57 56 57 59 61 62 65 66 66 65 66 65 64 62 60 59 60 61 63 65 65 64
17 18 21 23 25 27 32 40 47 48 47 47 49 50 52 50 49 49 50 53 57 59 58 56 56 58 60 61 59 58 60 60 61 62 63 64 64 63 62 63 66 65 61 59 59 58 60 61 62 63 63 63 64 64
20 20 20 21 23 26 29 29 31 39 47 50 50 50 50 51 52 53 54 51 49 50 53 52 48 51 54 55 57 59 60 61 61 60 59 58 60 61 60 59 57 55 55 56 57 59 60 61 62 61 61 62 63 61
27 26 26 25 25 27 30 32 33 32 32 35 41 49 52 52 52 51 52 55 56 50 46 44 45 45 46 47 49 51 53 54 55 57 57 57 56 54 53 52 53 54 54 56 58 59 60 60 60 60 60 59 59 58
34 33 33 32 32 32 32 33 34 34 34 33 33 34 38 44 48 49 49 48 47 46 43 41 42 43 45 46 47 48 49 50 51 50 50 49 49 50 52 53 53 54 55 56 56 57 56 56 57 57 57 58 57 54
40 40 39 39 37 36 36 36 35 35 34 34 35 34 34 35 36 38 41 44 46 46 43 43 44 43 42 43 44 45 45 47 48 48 49 51 51 51 52 53 53 54 54 53 53 54 55 55 55 55 56 54 51 47
45 44 42 41 40 39 38 35 34 33 32 32 33 32 29 29 28 27 27 27 28 30 33 34 34 34 34 36 37 38 40 41 43 44 46 47 48 49 50 50 51 51 52 54 54 54 55 55 55 54 52 49 47 44
42 38 36 36 36 35 34 31 28 27 29 25 24 26 25 25 26 26 27 27 28 29 31 29 28 29 32 34 35 37 39 41 42 43 44 45 46 47 48 49 51 52 53 56 57 58 58 58 56 54 51 48 46 42
37 34 31 28 25 27 26 22 25 23 26 21 23 23 24 25 27 27 27 26 25 25 25 27 30 33 35 37 40 41 42 42 43 45 46 46 47 47 49 50 53 57 57 58 60 60 60 61 59 55 50 46 44 40
29 30 31 36 32 30 26 26 24 20 24 30 30 28 29 26 23 21 21 24 24 26 30 32 35 37 41 43 45 46 44 43 43 44 46 47 48 49 53 55 57 60 62 61 62 63 65 65 63 56 49 44 41 39
26 30 37 36 29 23 21 21 21 19 17 18 18 17 19 22 24 25 25 26 30 32 34 37 40 43 45 46 45 44 44 44 46 46 48 52 54 55 56 57 56 56 59 58 58 60 65 66 57 47 43 41 40 38
18 29 34 33 31 33 28 20 22 22 18 22 26 25 23 24 24 25 27 32 35 37 39 43 45 46 46 44 45 46 47 48 49 50 52 54 57 57 54 53 53 53 54 54 55 57 58 49 39 36 37 38 39 38
19 22 30 29 27 28 31 30 30 34 29 27 22 21 23 26 28 31 35 36 39 42 44 46 46 46 46 47 49 50 49 49 51 52 52 52 50 50 52 53 53 53 53 54 53 52 49 41 34 33 35 36 37 38
18 20 28 31 30 27 29 30 32 29 22 21 24 28 30 32 33 36 38 41 43 46 48 49 49 49 48 48 48 48 51 50 49 49 50 51 50 51 53 54 54 54 54 53 51 49 46 41 36 35 36 36 37 39
16 18 19 19 20 22 21 19 20 22 26 29 32 34 35 37 39 42 45 46 47 48 48 47 46 47 48 50 49 48 47 49 50 51 51 52 53 55 56 56 56 55 54 52 50 47 45 43 40 39 39 39 40 43
14 14 16 17 18 19 22 24 27 30 34 36 37 39 41 44 47 48 48 47 46 47 48 50 50 50 51 52 52 51 51 52 53 53 53 54 55 56 57 57 56 56 55 53 51 49 47 45 45 44 42 42 43 44
16 18 21 23 26 29 32 34 36 38 39 41 44 46 47 47 47 46 47 48 48 49 50 51 52 50 48 49 51 52 53 53 54 55 56 57 58 58 58 58 57 56 55 53 52 51 49 48 46 44 43 42 44 46
25 27 29 31 33 35 37 39 41 42 44 45 45 43 43 44 46 47 49 49 48 48 49 49 48 49 50 51 52 52 53 54 55 55 56 56 56 56 58 59 60 60 59 58 56 53 50 48 47 43 42 42 44 47
31 33 34 36 36 37 38 39 40 40 42 44 45 46 45 45 44 43 44 44 45 46 46 47 48 49 50 51 52 52 52 53 52 51 51 52 53 55 57 59 58 58 57 55 53 51 50 49 47 45 46 47 49 50

GFSWCAN_500_spd_030.txt.gz
Wind_Speed
39 53 63 53 51 48 47 44 41 38 38 40 37 36 37 45 47 49 47 44 43 41 40 39 37 36 33 31 29 28 27 25 27 28 29 29 29 29 29 29 29 32 33 32 35 36 38 40 40 39 40 44 47 47
47 61 56 52 48 48 46 43 41 38 36 37 38 39 39 40 45 46 45 43 43 41 41 40 39 38 36 35 34 34 32 31 32 31 32 33 32 32 32 33 32 34 35 36 36 38 39 42 42 43 45 51 49 48
51 65 56 48 50 47 44 41 39 38 35 35 34 35 36 37 39 42 43 43 42 42 42 41 40 40 40 39 38 37 37 37 36 35 36 35 35 34 34 35 37 35 38 39 40 39 40 41 45 46 51 52 50 50
54 63 59 48 49 47 43 40 38 36 35 33 31 31 31 34 36 37 38 38 40 40 41 41 41 41 41 41 41 41 41 40 39 39 39 38 38 38 36 39 40 34 41 41 43 43 45 46 47 51 53 52 52 53
52 58 62 54 45 46 43 40 37 35 34 33 31 29 28 29 29 31 32 34 36 38 39 38 40 41 42 42 42 42 41 39 37 37 37 38 39 38 40 41 37 34 36 41 43 43 44 45 49 52 53 52 54 55
31 43 58 61 55 50 43 42 40 38 35 33 32 31 31 29 26 27 27 29 30 31 33 34 36 37 39 40 37 33 33 34 36 36 37 38 35 38 42 41 31 31 35 39 42 43 45 48 50 51 52 53 55 56
35 35 46 55 53 48 48 46 42 40 38 36 33 31 30 30 31 29 26 25 27 28 30 31 32 34 34 32 30 30 31 32 34 36 36 36 36 39 42 39 31 38 40 42 43 45 47 49 50 51 53 54 55 56
38 36 36 40 46 49 44 47 44 44 40 39 37 35 34 33 32 32 31 30 30 30 29 30 29 27 28 29 30 30 31 33 33 35 37 35 38 40 42 36 40 41 43 45 46 46 48 51 53 54 54 53 54 57
29 30 31 36 37 44 48 43 41 45 42 41 40 38 37 35 33 32 32 32 32 33 33 33 32 30 29 30 31 32 33 34 37 39 39 43 44 43 39 42 44 45 46 46 47 46 46 47 48 48 49 53 56 60
29 26 22 23 23 28 31 36 49 39 39 41 39 39 39 36 35 34 34 33 33 33 34 33 31 32 32 31 30 32 34 37 40 41 43 45 46 42 40 40 41 43 45 46 46 45 47 49 49 49 55 58 61 64
36 30 29 27 25 25 29 31 37 35 36 36 36 37 36 35 35 35 35 35 34 36 36 35 34 33 31 32 31 32 35 39 42 42 42 43 43 41 41 42 43 43 43 45 47 49 51 50 53 56 60 63 65 69
44 38 38 35 30 24 23 25 27 35 33 31 30 30 32 34 34 34 35 36 37 38 38 36 33 32 34 33 35 36 38 39 39 38 40 42 39 41 41 44 47 48 47 48 50 52 55 56 59 60 62 64 66 67
42 43 42 41 41 38 31 27 24 27 34 35 32 30 32 34 36 39 40 37 34 33 32 31 33 34 34 35 39 39 40 40 40 42 44 42 44 46 48 49 49 49 52 56 57 55 57 59 61 63 63 63 64 68
42 44 45 45 45 43 39 37 36 33 32 32 32 33 34 37 38 38 37 35 33 33 35 35 34 36 36 38 40 42 44 44 45 46 47 49 50 52 52 54 56 58 59 57 56 57 59 61 62 62 64 67 66 62
39 44 43 45 43 43 46 46 45 43 42 42 42 44 42 42 42 41 42 42 41 40 40 40 41 42 42 43 44 45 46 48 50 53 53 54 55 54 53 53 55 56 55 57 58 58 58 59 61 65 64 61 61 65
26 30 37 38 40 39 37 39 39 41 47 47 49 49 48 47 46 46 45 45 45 46 46 47 46 47 47 47 47 44 43 45 46 46 46 45 45 47 50 54 56 55 55 56 56 57 59 64 63 59 61 65 64 63
18 19 22 25 30 32 32 32 32 33 34 36 39 40 41 43 44 43 44 43 43 44 45 47 48 49 51 52 52 50 50 50 47 45 44 44 47 48 49 50 51 52 53 56 59 61 57 58 61 62 59 59 59 59
15 15 15 15 16 16 17 20 22 23 25 28 31 32 35 38 41 43 44 45 46 47 49 49 50 50 51 52 51 52 51 47 43 41 43 46 47 48 48 49 50 52 53 53 57 58 57 58 58 58 57 57 57 57
17 17 17 17 17 17 17 17 17 18 20 21 22 23 25 26 28 30 32 34 36 39 42 45 48 50 50 50 46 43 41 40 41 42 43 44 44 45 47 49 51 50 50 51 53 54 55 56 57 57 58 57 57 58
20 20 21 21 22 22 22 22 23 23 24 25 25 26 27 28 29 30 31 32 33 34 36 36 35 34 33 33 35 36 36 37 39 40 40 39 38 41 43 44 47 49 51 53 54 55 55 54 54 56 58 59 59 56
23 24 25 25 26 27 28 28 29 30 30 30 31 31 32 34 35 36 36 37 37 37 36 34 32 29 28 29 30 32 33 33 32 34 35 37 40 42 46 48 50 51 52 53 53 52 54 57 59 59 59 56 58 56
30 30 31 31 32 32 33 33 34 35 36 36 37 37 37 37 37 38 38 37 36 35 34 30 27 27 28 29 27 28 30 32 34 35 37 41 44 47 50 51 51 52 54 55 56 57 58 58 58 58 59 60 57 54
40 40 40 40 40 40 40 40 40 40 40 39 39 38 37 36 36 35 34 33 31 26 24 24 26 27 27 27 29 30 32 35 37 40 43 46 49 52 54 56 55 56 57 58 59 59 59 60 61 61 60 58 56 54
47 48 48 48 48 47 46 44 43 41 38 35 32 31 29 28 28 28 26 23 22 23 24 26 27 28 28 29 32 34 36 40 43 45 48 50 54 57 58 59 60 59 59 59 59 59 61 60 59 58 58 57 56 55
51 51 52 50 49 46 43 39 34 30 27 25 23 21 22 22 21 23 27 27 25 25 25 26 28 30 32 32 34 38 42 46 49 50 52 55 58 59 60 59 59 61 61 60 60 60 60 59 58 58 57 57 57 57
35 33 30 28 26 29 29 27 25 24 22 24 22 20 20 21 20 16 17 21 24 27 28 30 31 30 33 37 41 44 48 50 53 56 58 59 61 61 60 59 59 59 61 60 58 57 57 58 58 58 58 58 58 58
8 8 3 4 7 11 17 22 22 21 19 20 21 21 19 20 22 23 28 29 30 31 30 30 33 37 41 44 46 49 52 55 58 60 61 59 59 59 60 60 60 60 58 57 57 59 59 58 57 57 57 56 56 55
10 10 10 9 10 11 11 20 24 17 21 20 20 22 25 26 29 31 33 32 31 31 34 38 41 44 46 48 51 54 57 58 58 58 59 60 59 57 56 56 56 55 56 58 59 59 60 59 58 57 57 56 56 57
7 5 6 5 7 11 11 12 13 14 16 20 22 23 25 29 31 29 28 31 34 38 41 44 47 49 51 54 56 56 56 58 59 58 57 56 57 58 59 58 58 58 58 58 59 58 55 54 56 57 58 57 57 56
1 3 4 6 8 10 13 14 17 18 19 21 21 22 24 27 31 34 37 40 43 45 47 51 53 55 56 57 57 57 56 55 54 54 55 56 56 56 57 57 57 56 55 53 50 50 53 55 56 56 57 58 56 53
9 9 7 7 7 8 10 12 14 17 20 23 27 30 34 37 40 42 45 47 49 50 52 54 55 56 56 55 54 53 53 54 55 56 57 57 57 56 55 53 52 50 47 47 49 51 51 51 51 53 55 53 48 43
12 14 15 16 18 20 22 24 26 29 31 34 36 38 40 42 43 45 47 49 50 51 51 51 50 50 51 52 54 55 56 56 56 55 54 52 51 49 48 46 44 43 45 47 48 47 47 48 49 52 50 45 40 36
22 24 25 26 28 29 31 32 34 35 37 39 40 41 41 42 41 42 44 45 47 48 49 51 52 53 54 55 55 54 54 52 51 50 49 47 45 43 40 40 41 43 44 44 43 43 44 46 47 49 45 40 35 31

GFSWCAN_500_spd_033.txt.gz
Wind_Speed
39 34 34 42 36 48 45 43 39 38 30 31 36 40 45 46 47 50 49 48 47 45 41 39 38 36 32 31 29 27 26 25 25 24 23 24 27 27 27 27 28 31 34 33 36 38 39 37 40 40 43 43 43 44
40 40 43 39 45 48 46 42 39 40 34 28 31 36 41 44 44 46 48 48 46 44 42 40 38 37 36 34 33 32 30 29 30 29 29 29 30 30 32 33 33 34 35 36 36 37 39 41 43 44 46 46 46 47
33 37 46 51 54 47 43 41 39 40 39 36 35 36 37 40 43 44 45 45 45 44 43 42 40 38 38 37 35 34 34 34 34 34 34 35 36 36 37 37 37 36 37 38 38 37 39 43 44 44 46 47 47 48
28 49 57 47 50 45 43 38 37 38 37 37 35 36 35 35 38 40 41 42 43 43 43 42 41 39 39 39 38 38 38 38 38 39 40 41 42 42 41 42 42 39 37 39 43 41 44 44 44 45 46 46 48 50
49 57 47 46 46 46 43 40 38 38 35 34 35 34 33 33 34 36 38 39 40 41 42 42 42 41 40 40 40 40 40 40 41 41 41 42 43 43 43 43 38 34 37 42 43 43 45 44 44 45 47 49 49 50
56 50 49 44 44 47 40 38 36 35 34 31 31 31 31 31 31 32 32 35 36 37 39 40 41 40 40 40 41 41 40 39 41 41 41 40 36 39 44 41 27 32 40 43 42 41 43 44 46 48 49 49 49 51
58 50 47 42 41 36 38 35 34 33 32 31 29 27 27 27 27 28 28 29 32 33 35 36 38 38 35 34 34 34 34 34 36 35 35 33 33 37 39 36 29 36 39 40 40 42 44 45 47 48 48 48 48 50
54 54 48 44 39 40 37 34 32 32 30 29 28 28 28 27 27 26 24 25 26 28 29 31 29 27 28 29 30 30 31 32 32 34 34 34 37 38 37 33 38 39 41 43 45 45 45 46 47 48 49 48 50 54
30 51 55 49 45 42 39 39 36 34 31 30 29 29 28 27 27 27 27 28 29 30 29 28 27 27 28 28 29 30 31 31 33 34 35 38 38 39 37 39 40 43 44 45 46 43 41 43 44 46 48 51 56 57
26 27 31 41 51 45 43 41 36 37 35 35 35 36 33 31 30 29 30 30 30 31 32 30 29 29 29 29 29 30 32 36 39 38 39 41 41 39 40 41 42 41 44 45 45 46 48 48 47 47 51 54 55 57
26 24 23 26 32 48 52 53 41 41 41 36 35 36 34 33 34 34 35 35 33 33 31 30 29 29 29 30 32 35 37 37 40 41 41 43 42 39 40 40 40 40 40 40 41 44 46 49 51 53 56 58 59 61
22 21 24 28 27 28 34 43 48 43 38 39 37 41 39 38 37 38 39 38 36 35 32 29 28 32 35 36 38 39 39 43 46 44 44 45 41 39 40 43 43 43 44 45 45 47 50 53 56 56 57 58 59 60
29 27 25 24 24 25 26 25 25 30 33 35 40 41 39 38 38 38 37 35 33 32 28 32 34 35 35 36 39 39 41 42 41 42 44 44 44 46 47 46 49 52 53 55 57 58 57 54 55 55 57 57 58 62
34 32 30 26 26 26 26 23 19 21 28 34 37 36 34 36 39 38 33 29 29 32 34 34 34 34 33 35 37 39 41 43 46 46 46 44 46 49 51 53 55 57 58 58 55 51 52 54 56 57 59 60 60 62
44 42 38 36 33 32 31 31 31 28 24 25 28 34 37 37 36 34 32 32 33 34 35 37 38 39 39 40 40 42 44 46 48 49 49 50 51 52 53 56 59 59 58 57 55 55 56 57 57 59 60 60 60 61
39 41 41 39 38 39 39 38 36 36 36 34 35 33 33 35 36 37 39 40 41 41 42 43 44 45 45 46 48 48 49 51 49 50 52 51 53 54 54 54 53 53 54 55 56 57 57 57 57 59 63 64 64 65
34 36 36 36 42 43 41 42 44 44 44 43 42 42 44 45 46 47 48 49 49 49 48 48 47 45 48 49 50 50 50 50 51 52 53 53 49 47 46 48 50 52 51 53 55 56 60 63 62 60 60 62 62 62
20 23 25 27 31 34 34 37 37 36 34 33 34 36 39 41 43 45 47 49 51 51 51 50 51 50 51 51 52 53 53 52 51 48 45 44 45 46 47 47 48 50 53 53 52 52 54 57 59 60 61 62 63 60
18 18 19 19 18 18 19 20 24 23 24 25 24 25 26 28 30 30 31 32 33 34 36 38 41 42 43 44 44 45 45 45 44 42 42 42 44 45 45 45 45 45 48 49 49 51 54 57 60 61 62 62 62 61
16 16 16 17 17 18 18 18 18 19 19 20 21 22 23 24 25 26 27 28 29 30 32 34 36 38 39 41 42 42 41 39 37 36 37 38 39 39 41 42 42 44 47 51 55 57 58 58 59 60 62 62 63 62
18 18 19 20 20 21 21 22 22 23 23 24 26 27 28 28 30 31 32 34 35 37 39 41 42 43 44 42 39 37 37 36 36 37 36 35 37 40 40 42 45 49 52 55 57 59 60 62 63 63 62 61 61 60
21 22 22 23 23 24 25 26 27 28 28 29 30 32 33 34 36 38 39 40 41 41 42 43 44 44 42 40 38 35 34 34 35 36 38 39 40 41 43 47 51 54 57 60 62 63 65 65 63 62 62 61 61 63
27 27 28 29 30 30 31 32 33 34 36 36 38 39 40 41 42 43 43 43 43 43 43 42 40 39 37 33 32 32 34 36 37 37 38 40 42 45 49 52 55 58 61 64 67 67 65 63 63 63 63 64 63 60
35 35 36 37 38 39 39 40 41 42 42 43 44 44 44 43 43 43 42 39 38 37 36 34 30 28 28 30 32 35 37 37 38 40 42 44 48 51 54 57 60 63 66 67 65 64 65 65 66 65 64 62 61 61
42 44 45 46 47 48 48 48 48 48 46 45 44 41 38 38 37 34 30 26 26 28 29 28 28 30 31 32 34 36 39 40 40 42 46 50 53 56 59 62 65 67 66 65 66 65 62 60 60 60 60 61 61 61
49 49 48 49 47 48 47 43 41 38 36 35 33 30 28 26 24 23 22 25 26 26 25 26 27 31 33 36 39 39 39 41 45 47 52 55 58 61 64 66 66 66 66 65 62 61 61 61 61 60 59 60 59 58
16 10 9 10 8 10 11 12 17 20 18 20 19 22 23 20 21 20 20 22 25 26 28 31 32 33 35 37 39 41 44 48 52 55 58 61 64 65 66 66 64 62 61 61 61 61 60 59 59 58 57 55 55 55
7 5 3 4 5 7 6 7 10 17 13 11 15 17 19 21 22 22 23 27 30 31 33 35 36 38 39 41 44 49 53 55 58 61 62 64 65 64 62 60 60 61 61 62 62 61 60 57 56 54 54 54 55 54
7 6 6 7 7 10 10 12 10 12 14 14 16 18 22 25 27 28 28 30 32 33 33 35 39 42 46 49 52 55 58 60 62 63 62 61 59 59 60 61 62 62 60 59 58 56 55 54 52 52 54 54 52 53
3 2 3 3 5 5 8 10 11 14 15 17 18 21 24 25 26 27 29 32 35 38 42 45 47 50 53 55 57 58 59 59 58 57 57 58 59 60 60 60 58 57 55 54 53 51 49 49 51 53 52 51 52 53
5 4 7 9 8 9 9 10 11 12 13 16 19 22 25 28 32 35 39 41 44 46 49 51 53 54 54 53 53 54 55 56 57 58 58 59 59 58 57 56 54 52 50 47 44 44 46 47 47 45 45 47 49 49
13 14 15 16 17 18 19 20 21 23 25 28 30 33 35 37 39 42 44 46 46 46 46 46 47 49 52 55 56 56 56 56 56 56 57 56 55 53 50 48 45 42 40 41 43 44 44 42 40 40 43 44 45 46
22 23 24 25 25 27 27 29 30 31 33 34 35 35 36 37 37 38 40 41 43 45 47 50 53 55 55 54 53 53 53 53 53 51 50 48 45 44 41 38 36 37 39 40 41 40 37 35 36 37 40 41 43 45

GFSWCAN_500_spd_036.txt.gz
Wind_Speed
49 47 47 45 43 38 36 28 34 39 33 33 37 39 40 43 45 48 47 49 48 50 45 42 40 36 34 32 30 29 27 25 23 21 20 19 18 18 19 21 24 28 32 31 34 37 39 38 39 41 44 45 46 47
40 41 41 41 35 33 31 37 37 33 33 36 38 37 39 40 39 42 47 47 47 47 45 42 39 37 36 35 34 33 30 28 26 25 25 25 26 25 25 27 27 31 33 37 38 38 39 42 44 45 45 47 48 49
36 35 36 37 38 29 40 40 33 30 31 34 32 35 37 40 41 39 47 43 47 44 43 42 39 38 38 36 34 33 32 31 31 31 30 31 32 32 33 34 35 36 38 39 40 38 42 46 47 46 48 49 49 49
39 38 38 36 34 33 41 35 32 30 29 32 34 37 41 46 51 35 39 42 44 43 43 41 39 38 36 35 34 34 34 35 35 35 35 36 37 38 38 40 42 40 37 40 44 42 46 45 45 46 47 48 48 48
34 36 35 40 41 42 35 35 33 34 28 29 31 33 39 42 44 42 39 41 41 41 41 40 40 38 37 37 36 36 37 37 38 38 39 41 41 42 43 44 39 33 36 43 45 43 43 42 43 44 45 46 48 50
31 38 36 42 37 39 34 33 36 39 36 30 26 25 26 33 35 34 34 35 35 35 37 37 37 37 37 37 37 38 39 40 41 41 42 43 40 43 47 44 27 34 39 41 41 41 42 43 45 45 47 48 50 51
37 41 41 42 41 35 31 30 32 35 34 32 32 34 31 28 28 27 27 27 30 31 34 36 36 36 36 37 37 38 40 40 42 41 41 39 36 40 42 38 33 35 37 39 41 42 43 46 47 47 48 49 47 48
44 42 43 41 42 35 36 34 33 31 32 30 28 27 27 27 27 26 26 27 28 29 32 33 33 32 33 33 35 35 36 37 37 37 35 34 37 38 38 33 35 36 38 42 44 46 47 48 47 48 48 48 50 52
39 39 39 38 39 37 38 30 29 27 27 27 28 26 24 24 24 24 24 25 25 27 28 27 25 25 28 27 28 29 31 32 34 34 34 35 36 38 37 36 38 40 42 44 45 47 46 46 46 46 47 49 50 52
43 43 41 33 39 36 31 27 26 24 24 23 22 23 22 22 22 22 24 25 26 26 25 24 23 24 25 26 28 31 32 34 36 35 37 38 38 38 38 40 41 41 44 45 45 44 43 43 45 47 49 52 54 57
49 41 42 38 38 38 31 29 28 27 25 26 26 25 23 23 24 25 27 27 27 27 26 25 24 24 25 27 29 32 33 34 37 38 38 39 39 39 42 43 44 45 44 44 45 47 47 49 52 54 56 57 58 56
44 45 42 42 41 39 37 36 35 32 29 28 28 30 29 28 30 34 34 32 30 29 27 25 26 28 30 31 33 34 35 38 41 41 43 44 42 41 41 41 42 44 46 46 47 49 52 54 56 55 55 56 55 52
30 33 31 29 32 40 38 37 37 38 37 31 31 33 33 34 35 38 35 31 29 29 30 30 30 32 32 32 34 35 37 39 39 42 44 42 41 43 44 46 47 47 49 51 52 53 54 56 58 56 54 52 53 56
27 23 21 21 21 25 28 29 30 32 36 46 41 36 36 39 40 37 32 31 31 29 29 30 30 30 31 34 35 36 37 38 40 41 40 41 44 46 48 49 52 54 55 56 58 59 58 53 52 53 54 55 57 60
27 23 22 24 23 23 23 23 24 23 21 23 29 36 39 38 36 32 30 28 28 28 29 29 30 31 32 34 36 38 40 43 45 46 47 49 50 51 53 55 57 58 59 59 58 56 55 55 56 56 57 56 56 58
35 36 32 28 27 25 22 21 24 23 23 20 20 22 22 22 25 28 31 32 32 32 32 33 35 37 39 42 44 45 47 48 47 49 51 52 52 55 56 56 59 59 58 57 56 56 55 53 52 52 55 57 58 59
36 36 35 33 30 29 27 26 28 29 28 28 27 27 29 29 31 32 32 33 35 37 39 42 44 45 47 48 48 48 49 50 51 52 53 54 55 56 54 53 53 53 53 53 50 50 51 52 52 52 52 55 59 61
38 37 38 38 37 38 38 35 34 34 35 37 37 37 37 39 39 40 40 42 44 46 48 47 48 48 47 47 47 47 47 47 46 46 47 48 48 48 49 50 49 50 52 50 47 46 48 49 50 53 57 61 62 63
26 29 30 32 32 33 33 32 34 35 37 38 38 38 39 39 40 41 40 40 41 41 41 38 39 35 33 34 35 37 39 40 42 44 45 46 47 47 46 45 44 44 44 45 48 48 49 51 54 59 62 64 67 69
17 18 19 20 22 22 22 23 27 27 27 27 27 26 28 29 30 30 31 31 29 29 29 29 30 31 33 36 39 41 43 45 47 47 46 44 43 41 41 42 43 43 45 46 48 49 52 56 60 63 66 70 72 72
16 16 17 17 18 18 20 21 21 20 21 21 22 23 23 24 25 25 26 28 29 31 33 35 37 39 42 44 45 47 48 49 48 47 44 42 42 40 40 42 43 45 47 48 51 55 59 62 64 67 71 74 73 72
17 18 19 19 20 21 22 22 23 24 24 25 26 26 27 28 29 30 31 32 34 36 38 41 44 46 47 48 49 50 49 47 44 42 40 38 39 41 43 44 45 47 50 53 57 60 64 67 70 73 74 74 73 71
19 19 20 21 22 23 24 25 26 27 28 28 29 30 31 33 35 37 38 39 41 43 45 47 48 49 49 48 48 46 43 39 37 37 39 41 43 43 45 47 48 51 55 58 62 66 69 73 76 76 75 73 69 65
27 28 28 29 30 32 32 33 33 35 35 36 37 38 39 41 43 44 45 45 47 48 49 49 49 48 47 45 41 36 33 34 37 40 41 42 44 47 48 50 53 56 60 64 68 72 75 77 77 74 70 68 68 68
33 35 36 37 39 39 40 41 43 44 45 46 47 48 48 50 51 52 51 48 47 47 45 42 38 34 33 32 33 35 37 38 38 40 43 46 48 49 52 56 59 63 67 71 74 75 77 74 70 68 69 69 67 65
39 40 41 43 45 46 48 50 51 52 53 54 54 54 53 52 51 48 43 40 37 33 32 31 31 32 33 31 30 32 35 37 40 42 45 48 51 54 57 62 67 71 73 74 75 72 68 67 68 67 65 62 60 59
36 39 40 43 40 41 40 41 42 40 38 37 36 35 34 32 33 29 26 23 23 25 26 27 28 30 32 35 37 39 41 42 44 47 50 53 58 62 65 68 70 72 72 70 67 67 66 65 63 61 60 59 58 56
8 4 3 3 2 3 4 6 7 6 13 15 12 12 16 18 19 20 20 22 25 27 28 29 33 35 38 40 42 43 44 47 51 55 59 62 65 67 69 70 68 66 67 67 66 64 62 61 59 57 55 52 51 52
5 6 7 8 7 8 10 10 10 11 11 13 12 14 15 20 20 22 24 26 29 32 35 37 37 38 40 42 46 50 53 56 59 61 64 65 66 64 65 65 65 64 63 63 62 60 57 55 51 48 47 48 49 48
9 9 8 6 6 8 8 9 10 12 10 12 14 16 18 19 21 24 27 30 31 33 34 37 41 44 48 51 53 56 58 59 60 60 60 62 63 63 62 61 61 60 58 56 54 51 48 45 45 47 48 48 45 43
12 13 13 12 10 11 12 12 12 13 14 16 17 19 21 23 25 28 31 34 37 40 42 45 47 48 49 50 51 53 54 56 59 61 61 60 59 59 58 57 55 53 51 48 44 40 39 41 43 44 43 41 39 40
17 19 19 18 19 19 20 21 22 24 25 26 28 29 30 31 33 35 36 38 38 39 40 42 44 47 50 52 55 57 59 59 57 56 56 56 55 53 52 50 49 46 43 38 36 36 39 41 42 41 39 36 36 37
24 26 26 26 27 27 28 29 29 30 31 32 32 33 33 33 31 31 32 34 37 41 45 48 50 51 52 53 53 52 52 52 53 53 51 49 48 46 45 44 41 38 36 36 37 39 41 41 40 39 36 34 34 35

GFSWCAN_500_spd_039.txt.gz
Wind_Speed
59 59 63 63 62 57 54 50 46 43 42 40 35 43 37 37 36 35 36 39 44 50 50 47 43 39 34 32 29 27 26 23 22 19 17 16 15 15 14 15 17 21 24 25 27 30 35 36 37 40 42 44 45 45
62 63 59 57 55 53 47 42 39 39 38 33 30 39 36 36 34 32 36 39 43 49 48 45 43 39 35 34 31 28 28 27 25 22 21 21 21 20 20 22 23 25 27 29 29 31 36 40 42 44 44 45 46 47
52 51 51 51 49 45 38 35 29 33 36 35 34 34 35 36 31 31 36 40 42 38 46 44 42 39 36 34 32 30 30 27 27 28 28 27 28 27 28 29 30 31 32 34 36 35 40 44 44 45 45 45 46 47
49 46 45 43 40 36 34 31 31 35 36 35 33 32 32 30 29 33 42 40 42 37 40 44 42 39 37 35 32 31 30 31 30 31 32 32 33 33 33 35 36 34 36 39 41 41 45 42 42 43 43 44 45 45
42 39 37 32 32 30 35 35 34 34 31 32 33 34 30 31 34 36 41 42 39 38 36 38 41 39 37 35 33 32 32 32 33 33 34 35 35 37 38 40 36 37 40 43 43 42 42 39 39 40 41 43 45 47
32 33 34 31 36 35 36 31 27 28 30 29 32 32 35 45 35 32 48 39 37 35 37 38 36 35 36 35 34 33 33 32 33 35 36 37 36 40 42 41 35 36 38 40 40 41 41 41 41 42 44 46 47 48
35 30 33 33 36 34 34 28 28 25 26 28 31 33 37 38 40 31 28 30 32 33 33 34 33 34 35 34 34 34 34 34 36 37 37 38 39 42 43 42 36 34 36 38 40 41 42 42 44 45 47 48 48 48
33 34 38 32 33 31 30 26 33 25 27 27 26 28 32 34 32 29 27 26 28 28 30 31 32 31 31 31 32 33 34 35 36 37 38 39 41 40 40 34 34 34 36 38 40 42 43 44 45 46 46 46 46 47
34 33 32 43 34 28 25 25 30 31 30 31 29 31 30 28 29 29 28 27 28 29 28 26 25 26 30 29 31 32 34 35 37 37 36 37 37 37 33 33 35 37 38 39 42 44 44 45 46 45 45 47 50 51
34 37 38 37 39 25 25 25 23 24 27 28 26 22 22 24 26 26 26 27 27 27 25 23 22 22 24 24 26 28 30 31 33 31 33 34 35 33 35 36 37 38 41 44 45 45 46 46 47 48 49 50 52 55
33 38 34 38 41 27 29 21 24 23 20 21 24 24 23 21 20 21 22 22 22 21 19 18 19 19 21 23 26 30 30 31 34 33 32 33 33 34 37 38 40 42 43 42 43 44 46 48 48 50 52 54 56 57
31 31 34 37 35 31 31 30 25 22 19 18 17 16 17 18 19 22 22 20 19 18 16 17 20 22 23 25 28 29 31 33 34 33 35 35 33 34 35 37 38 39 40 42 44 46 48 50 52 53 55 58 61 60
28 28 30 34 36 38 33 24 20 18 20 21 21 23 27 28 28 26 21 18 18 20 22 22 23 26 28 30 32 33 34 35 34 37 37 33 33 35 37 39 42 44 46 48 50 51 53 56 59 60 59 56 54 52
24 32 32 27 30 34 33 35 36 33 29 28 28 27 29 31 30 26 23 24 26 26 27 28 27 28 29 31 33 32 33 34 37 37 36 37 40 42 44 46 47 50 52 54 55 57 57 56 55 54 53 55 55 55
19 26 32 33 30 31 31 31 34 35 33 32 33 35 34 30 30 29 28 28 32 34 33 32 31 30 30 31 31 33 35 36 36 38 42 44 46 48 50 53 55 56 57 57 57 55 55 56 57 56 53 50 48 48
21 21 22 24 25 24 27 30 29 27 27 31 33 29 27 30 29 27 29 29 28 28 28 27 28 29 30 32 33 35 37 40 42 44 46 49 52 53 53 53 53 53 52 53 53 54 56 55 52 51 49 47 50 51
27 25 21 19 20 19 19 18 18 19 21 22 21 21 20 21 21 21 21 20 21 23 25 26 28 31 33 36 38 40 42 44 47 48 49 48 46 45 45 45 47 49 51 52 53 53 53 52 47 46 49 52 52 53
30 28 27 33 28 25 24 24 23 23 23 25 28 29 28 27 27 27 29 30 31 32 33 35 37 39 40 42 43 44 44 44 41 37 37 38 41 43 46 48 50 51 51 51 49 46 45 46 48 50 52 54 56 58
33 32 32 33 34 32 32 31 30 31 31 31 31 32 34 35 36 36 36 37 38 38 37 37 38 35 35 35 34 34 33 33 35 37 40 43 46 48 50 51 50 49 48 47 48 48 48 49 51 53 55 57 61 64
28 30 34 36 37 36 35 34 34 33 33 32 34 35 36 37 36 36 37 36 36 35 33 30 30 30 30 32 33 34 36 38 42 45 47 49 50 51 51 49 47 47 46 45 46 48 50 52 54 57 59 63 66 70
17 19 20 21 21 24 25 24 26 27 27 28 29 30 31 32 32 32 31 31 30 29 30 30 31 32 33 35 37 40 42 45 47 50 51 52 51 49 47 45 43 43 45 47 48 49 52 54 57 60 64 69 73 78
15 15 15 16 17 18 19 20 21 22 23 23 23 24 26 27 28 28 30 30 30 31 32 34 35 36 38 40 43 45 48 49 50 51 51 49 46 44 41 41 43 45 46 48 51 54 56 59 63 67 71 75 80 83
16 16 16 17 18 19 19 20 22 22 24 25 26 27 28 30 31 32 32 32 34 35 37 39 41 43 45 47 49 50 50 50 49 46 42 38 38 39 41 43 44 46 49 51 54 57 61 65 69 73 77 81 83 82
19 20 20 21 22 23 23 24 25 26 27 29 30 31 32 34 35 37 37 38 41 43 45 47 49 50 50 50 49 47 45 41 36 35 36 37 40 42 43 45 47 50 53 56 59 62 66 71 76 79 81 81 78 77
25 26 27 29 30 32 33 34 35 36 38 39 40 41 42 44 45 46 47 48 50 51 52 52 50 48 46 43 38 34 33 34 36 37 36 37 40 43 47 50 53 55 57 61 65 70 74 77 79 78 76 76 74 71
30 30 31 33 35 36 38 39 40 42 43 44 46 48 49 51 52 53 53 53 52 50 46 41 36 33 31 30 31 31 33 34 36 39 42 45 48 51 53 54 57 61 65 69 72 74 75 74 74 73 71 67 66 64
32 34 36 37 38 40 40 42 43 44 45 45 46 45 46 45 44 38 36 34 29 25 22 22 24 26 27 29 30 32 34 38 42 45 48 50 52 54 58 62 65 69 71 72 71 70 71 69 66 64 63 61 57 53
23 22 18 15 12 14 8 9 10 12 14 15 19 17 15 13 15 15 14 13 16 21 23 23 25 29 31 34 38 41 44 46 47 49 52 56 59 63 65 67 67 67 67 69 68 65 63 61 60 58 55 51 46 46
3 5 6 6 6 6 7 9 10 9 10 12 13 9 10 12 12 14 18 20 22 25 27 30 31 34 38 40 42 43 46 49 53 57 60 61 62 62 63 64 66 66 64 62 61 60 59 56 53 49 43 41 42 44
9 9 10 11 12 11 10 9 10 11 11 13 13 14 16 17 18 19 20 22 24 26 29 32 34 38 41 44 47 49 51 52 53 55 57 59 61 62 63 62 60 59 59 58 57 54 51 48 44 39 38 40 43 44
13 14 15 15 15 17 18 17 15 15 16 17 19 20 22 24 25 27 29 31 32 35 36 38 39 39 39 40 43 47 50 54 56 58 59 60 59 57 57 57 57 56 53 50 47 45 42 39 38 39 40 43 43 42
16 17 19 20 21 22 23 23 24 24 25 27 28 30 31 32 33 34 36 35 34 34 33 34 36 40 43 47 51 54 57 58 57 56 55 54 54 55 55 54 51 47 45 43 41 40 39 39 39 40 42 42 40 38
24 25 27 28 29 30 30 31 31 31 31 31 31 32 33 34 34 33 32 31 32 34 37 40 45 49 52 55 57 57 55 53 52 52 53 53 53 51 47 45 45 43 41 41 41 41 41 41 41 41 40 38 36 36

GFSWCAN_500_spd_042.txt.gz
Wind_Speed
66 59 60 57 68 64 70 75 65 65 62 59 55 50 47 45 46 45 44 43 46 46 49 54 54 50 46 41 36 31 28 23 20 18 16 13 12 11 11 12 14 16 17 18 21 24 28 29 32 34 36 38 40 43
50 53 54 68 74 70 67 67 65 61 57 53 49 45 43 43 43 40 43 41 43 44 47 51 51 49 44 41 34 32 29 27 24 23 19 18 17 16 15 16 18 20 22 24 26 28 33 36 38 39 41 42 43 43
56 61 68 69 68 66 62 59 57 53 49 46 43 41 40 42 40 35 35 38 38 40 44 49 49 46 45 41 36 34 32 29 27 24 23 23 23 22 23 23 25 27 28 30 32 34 38 39 41 42 43 43 42 42
67 68 64 60 57 55 54 52 49 46 43 39 43 42 40 38 36 34 33 36 35 35 38 45 45 44 42 39 36 34 32 30 28 27 27 27 27 27 28 30 30 32 33 36 36 38 40 41 42 43 43 42 42 42
56 56 54 52 49 46 44 43 40 40 38 35 39 41 39 36 35 32 35 31 33 35 33 39 42 41 40 38 35 33 31 30 29 29 30 30 31 33 33 34 34 35 37 39 39 40 41 41 41 40 40 40 41 43
53 51 49 45 42 39 36 36 38 40 39 38 37 35 35 36 35 34 35 35 34 34 31 34 41 40 39 37 35 34 33 32 32 32 32 33 33 35 37 37 36 36 38 39 40 40 40 40 39 39 40 42 43 44
44 42 39 39 36 35 34 35 35 39 37 36 36 36 34 34 34 40 35 30 33 34 34 31 34 40 39 37 36 35 34 33 34 34 35 34 35 38 39 40 35 36 37 37 37 38 39 40 42 43 44 45 46 47
35 38 39 41 38 35 30 30 28 31 34 32 31 34 33 33 34 35 37 34 36 30 31 32 35 34 36 35 33 31 30 32 36 36 36 36 38 39 40 34 34 34 34 35 37 39 41 43 43 44 46 48 48 48
34 35 39 37 37 31 31 30 32 31 35 35 35 35 34 37 34 33 37 37 35 31 31 31 32 32 34 34 35 35 35 35 35 36 36 37 38 37 32 30 31 34 36 37 39 41 43 44 47 48 48 47 48 50
32 35 31 31 28 27 31 27 19 26 28 30 32 31 34 29 26 23 26 26 25 25 24 24 26 28 29 31 32 33 34 35 36 35 35 36 33 30 30 31 33 35 38 40 42 44 45 46 46 46 47 49 51 53
34 29 32 28 27 20 24 28 26 26 26 26 31 27 29 28 32 27 26 25 24 22 22 23 24 25 26 28 29 32 32 33 35 33 33 32 31 30 30 33 36 38 40 40 41 41 41 43 46 48 51 53 55 56
32 27 36 35 30 22 24 19 24 27 23 21 26 27 31 25 23 23 22 22 20 19 18 18 20 22 24 25 27 29 30 32 34 31 31 32 30 31 34 36 37 37 37 39 41 43 45 47 50 52 54 57 59 60
24 31 29 32 32 22 21 17 19 18 17 17 17 18 20 22 24 21 19 18 18 17 19 19 20 20 22 24 26 28 30 32 32 34 34 31 31 34 36 37 37 39 42 44 45 47 50 53 54 55 55 55 55 56
18 28 27 25 30 31 26 26 20 20 20 19 17 17 19 20 17 16 16 18 18 18 18 19 19 22 23 26 29 30 33 34 35 34 31 31 34 36 38 40 43 44 46 49 52 52 52 50 50 51 53 54 55 55
17 21 23 32 32 30 27 31 25 24 21 21 21 23 22 20 22 23 24 24 24 24 24 26 26 27 29 32 32 33 34 35 35 33 34 35 38 41 43 45 48 51 51 50 48 46 47 50 52 54 55 54 51 48
19 21 24 26 29 24 27 28 33 32 31 33 33 26 23 25 25 27 29 30 29 31 32 33 34 32 29 31 32 31 32 33 34 37 39 41 44 46 47 49 48 44 42 43 45 48 52 55 56 55 54 51 49 48
17 20 23 25 24 23 23 25 26 28 30 33 32 31 30 30 30 31 33 33 32 32 28 28 27 28 28 30 31 32 34 36 39 42 45 46 46 45 43 40 39 42 45 49 51 54 57 57 56 54 53 52 52 53
17 20 20 20 22 23 23 23 23 24 24 23 24 26 28 27 26 24 24 23 24 25 25 26 28 30 32 33 35 38 41 42 44 44 43 42 39 37 38 41 45 48 51 53 55 57 56 55 53 52 51 51 53 55
23 22 23 22 21 20 22 22 22 21 21 22 23 23 24 26 27 29 29 30 31 31 33 35 36 37 38 39 39 40 39 39 39 37 37 37 38 40 43 47 50 52 54 55 55 54 52 50 49 50 51 52 54 57
30 30 29 29 28 31 35 35 29 28 28 29 29 30 30 31 33 33 34 35 36 36 36 36 37 37 37 36 36 36 35 35 35 36 38 40 43 46 49 52 53 53 54 52 51 48 47 47 49 51 52 54 57 60
26 28 32 34 34 33 34 36 36 35 35 34 34 33 33 34 34 33 34 34 34 33 33 33 32 33 33 34 34 35 36 37 38 40 43 46 49 51 53 53 53 51 48 45 43 45 47 49 51 53 56 60 63 66
11 14 14 17 19 21 25 26 27 27 28 28 29 30 30 30 30 30 31 30 30 30 31 32 33 34 35 35 36 38 40 43 45 48 50 52 52 52 51 48 45 43 41 43 46 48 49 52 55 59 62 65 69 74
13 14 15 14 16 18 17 19 20 21 22 23 24 26 27 28 29 30 31 33 34 35 35 36 36 37 38 40 43 46 48 51 52 53 52 50 49 46 42 40 40 42 44 45 47 51 55 58 61 64 68 72 77 81
14 15 17 18 19 19 19 20 21 21 22 23 24 25 27 29 30 32 33 34 35 37 39 40 42 44 47 50 51 53 53 51 50 48 44 40 38 38 39 40 41 44 47 50 54 57 59 62 66 71 75 79 80 78
19 19 20 21 22 23 24 26 27 29 30 31 33 35 36 37 39 40 41 43 44 46 47 49 51 53 53 53 52 49 46 41 36 34 35 37 38 39 41 45 48 51 53 55 58 61 65 70 74 76 76 75 75 70
21 21 23 24 26 27 29 30 31 33 35 37 38 40 41 43 45 46 49 50 52 53 54 54 53 49 45 40 35 33 31 32 33 35 36 38 40 44 47 50 52 54 57 60 64 68 71 73 73 73 72 68 65 64
24 25 27 28 30 31 32 33 35 37 38 39 42 43 45 44 45 43 42 43 42 40 37 34 30 24 22 23 26 29 32 34 37 39 42 44 48 50 52 54 57 60 63 66 68 68 69 70 68 64 63 62 59 55
26 27 27 26 25 27 24 24 23 21 19 18 19 18 20 22 19 14 13 13 12 13 17 16 18 22 26 30 31 34 37 40 42 43 46 48 50 53 55 57 60 62 63 65 66 66 64 61 60 60 57 52 48 44
14 12 12 9 9 8 8 9 10 11 11 10 10 11 11 9 10 12 14 15 16 18 20 23 25 28 31 34 37 38 40 42 45 47 48 50 52 53 57 60 62 63 64 64 61 58 58 58 55 51 47 43 40 39
11 10 10 10 10 11 12 11 13 14 15 14 14 14 15 15 17 19 20 22 23 24 26 28 31 33 36 39 41 43 44 44 45 47 49 52 56 59 62 63 63 61 59 57 57 57 55 50 47 44 41 40 39 39
11 13 14 14 16 17 17 18 19 20 20 20 21 22 24 25 27 28 30 32 33 34 36 37 38 39 40 40 41 41 43 46 49 53 57 60 63 63 61 59 57 56 56 56 53 49 47 45 43 41 41 40 40 40
15 16 18 19 21 22 23 24 25 26 27 28 29 30 31 32 33 34 35 37 37 37 38 38 38 39 40 41 44 47 50 54 57 60 63 62 60 58 57 57 56 55 52 47 45 44 45 44 43 42 42 40 40 39
22 24 25 26 28 29 31 32 33 33 34 35 35 35 35 35 35 37 37 37 36 36 36 37 39 42 45 48 51 55 58 60 62 63 61 60 59 58 56 53 50 46 44 44 44 45 44 42 41 40 39 40 42 43

GFSWCAN_500_spd_045.txt.gz
Wind_Speed
30 42 48 47 44 41 42 56 77 83 73 79 82 68 64 69 58 53 54 54 53 54 55 47 53 51 55 52 47 45 42 37 31 26 22 17 14 13 12 13 15 17 18 17 19 21 23 22 25 27 30 33 36 39
53 53 51 48 50 61 71 72 89 75 58 72 64 62 61 66 65 59 51 49 49 49 47 45 49 53 54 52 46 44 40 34 30 30 24 21 17 15 15 16 15 17 17 19 20 25 26 29 31 33 36 38 41 43
59 56 56 53 66 62 64 62 58 60 66 63 60 53 62 60 53 45 47 45 45 47 47 48 49 52 54 51 45 43 39 34 31 29 28 24 22 20 20 21 20 23 23 25 26 30 32 35 37 38 41 43 44 45
49 50 52 58 60 62 67 71 67 68 68 66 62 60 59 57 47 44 46 42 46 47 48 44 44 50 52 51 48 43 38 35 33 33 31 27 25 25 24 26 26 27 28 31 32 35 37 40 40 43 44 45 45 45
55 57 61 63 63 64 64 66 64 61 59 58 57 56 55 49 41 41 43 38 41 46 46 41 43 48 50 49 46 43 39 37 35 34 32 30 29 30 29 30 31 32 34 36 38 38 40 44 43 44 45 44 43 43
63 64 62 58 56 56 56 56 55 54 53 52 51 50 48 43 40 39 35 33 36 40 37 40 42 46 46 45 45 43 40 38 36 34 33 33 32 33 34 34 34 35 37 39 42 42 44 46 44 44 43 43 43 45
57 57 55 51 50 49 49 49 49 49 48 48 48 47 46 38 36 34 30 33 31 32 33 33 38 41 42 41 40 39 38 36 36 35 35 35 35 37 37 38 36 38 40 42 43 44 45 43 44 43 44 45 46 47
47 44 43 45 44 43 43 44 43 43 43 44 43 42 43 42 35 32 32 34 38 36 31 30 36 39 40 39 38 36 36 37 37 38 38 39 39 40 42 39 39 40 42 42 43 42 44 44 44 45 46 47 49 49
36 37 36 36 36 38 37 38 39 36 35 38 38 41 40 41 35 34 36 17 31 36 34 30 30 33 37 38 37 37 38 38 40 40 42 41 40 42 40 39 40 40 41 41 41 42 43 43 45 46 47 47 46 47
31 29 32 29 29 30 31 33 35 39 35 35 37 38 41 37 32 33 34 24 31 32 30 31 30 30 31 32 35 37 38 38 40 39 40 42 42 40 38 37 37 37 41 42 42 42 43 45 45 44 44 46 49 50
31 24 26 25 27 33 34 31 32 32 34 37 36 37 35 30 29 29 33 32 32 31 26 25 27 28 29 30 32 35 36 39 41 42 43 43 40 34 34 35 37 40 41 41 42 43 43 43 44 47 48 50 53 55
29 26 28 21 24 29 23 23 26 31 32 34 32 31 32 33 31 29 31 32 28 27 24 24 25 27 29 31 33 35 36 39 41 40 38 40 32 31 33 37 40 42 41 41 41 42 44 46 49 51 54 55 54 52
25 27 28 27 26 24 20 20 24 26 26 28 28 30 28 26 28 31 26 18 18 19 21 23 25 26 28 30 31 32 34 35 34 35 36 33 32 35 38 40 41 40 40 41 43 45 47 49 52 54 52 49 49 52
24 24 22 29 24 24 20 21 29 24 23 24 27 27 29 29 26 23 20 20 21 23 24 24 23 23 23 24 28 29 31 33 34 34 32 33 36 37 38 38 38 40 41 44 46 48 51 52 49 46 47 50 53 56
21 25 25 25 24 20 19 17 19 19 19 21 20 19 20 18 19 20 19 20 19 20 20 21 22 22 23 27 28 30 33 35 36 34 35 36 37 38 38 39 41 44 46 49 50 50 47 45 45 49 52 55 57 60
19 24 26 23 25 26 24 18 18 16 22 21 19 17 17 16 16 19 19 20 21 22 25 26 27 28 30 33 34 36 38 39 37 37 37 37 38 40 42 44 48 50 51 50 48 46 45 48 51 54 56 59 59 60
19 20 20 19 21 22 26 21 20 22 25 24 23 26 25 22 19 19 22 23 25 28 32 34 34 36 38 39 39 37 35 34 36 37 39 40 42 45 48 50 51 50 48 46 45 48 51 53 56 58 59 60 60 58
20 20 22 23 22 22 22 20 23 26 31 31 30 30 30 32 29 28 29 29 31 34 37 38 37 34 32 32 30 31 33 35 38 41 44 46 49 50 50 49 47 46 45 47 49 52 55 57 58 59 60 59 57 54
19 21 21 21 23 23 24 24 24 24 24 26 28 29 29 31 32 33 33 32 32 31 30 30 32 32 33 35 37 39 42 44 45 46 46 47 47 47 46 45 45 47 49 51 54 57 59 60 60 59 56 53 53 55
26 22 21 25 25 25 22 23 23 24 22 21 21 21 23 25 26 26 28 30 33 34 36 37 38 40 41 41 42 43 44 44 44 43 43 44 43 44 45 46 48 51 54 57 58 59 60 58 55 52 51 53 55 55
31 30 28 28 27 27 28 27 27 27 28 27 28 28 29 30 31 32 33 34 35 36 37 38 40 41 42 41 40 40 40 40 40 41 43 44 45 47 49 51 55 57 59 59 59 56 53 51 51 52 52 53 57 61
27 30 31 34 34 33 34 38 38 38 37 36 35 35 34 34 34 33 33 34 35 35 35 35 36 36 36 36 37 38 40 42 43 44 45 47 50 53 56 57 58 57 56 53 51 49 49 50 51 54 57 60 62 65
11 13 16 19 21 26 22 26 26 27 26 27 28 29 29 30 31 31 31 31 31 32 33 34 34 36 38 39 41 42 44 45 47 49 52 55 57 58 57 56 53 50 47 47 48 48 49 53 57 59 62 64 67 71
14 15 15 15 16 15 18 19 21 21 22 23 25 26 27 28 29 30 31 32 33 34 36 37 38 40 42 44 46 48 51 53 56 57 57 57 55 51 48 45 44 45 46 47 48 51 55 58 61 63 65 69 72 74
18 18 18 18 18 19 19 20 22 23 24 25 27 28 30 31 33 35 36 38 40 41 43 45 46 49 51 53 55 56 56 55 54 51 45 43 41 39 39 42 44 46 48 51 54 57 60 62 64 67 69 71 71 72
20 19 20 19 20 22 23 25 26 27 29 30 32 34 35 37 39 41 43 45 46 48 50 52 53 55 56 56 54 51 46 41 38 37 38 37 40 42 44 46 49 51 53 56 58 59 61 64 66 68 70 70 68 65
17 18 20 21 22 22 24 25 27 29 30 32 34 36 38 40 43 44 45 46 47 47 47 46 44 41 38 35 33 31 29 31 35 38 39 41 44 46 49 52 53 55 56 57 58 61 64 67 69 69 68 64 60 59
18 19 20 21 22 24 24 25 27 28 29 28 29 27 27 29 27 26 25 22 21 19 18 17 18 19 22 24 25 28 31 34 38 42 46 48 49 51 53 54 54 55 57 59 62 66 69 69 67 64 61 59 58 55
17 18 18 17 17 17 17 17 16 15 14 13 13 14 16 15 15 15 15 16 18 19 21 22 24 25 27 29 31 34 36 39 43 46 48 50 52 51 53 55 56 58 62 64 68 69 67 64 62 60 59 56 51 48
10 11 12 12 12 13 14 14 14 15 15 15 16 18 20 21 22 22 23 24 26 27 29 31 33 34 36 38 40 42 44 46 47 48 49 51 52 55 56 58 62 64 67 70 69 66 64 62 60 55 50 46 46 46
11 12 13 15 16 17 18 19 20 20 21 23 25 25 25 26 27 29 31 32 34 36 38 39 40 41 42 43 44 44 45 46 48 50 52 54 57 59 63 66 68 69 70 69 66 63 58 54 49 46 45 45 45 44
17 18 19 20 22 22 24 25 26 27 29 30 32 33 34 34 35 36 37 38 39 40 41 42 42 42 43 43 44 45 47 49 52 55 58 61 64 66 68 69 69 67 64 59 55 51 48 47 46 46 46 47 46 45
21 23 24 25 27 28 29 30 31 32 33 34 35 36 37 38 38 39 39 40 40 40 40 40 40 41 42 45 47 50 53 56 59 61 64 66 67 67 64 59 56 53 51 50 49 48 48 48 47 48 48 48 47 47

GFSWCAN_500_spd_048.txt.gz
Wind_Speed
33 31 29 25 26 32 40 44 48 46 51 65 88 93 86 82 76 73 62 51 64 52 41 55 50 52 55 53 53 48 56 49 45 40 35 28 25 20 19 15 16 21 22 21 23 22 23 20 22 21 23 26 29 32
23 24 25 26 30 33 35 38 43 49 60 77 96 99 89 77 72 75 54 51 37 19 53 46 57 59 59 58 44 30 44 42 43 41 35 30 26 22 19 17 17 17 17 17 18 20 20 22 23 24 28 32 35 37
39 36 35 35 35 34 34 34 37 51 73 96 93 90 83 80 73 72 60 64 47 36 37 54 53 59 58 56 54 54 42 44 45 42 35 32 29 24 22 20 20 19 18 20 21 25 27 27 29 31 35 38 40 42
44 43 45 47 48 46 41 35 40 59 89 100 93 91 84 84 73 71 55 49 54 52 37 49 50 51 53 51 50 50 47 42 42 41 37 35 31 28 25 24 24 25 22 26 25 30 33 35 34 35 40 42 45 47
53 52 50 54 55 52 55 63 70 74 77 87 87 80 72 60 64 58 56 50 53 50 49 44 49 44 49 51 49 49 45 45 46 43 40 36 32 30 28 29 29 28 29 30 32 33 37 40 40 41 43 46 48 49
49 56 57 58 56 53 52 56 57 64 65 65 68 64 63 67 54 53 50 45 45 35 45 43 45 45 46 48 48 50 46 46 50 43 40 36 33 33 33 33 33 32 34 36 39 39 40 42 44 46 48 49 48 47
42 47 49 47 45 47 48 57 53 63 63 61 68 72 62 48 52 47 45 42 39 38 40 41 42 45 44 44 46 49 48 47 47 43 40 37 35 35 35 37 36 35 38 40 42 44 44 46 46 48 49 48 47 47
49 50 53 54 55 56 59 59 57 58 61 61 60 59 53 45 47 42 41 40 34 33 39 39 43 42 41 42 44 47 46 45 45 44 41 39 38 38 40 40 39 40 42 43 43 46 48 49 49 48 47 47 47 47
41 43 44 46 47 49 49 48 47 47 47 50 52 50 48 37 39 28 37 35 35 28 30 35 35 34 38 39 40 40 40 41 42 42 42 41 41 43 42 41 42 43 43 44 47 48 49 48 47 47 47 47 48 48
33 37 39 37 39 42 45 47 47 48 49 51 43 48 48 36 40 37 32 33 37 20 35 28 26 33 35 36 38 39 38 39 41 42 43 44 43 42 43 42 42 44 46 49 49 48 47 47 46 47 47 47 48 50
23 26 29 31 36 37 37 40 44 48 49 50 50 40 35 35 33 32 31 21 29 33 32 30 30 33 33 35 36 37 38 40 40 41 42 43 43 40 41 42 45 45 47 47 47 46 46 47 47 47 47 48 50 53
17 22 24 27 28 32 34 35 34 38 40 44 42 41 37 39 29 26 33 22 20 29 35 34 30 30 30 34 34 36 36 38 40 40 40 41 38 39 39 41 42 44 45 45 46 47 47 47 47 47 50 52 54 57
20 22 24 24 28 29 31 33 33 31 31 33 36 35 34 32 30 30 33 29 18 26 18 16 18 20 23 26 29 31 33 36 37 40 41 39 35 35 37 39 41 43 45 46 46 46 45 46 49 51 53 56 58 56
27 20 17 27 22 20 21 20 22 24 28 29 28 30 32 30 25 21 19 24 22 21 23 24 24 24 23 25 28 30 32 35 37 38 36 32 33 35 37 39 41 42 42 43 43 45 47 50 53 55 57 56 53 52
25 21 27 22 18 16 21 15 24 24 26 27 25 30 29 25 23 24 22 21 17 19 22 24 25 27 28 29 28 29 30 31 31 31 31 33 36 39 40 41 42 42 42 42 45 49 52 55 57 57 54 52 53 56
18 18 24 31 18 18 16 16 22 19 19 21 20 23 28 23 21 21 18 19 20 22 23 25 26 26 26 27 26 26 28 30 31 35 39 40 42 41 41 41 41 42 44 47 51 54 56 55 53 51 52 55 57 60
14 18 17 25 24 19 18 16 13 14 16 21 18 20 21 19 16 16 17 16 16 19 21 21 24 27 28 31 32 33 36 38 40 41 41 40 39 39 40 41 43 47 51 54 55 53 52 51 52 54 56 59 62 64
18 20 20 21 21 24 23 23 19 17 21 20 22 20 21 19 17 19 20 19 19 22 25 26 28 32 34 37 38 40 41 39 37 36 36 37 39 42 46 49 52 53 53 52 52 51 52 54 55 58 61 64 66 66
19 21 21 21 22 24 25 24 23 21 19 20 24 26 25 25 25 27 29 30 29 28 29 31 34 36 37 37 36 35 35 36 38 40 43 46 48 50 51 51 51 51 52 52 52 53 55 57 60 63 65 65 65 63
21 23 23 22 24 23 22 22 21 21 23 25 27 31 33 33 32 31 30 30 30 29 30 32 33 33 34 36 39 41 42 44 45 47 47 48 49 50 50 50 50 51 52 54 55 57 60 63 64 65 64 63 60 58
22 23 22 22 23 25 24 20 21 22 24 26 27 27 26 26 26 26 27 28 28 29 31 34 37 39 41 42 43 44 45 46 46 46 45 45 46 47 49 50 52 54 56 58 61 63 65 65 63 61 58 57 57 56
28 28 30 26 23 24 29 28 26 25 27 28 28 29 29 29 30 32 34 35 36 37 38 39 39 40 41 41 41 42 42 42 43 44 45 47 48 50 52 54 56 59 61 63 64 63 61 58 55 54 55 54 55 58
26 30 32 33 31 31 32 32 33 34 35 37 36 36 37 38 39 38 36 35 36 36 37 37 37 37 38 39 40 41 43 44 46 48 49 51 52 55 57 59 61 63 63 61 59 55 52 51 51 52 54 57 60 64
12 14 16 19 24 21 25 24 28 29 29 29 28 28 28 28 29 30 31 32 33 34 34 35 36 37 38 40 42 44 45 48 50 53 56 58 60 61 61 60 59 56 52 49 47 48 48 51 55 58 59 62 64 65
16 15 16 15 16 17 18 19 20 21 22 22 23 25 25 26 28 29 31 32 34 36 37 39 41 43 45 47 49 52 54 56 57 59 59 60 59 55 49 45 45 47 48 50 52 53 55 58 60 62 63 64 65 66
15 17 18 18 18 19 20 21 21 22 23 25 26 28 29 31 32 34 36 38 39 41 43 45 47 49 51 54 55 56 57 56 54 52 48 46 45 45 46 46 46 48 49 52 56 59 60 61 62 63 64 65 66 69
14 13 15 17 20 21 21 22 22 23 25 26 28 30 31 33 35 38 39 41 43 45 46 47 47 47 47 45 42 38 35 34 34 34 35 37 40 43 44 46 50 53 56 58 59 60 62 63 64 65 66 69 71 73
17 16 17 18 19 20 21 22 23 25 26 28 30 30 32 33 33 33 34 33 31 30 29 28 26 25 24 25 26 28 29 32 34 36 39 42 44 47 50 53 56 58 59 60 61 63 64 66 67 69 71 74 75 74
20 20 21 21 21 22 22 23 23 23 23 23 24 24 23 24 23 22 22 22 23 23 24 26 28 29 30 32 34 36 38 40 42 44 47 49 50 53 55 56 57 58 60 62 63 65 67 69 72 74 76 75 70 63
13 13 13 14 15 15 16 16 17 18 18 19 19 21 21 22 23 25 26 28 29 30 32 34 35 37 39 41 43 46 47 48 50 51 52 53 54 54 56 57 59 61 63 65 68 71 73 75 74 70 63 58 54 52
11 12 13 14 16 17 18 19 21 22 23 24 25 26 27 28 30 32 33 35 36 38 40 41 43 44 46 47 48 49 50 51 52 53 53 54 55 57 59 61 64 66 69 71 73 72 68 63 59 56 55 54 52 50
17 18 20 21 22 23 24 25 26 27 29 30 32 33 34 35 37 38 39 40 42 43 44 45 46 47 47 48 49 49 49 49 50 52 54 57 60 62 65 67 69 69 67 64 62 61 62 62 61 60 58 56 55 53
18 19 21 23 24 26 28 29 30 31 32 33 34 35 36 37 37 37 38 39 39 39 39 39 39 39 40 41 43 46 48 51 54 57 60 62 64 64 63 62 62 62 63 62 61 59 57 55 54 52 51 49 48 47

GFSWCAN_500_spd_051.txt.gz
Wind_Speed
26 29 33 33 32 29 26 32 56 62 70 64 74 88 92 89 85 80 70 64 59 54 49 44 44 38 47 45 47 48 44 46 57 49 43 43 40 35 31 25 20 23 25 25 25 23 23 22 22 21 21 21 24 26
23 27 31 31 29 26 28 49 56 58 51 47 68 85 90 88 82 74 69 63 58 54 44 45 48 43 38 43 48 49 41 42 43 37 38 38 38 35 29 26 23 24 22 22 23 23 23 20 17 15 22 25 27 29
24 27 29 28 24 27 36 51 53 50 41 44 62 86 89 84 79 73 68 60 55 47 52 47 43 50 46 50 45 43 46 45 50 46 40 39 37 36 32 26 26 22 20 20 20 20 20 19 21 23 27 30 32 34
22 23 24 24 25 35 40 47 47 40 40 49 66 80 85 78 75 69 62 57 56 57 52 50 51 54 53 48 45 40 51 43 43 43 41 44 42 39 32 28 28 24 23 22 23 24 25 26 28 29 32 35 37 40
26 21 22 29 34 36 37 38 42 44 45 56 72 83 83 79 72 65 56 41 30 57 50 46 56 60 58 53 50 47 36 45 27 31 40 44 42 39 35 32 30 28 26 26 26 28 31 32 34 36 39 41 42 43
45 42 42 44 43 38 35 36 39 48 57 65 80 84 82 75 70 62 56 31 35 31 38 41 35 36 38 41 48 29 47 43 40 37 42 43 41 40 38 36 32 31 30 30 31 32 34 37 39 41 43 44 45 47
49 53 53 51 50 47 45 42 46 57 65 72 79 80 83 85 79 42 53 22 27 23 27 28 34 34 42 43 50 49 47 44 49 49 47 43 42 41 40 38 34 33 33 34 35 36 38 40 43 45 47 47 48 49
50 46 51 57 56 47 50 62 74 78 80 80 79 78 78 72 45 28 29 18 42 29 34 36 34 31 36 43 44 43 41 48 49 45 42 42 42 43 44 40 37 36 35 37 39 41 43 44 45 47 48 49 49 49
52 48 45 48 51 50 65 79 74 76 81 78 76 68 59 62 50 52 35 27 39 47 25 18 29 36 38 44 42 39 37 43 44 47 45 41 42 45 44 40 40 40 40 40 42 44 46 48 48 49 49 49 49 49
46 50 53 54 51 53 59 67 66 62 66 64 60 64 41 30 29 46 51 46 30 33 30 29 29 33 38 40 41 37 40 42 43 45 45 45 43 43 43 43 43 44 43 43 44 46 47 49 51 50 49 50 50 52
36 43 48 45 47 54 54 52 54 58 64 58 50 45 24 37 32 32 37 39 36 34 32 28 27 29 28 34 33 34 37 37 38 39 40 42 42 41 41 43 44 43 45 46 47 48 50 51 49 49 50 51 52 52
27 31 32 36 43 46 47 47 50 51 49 47 51 45 28 19 30 31 26 32 35 33 31 24 25 25 23 29 32 34 35 37 40 40 41 42 38 38 40 41 41 43 45 47 48 49 48 48 49 50 51 50 50 51
23 23 26 27 30 33 38 43 49 37 33 34 37 30 37 23 23 27 25 23 20 29 36 23 26 21 27 30 30 33 35 37 36 37 38 36 36 36 37 38 40 42 44 45 45 47 48 48 48 47 48 51 51 54
24 21 22 23 24 26 28 30 36 39 30 36 38 30 34 30 23 19 22 23 17 15 16 21 29 25 25 29 34 36 36 36 38 37 33 32 33 33 33 35 38 40 41 43 45 46 47 48 48 49 48 52 57 59
16 23 17 20 21 22 24 26 28 31 31 34 33 29 27 25 25 21 20 18 25 17 16 15 15 17 20 22 24 26 28 30 28 26 27 27 28 30 33 37 39 40 43 45 47 47 46 46 47 50 55 59 60 58
19 17 21 16 17 17 14 19 20 23 27 31 33 29 27 26 23 20 15 15 23 23 20 19 19 21 21 24 23 25 26 26 27 27 28 29 31 34 37 41 43 45 45 44 43 43 45 48 53 59 60 58 57 56
15 10 16 16 15 16 13 11 20 23 22 23 18 18 26 26 24 23 17 18 22 19 17 17 17 20 21 23 24 25 27 28 30 32 35 37 39 43 43 41 39 39 39 41 44 48 54 57 57 55 55 55 56 58
13 12 11 21 25 15 13 13 13 13 15 16 16 15 20 19 22 17 18 16 15 16 16 18 20 23 23 24 27 30 32 35 37 39 41 42 39 37 36 37 40 43 47 52 54 54 55 54 54 54 56 58 59 62
14 18 20 22 27 28 25 25 23 16 13 14 13 15 17 17 20 19 17 17 19 21 22 24 23 23 25 27 29 32 35 38 39 38 37 38 39 41 43 46 49 51 53 53 52 52 53 54 55 58 59 61 63 64
14 17 20 21 23 27 27 25 26 25 22 21 23 23 23 25 26 26 26 25 24 25 27 30 30 31 32 32 32 33 34 35 37 40 43 45 47 49 50 51 52 52 51 51 52 54 55 58 60 61 63 65 67 66
20 19 20 22 22 22 22 22 22 22 24 24 25 26 27 29 31 31 32 32 33 31 30 29 30 31 31 33 35 37 39 42 44 46 48 49 49 49 49 50 50 50 52 55 56 58 60 62 63 64 64 63 61 58
23 21 20 20 23 22 23 24 24 23 23 26 27 28 29 30 30 29 29 29 29 29 30 31 34 36 39 40 41 43 43 44 45 45 46 46 47 48 50 52 53 55 56 59 60 62 64 65 65 63 59 56 53 52
28 27 26 27 27 25 26 26 28 27 25 25 27 29 29 29 30 32 33 34 36 37 38 40 41 42 41 41 41 42 42 43 44 46 46 47 49 51 53 56 58 60 62 64 65 65 63 60 55 54 54 53 54 57
21 23 28 32 33 31 31 32 32 32 34 36 36 35 34 34 36 37 38 40 39 39 39 37 36 37 38 39 40 41 42 44 46 48 51 53 56 58 60 61 63 63 63 61 57 53 53 54 54 54 54 56 60 63
10 11 14 16 19 21 23 23 24 27 26 26 28 29 29 31 30 30 31 33 34 34 35 36 37 38 39 41 43 45 48 50 52 54 56 58 60 61 61 60 58 57 54 54 53 52 53 53 54 58 61 63 64 65
12 12 13 14 16 18 19 19 20 20 21 23 24 25 26 27 28 29 31 33 34 35 37 39 41 43 45 47 48 50 52 54 55 56 54 51 48 46 44 43 44 44 46 48 51 53 56 59 61 63 65 66 66 67
16 15 15 15 15 16 18 20 21 22 23 24 25 26 27 29 30 32 34 35 37 38 40 42 44 46 47 47 47 45 43 39 37 36 34 34 37 39 41 43 46 49 51 55 57 60 62 64 64 65 66 68 69 69
19 19 18 18 18 18 19 19 21 23 24 26 27 29 30 31 32 33 34 34 35 36 35 34 33 31 30 30 31 31 33 34 36 39 41 43 46 49 51 53 55 57 59 61 62 63 64 65 66 68 69 70 72 73
21 21 20 20 20 21 22 23 24 25 26 26 27 27 27 28 28 27 28 28 27 26 27 28 29 31 33 35 37 39 41 43 45 48 49 51 53 55 57 58 59 60 61 62 63 64 66 67 69 71 73 74 74 72
14 16 16 17 17 18 18 19 19 20 20 20 21 21 22 22 23 24 26 28 29 31 33 35 36 37 40 43 45 47 50 52 53 54 56 56 58 58 59 60 60 61 61 63 65 67 70 72 73 73 71 69 67 65
10 11 13 14 15 16 17 18 19 20 21 23 24 25 26 27 29 30 32 34 35 37 40 42 44 45 47 48 49 50 51 52 53 53 54 54 54 55 56 58 61 64 66 68 70 70 70 69 68 67 66 64 61 58
17 18 19 20 22 23 24 25 26 27 28 30 30 31 33 35 35 36 38 39 40 41 42 42 43 43 43 43 43 44 44 46 47 49 52 55 58 60 63 64 65 65 65 65 65 65 64 62 62 62 61 60 59 57
15 15 15 17 18 20 21 23 24 26 27 29 30 31 32 33 34 33 34 34 34 34 34 35 36 38 39 41 43 45 47 50 53 55 57 57 58 59 59 59 60 59 60 60 61 60 59 58 57 55 54 53 51 50

GFSWCAN_500_spd_054.txt.gz
Wind_Speed
28 30 42 42 39 34 33 34 35 31 30 37 55 69 92 97 91 87 81 74 67 62 59 58 56 54 51 47 41 40 41 43 39 39 41 41 40 42 42 38 32 32 31 31 29 28 29 24 23 23 20 23 23 24
26 32 34 35 34 33 31 30 28 28 28 43 58 64 88 94 90 87 81 73 66 62 56 52 52 52 46 44 44 39 37 39 40 35 33 45 39 44 40 37 35 35 31 32 28 26 26 26 23 23 21 21 22 25
26 28 31 31 27 25 22 21 27 31 41 67 66 68 81 92 88 85 78 71 62 57 50 40 44 48 46 40 42 42 40 40 36 35 34 37 39 44 36 38 36 36 33 31 29 25 22 21 19 19 22 24 26 29
21 25 25 25 23 19 15 28 43 49 53 63 60 59 74 88 88 83 77 71 63 55 57 47 34 33 40 40 41 45 36 35 36 40 39 42 34 33 32 38 38 36 33 30 29 26 24 24 23 24 26 28 30 32
20 22 23 20 18 21 34 50 47 47 53 48 43 57 76 88 86 83 76 70 58 51 46 41 40 31 36 42 39 36 34 39 39 39 41 39 37 35 40 39 38 38 34 32 30 29 28 27 27 28 30 32 34 37
21 20 22 21 22 37 43 49 46 48 48 37 44 63 79 86 82 76 72 58 55 45 37 36 41 41 34 31 35 41 42 36 39 41 53 47 41 46 46 49 42 38 35 32 31 32 32 32 32 33 35 36 38 40
24 26 29 29 33 45 43 39 42 42 36 45 55 70 81 81 73 67 61 55 53 47 27 31 34 40 30 40 43 42 42 39 41 44 54 49 51 46 48 45 40 39 37 34 33 33 34 36 37 37 39 41 42 44
36 27 34 37 37 38 38 36 35 38 49 54 61 75 81 75 68 60 52 47 45 41 37 43 30 37 40 28 32 33 45 37 48 38 26 34 32 36 40 41 41 40 39 36 36 36 36 38 40 42 44 45 45 47
49 37 35 35 35 38 41 44 45 48 57 59 70 77 73 64 58 55 50 39 35 39 18 24 29 23 22 26 33 36 35 42 24 32 27 34 38 45 47 42 40 41 40 40 39 39 40 42 44 46 46 47 49 50
61 59 52 49 47 50 52 53 60 62 62 69 70 68 66 64 49 40 38 39 35 30 23 25 13 16 21 24 28 35 39 40 39 40 42 41 45 49 41 34 36 38 40 41 43 44 44 45 46 47 48 50 50 51
51 57 59 59 60 59 62 62 64 68 72 76 77 63 50 49 43 27 31 27 29 31 32 26 14 13 16 26 30 34 39 40 40 39 39 40 40 42 43 40 40 40 42 44 44 45 46 47 48 49 49 49 50 50
45 50 50 48 57 57 61 61 62 66 69 73 66 46 35 34 31 29 27 26 20 16 16 24 25 20 15 22 31 35 34 36 38 38 41 41 35 35 38 39 40 41 41 41 43 45 47 48 48 48 49 50 50 51
35 35 42 42 46 50 50 46 47 47 54 41 40 30 31 29 28 28 29 32 27 25 22 23 21 20 20 25 24 29 34 37 38 40 37 37 32 31 32 35 37 39 41 44 45 45 44 45 47 49 49 50 51 50
30 32 32 34 42 45 49 45 41 42 47 46 38 33 24 25 22 24 17 15 15 16 23 25 21 19 22 22 21 24 28 30 32 33 29 29 29 32 35 37 40 40 40 39 39 42 44 47 48 49 50 50 50 50
26 27 27 31 32 33 37 40 34 30 36 35 28 25 17 14 17 12 15 17 14 16 13 18 27 24 22 20 25 25 28 31 29 29 30 33 41 40 36 32 31 32 34 37 40 43 47 49 49 48 48 48 49 53
22 22 23 22 22 26 29 20 23 22 18 23 27 18 16 19 14 14 15 13 14 15 17 17 20 22 23 25 24 25 26 29 30 33 34 30 27 25 27 32 33 36 39 43 46 46 46 45 44 45 48 51 55 61
11 19 18 16 16 16 18 18 19 20 19 20 23 25 18 17 18 18 18 17 16 19 22 23 20 18 18 19 19 18 18 20 22 24 25 26 28 31 33 37 40 43 44 43 41 40 43 46 48 51 57 61 60 59
25 14 12 9 13 13 12 16 20 21 21 19 19 22 25 25 23 22 21 20 15 17 19 18 15 14 14 15 15 18 19 21 24 27 30 33 36 39 41 43 42 41 41 43 45 47 50 55 58 58 57 56 57 58
17 15 13 18 20 16 15 15 16 17 18 19 20 18 17 20 19 21 19 17 16 17 16 16 18 17 18 20 23 26 29 30 30 32 34 37 39 41 41 40 42 45 47 49 52 54 55 55 55 55 56 58 60 62
12 15 15 16 23 23 20 19 19 17 17 17 18 17 17 16 17 17 18 22 23 20 20 20 22 25 28 29 31 32 33 35 36 37 37 37 39 41 44 46 49 51 52 52 53 53 53 55 57 59 61 62 64 66
14 14 15 18 19 23 26 25 27 26 27 25 22 23 23 22 22 23 25 27 29 30 29 28 28 29 32 34 35 34 35 36 36 37 40 42 45 47 49 50 51 50 50 51 53 55 57 59 61 64 66 67 68 66
16 15 17 19 21 21 21 22 25 25 27 30 31 29 28 28 29 30 31 32 33 34 33 32 32 33 33 34 35 36 38 41 44 46 48 48 47 48 49 49 50 52 53 55 57 59 62 64 66 67 68 67 66 61
23 23 22 22 22 23 23 24 25 25 25 26 26 27 27 28 29 30 30 31 31 32 33 34 36 38 39 41 42 44 46 47 46 45 45 47 48 49 50 52 54 56 58 62 64 66 67 68 68 66 64 62 59 58
18 24 27 30 30 28 28 29 27 27 29 29 30 30 30 30 31 32 33 34 36 37 39 41 42 44 45 45 45 45 44 45 45 47 47 48 50 52 54 57 59 61 63 64 64 64 62 59 57 55 54 55 57 60
7 8 13 16 22 26 30 31 33 34 33 35 36 35 36 37 38 39 39 39 40 40 40 40 40 38 38 39 39 40 42 44 47 49 52 54 55 57 59 59 59 57 54 52 49 49 50 51 54 57 60 62 64 66
12 10 9 11 14 16 18 20 21 23 25 26 28 30 29 30 31 32 32 32 32 33 34 34 36 37 39 41 42 44 46 47 49 51 52 52 52 52 50 48 46 46 48 50 52 55 57 60 63 65 67 69 70 70
22 17 16 15 15 17 18 21 22 23 23 24 25 26 27 28 29 31 32 33 34 35 37 38 39 40 41 42 43 45 46 46 45 44 43 41 42 44 46 48 50 53 56 58 61 63 65 67 68 70 71 71 72 72
21 24 22 19 19 20 21 21 22 23 24 26 27 28 28 30 31 32 33 34 35 36 37 38 39 39 39 39 39 39 39 40 41 42 45 47 49 51 54 57 59 62 64 66 67 69 69 70 70 70 71 71 72 73
25 25 24 23 23 23 23 24 25 26 26 27 28 28 29 30 30 31 31 32 33 33 33 33 34 34 35 37 38 40 42 44 46 49 52 54 57 59 60 62 63 63 64 64 64 64 65 67 69 71 73 74 74 73
16 17 18 19 20 21 21 21 22 23 24 24 24 24 25 25 26 26 27 28 29 30 31 32 35 37 39 41 43 46 48 50 53 54 54 55 55 55 56 56 58 60 62 65 67 69 71 71 71 70 70 70 69 68
14 14 15 16 16 17 17 18 19 20 21 22 23 24 25 26 27 28 29 31 33 34 36 38 40 42 44 46 48 48 48 48 48 49 49 51 53 55 58 61 63 64 65 65 66 66 66 66 66 65 64 63 62 60
14 16 18 19 20 21 22 23 25 27 27 28 29 30 31 32 33 34 35 36 38 39 39 40 40 40 40 39 39 40 42 44 46 50 53 55 56 57 58 60 60 60 59 58 57 55 54 54 55 56 57 57 56 55
15 14 13 12 12 13 14 16 18 20 22 24 25 26 27 28 29 29 29 29 30 30 30 31 31 33 34 36 39 42 44 45 46 48 49 48 48 46 46 46 47 47 47 48 48 49 49 49 49 49 48 48 48 48

GFSWCAN_500_spd_057.txt.gz
Wind_Speed
24 34 37 42 47 46 45 47 46 42 40 35 30 31 45 76 95 99 91 87 83 75 70 66 65 62 54 48 47 48 50 52 50 51 51 45 44 42 35 33 33 29 31 31 31 34 33 29 31 32 27 28 27 28
22 29 37 41 40 41 43 43 41 39 36 35 30 30 51 85 91 95 90 84 79 75 68 67 65 60 52 50 47 45 50 47 48 49 44 40 40 37 33 34 31 35 34 35 35 33 34 29 26 27 28 28 28 29
23 32 35 36 37 36 35 36 36 35 32 30 28 31 56 82 89 91 85 82 77 71 68 64 54 55 51 50 50 49 50 47 44 45 45 43 38 31 27 37 39 35 36 39 37 34 32 31 26 25 27 28 27 25
27 31 32 30 29 29 29 29 30 29 31 32 27 38 62 85 85 87 83 79 74 69 66 58 53 46 46 48 48 44 46 39 40 39 42 42 37 32 32 38 42 45 37 38 37 33 31 31 27 25 27 27 26 27
25 26 26 25 23 23 25 28 31 34 31 28 35 58 74 76 84 84 82 77 75 72 67 58 45 41 37 44 46 44 46 45 43 40 41 37 34 32 35 36 29 26 29 35 33 31 35 31 29 27 28 30 30 31
21 21 22 21 18 17 18 22 28 34 34 40 52 63 71 74 84 84 84 80 75 69 60 47 38 39 36 37 46 44 40 41 38 36 35 34 34 35 37 35 32 31 31 30 32 35 35 33 31 31 31 32 34 35
22 20 18 20 22 34 39 54 45 46 52 61 61 68 63 68 81 83 81 76 73 63 56 50 44 39 32 30 39 42 40 35 40 34 29 31 37 41 36 34 31 34 35 37 38 40 40 38 36 35 34 35 37 38
18 19 24 36 43 44 39 50 46 49 54 57 50 54 61 68 80 81 78 74 70 54 49 51 43 36 31 25 28 37 36 34 36 36 37 38 40 34 39 42 38 38 41 49 47 38 41 41 40 39 39 39 40 43
30 34 38 46 44 44 37 41 48 42 37 44 50 53 66 75 79 78 70 68 56 48 46 39 37 42 35 36 33 29 33 36 33 36 39 39 39 43 44 44 40 41 39 34 36 38 42 42 43 43 44 45 46 47
24 33 39 36 36 35 34 34 38 34 40 50 54 59 65 71 73 67 61 56 49 47 45 33 23 26 23 29 31 34 35 22 33 41 38 39 41 42 43 35 30 34 39 39 41 43 42 42 43 45 46 47 48 50
33 28 27 29 29 30 32 35 42 48 49 48 49 52 62 61 55 50 44 43 43 49 34 21 18 28 16 23 28 27 29 42 37 39 39 39 28 29 27 29 36 44 47 40 37 37 38 40 43 44 45 47 48 50
55 53 55 55 54 50 56 68 61 49 45 40 43 47 50 50 52 49 42 40 39 39 34 25 21 22 25 24 28 29 29 33 35 33 33 33 31 31 32 34 36 36 38 42 43 40 35 39 43 45 47 49 49 49
59 63 57 58 61 62 54 59 56 49 43 50 49 45 41 39 42 31 37 29 30 28 25 25 22 19 23 20 17 28 37 38 33 30 31 33 32 30 30 34 35 36 36 36 33 38 43 45 47 48 46 46 47 49
49 52 55 52 54 53 59 54 46 47 57 55 51 25 20 24 27 19 22 26 10 9 8 9 9 12 15 17 17 20 21 19 23 27 27 28 29 31 32 32 34 34 34 38 41 42 44 44 41 42 44 47 50 53
36 41 41 43 40 49 58 48 50 39 42 26 20 22 23 20 22 22 17 13 11 10 7 9 14 18 19 18 19 20 18 17 13 17 22 27 28 27 26 28 30 34 39 40 40 39 38 40 42 45 49 50 49 48
34 32 28 29 31 26 25 27 23 20 15 24 19 10 5 3 6 9 9 8 7 7 9 11 13 16 25 22 20 19 19 20 22 24 25 26 27 30 34 33 32 33 31 32 35 38 41 45 47 48 47 47 49 52
24 25 22 24 29 19 18 19 20 17 18 17 6 9 5 6 9 8 8 6 8 11 14 15 14 20 20 21 21 23 24 25 25 25 26 26 25 25 24 24 27 32 36 38 41 44 46 46 46 48 50 52 55 58
20 18 18 19 22 22 16 12 15 14 13 12 11 14 16 14 11 10 11 13 12 11 12 14 17 19 18 20 22 23 24 23 21 20 20 21 23 26 29 32 35 38 41 42 43 44 45 47 50 53 56 59 62 61
15 9 7 8 12 11 11 14 18 17 16 16 16 17 18 17 16 16 16 14 14 15 13 14 15 18 18 18 18 19 20 21 22 24 27 29 31 33 35 38 40 42 43 43 45 48 51 54 57 59 59 59 59 60
18 17 16 15 17 17 13 12 14 16 15 14 14 16 16 15 15 16 16 17 18 18 20 21 20 19 20 20 21 23 24 26 29 32 34 37 39 40 40 40 42 44 46 49 52 54 56 58 58 58 59 61 62 64
16 17 17 18 20 24 21 21 20 18 16 16 16 16 17 18 17 17 19 18 17 20 23 24 24 25 24 25 27 30 32 34 37 39 41 41 41 42 43 45 48 51 53 55 56 56 57 57 59 61 63 65 68 70
15 16 16 16 16 19 23 26 26 25 24 24 25 26 24 25 25 24 24 24 24 25 27 29 32 32 32 32 34 35 37 39 39 40 41 43 45 48 50 52 53 53 53 54 55 57 59 61 63 66 67 69 70 69
20 20 20 19 21 21 22 23 22 23 27 28 28 28 29 30 31 31 32 32 31 32 32 32 32 33 34 35 37 38 40 42 44 46 48 51 53 53 54 54 54 55 56 58 60 62 64 65 66 66 66 64 61 59
14 19 22 22 24 26 25 24 25 27 28 29 29 29 30 29 29 29 29 31 32 33 34 35 36 37 39 40 42 45 48 49 50 50 49 49 49 49 51 53 55 57 59 61 62 62 63 61 60 58 58 59 61 63
7 8 10 13 20 23 27 30 30 30 31 32 32 33 34 34 35 35 36 37 38 39 40 41 43 45 47 48 49 48 46 45 44 45 46 49 51 52 54 55 56 57 58 57 56 56 56 58 60 62 64 66 68 71
16 16 13 11 12 14 17 21 25 29 34 36 35 36 37 38 39 39 40 40 40 40 40 40 39 39 39 38 39 40 41 43 45 47 49 50 52 53 53 54 53 53 55 56 58 60 62 64 67 70 73 75 76 77
22 23 23 22 19 16 17 19 21 23 24 26 27 29 29 30 30 30 31 31 31 31 33 34 35 36 37 39 40 42 43 44 45 46 46 47 48 49 51 52 54 56 59 62 65 68 70 72 73 74 75 75 75 75
24 25 24 23 22 21 21 23 25 25 26 28 29 30 30 31 32 32 33 34 35 35 35 36 36 37 38 39 40 40 41 42 43 45 46 48 50 52 54 57 60 62 64 66 67 67 68 69 70 72 75 76 78 78
29 28 27 28 29 29 28 27 28 29 29 29 29 30 30 31 31 31 32 32 33 33 33 34 34 35 36 37 38 39 40 43 45 47 50 52 54 56 58 59 59 59 60 62 66 69 71 72 73 73 72 72 71 70
21 20 20 21 22 24 24 25 25 26 26 27 27 27 27 27 27 28 28 28 29 30 32 32 33 35 36 37 39 42 44 46 48 50 51 51 51 51 52 55 58 61 62 62 61 61 60 60 61 61 61 61 61 61
15 15 16 18 19 20 21 21 20 21 22 22 23 24 25 25 27 27 28 29 30 32 33 35 37 39 41 42 44 45 45 45 44 43 43 45 48 51 52 50 47 46 46 47 49 50 51 53 53 54 54 53 53 53
14 14 14 14 15 16 18 21 22 24 26 27 28 28 29 30 31 32 33 34 35 36 37 38 38 38 38 37 36 35 36 38 40 43 44 43 38 35 36 38 39 40 40 41 43 45 47 48 48 47 46 47 48 49
13 14 14 15 15 15 15 16 17 18 19 20 22 23 25 26 26 27 28 28 28 28 28 28 28 28 29 30 32 34 36 36 35 29 26 28 30 31 31 32 33 34 35 38 41 43 44 44 43 42 42 44 45 46

GFSWCAN_500_spd_060.txt.gz
Wind_Speed
13 22 34 37 39 54 57 55 52 48 47 48 50 51 47 40 40 39 56 81 91 90 86 82 78 71 66 55 50 50 50 57 55 54 54 53 53 50 46 44 42 39 32 32 30 32 31 25 26 28 30 32 32 32
23 29 27 33 51 50 53 49 43 41 46 47 48 43 37 29 34 41 67 77 90 88 86 80 75 70 63 56 49 48 50 53 54 52 53 52 50 46 43 41 40 39 33 32 30 29 29 28 25 26 29 31 30 30
23 26 30 39 44 42 43 41 39 43 46 47 42 36 31 31 31 45 67 72 87 85 82 78 74 69 64 55 52 49 53 54 56 51 49 48 48 45 44 36 38 36 33 34 33 32 32 28 29 30 31 30 29 31
23 28 29 34 37 37 37 39 42 43 44 41 36 32 28 26 31 61 72 76 84 83 79 77 66 63 57 51 53 50 47 48 53 52 49 47 43 43 42 41 41 36 33 31 36 35 33 29 30 36 33 29 27 29
23 24 24 28 31 33 34 34 37 39 37 33 31 26 25 29 52 73 70 76 81 81 75 65 64 47 50 49 46 52 48 46 44 46 46 42 42 44 44 44 38 35 30 31 28 32 31 34 38 35 31 29 29 29
21 20 20 21 23 25 28 31 33 33 30 27 26 25 25 35 75 69 69 72 79 79 66 62 55 51 38 33 48 46 49 50 48 43 40 44 40 40 40 41 37 36 33 31 32 31 30 33 34 33 32 31 31 31
14 15 16 16 17 20 25 28 30 30 29 27 25 21 30 63 61 62 71 66 77 76 74 70 61 53 35 29 34 48 46 48 49 42 44 39 39 42 39 36 33 29 29 30 31 30 32 32 31 35 36 36 38 38
15 13 11 11 12 18 26 29 29 27 28 25 25 50 65 57 55 60 60 48 61 71 69 64 57 46 34 37 32 37 46 43 40 41 39 41 39 41 34 36 32 30 29 33 35 34 32 34 40 42 43 44 42 42
18 18 28 41 33 30 29 33 34 33 30 34 67 59 45 41 48 56 65 48 49 56 62 58 51 44 35 32 30 28 33 43 41 38 36 39 38 39 32 26 30 36 36 35 40 36 36 39 43 42 40 42 44 46
34 38 37 31 37 43 44 53 50 44 48 59 57 65 43 42 49 61 64 59 50 52 48 44 43 42 37 37 21 31 30 35 42 39 32 35 36 33 34 35 34 38 50 47 46 45 40 37 41 44 48 47 47 49
34 35 33 29 27 28 27 31 40 42 44 52 55 49 49 50 56 62 63 64 62 51 42 38 42 33 28 28 33 25 28 26 33 31 38 38 35 33 34 42 37 31 38 43 39 36 33 40 44 47 47 46 46 42
30 27 25 28 28 30 33 33 38 35 40 50 49 41 38 45 50 55 56 55 47 37 35 35 31 28 33 23 15 22 30 38 36 32 30 29 35 31 33 32 35 30 29 30 31 31 37 41 45 49 46 41 40 43
65 64 67 67 60 61 62 60 55 52 47 40 42 48 47 48 45 47 44 34 33 36 38 39 30 24 28 22 17 19 20 28 27 34 38 30 27 25 27 31 30 29 32 35 35 36 35 34 34 35 44 42 47 55
62 63 59 54 55 52 59 59 61 46 40 45 32 34 35 36 35 33 29 28 25 26 38 39 29 21 24 19 20 24 20 25 30 34 33 29 26 29 28 27 28 29 31 32 33 34 31 37 39 39 42 53 53 48
54 55 47 47 44 51 59 60 53 38 31 32 31 28 30 31 24 24 27 24 21 23 14 19 19 15 19 22 21 19 21 23 22 19 19 21 22 22 22 23 25 26 25 27 27 29 34 40 45 47 45 42 45 48
40 50 43 39 48 55 51 43 37 30 29 30 29 23 23 22 18 20 27 18 13 15 16 16 17 17 20 19 20 20 18 18 17 20 20 18 18 19 22 23 24 26 29 30 33 39 37 36 36 39 43 47 50 52
28 45 33 27 41 45 31 24 25 23 24 22 16 18 20 22 20 21 19 16 14 12 11 10 9 11 12 16 20 22 17 18 18 19 21 24 22 22 23 24 24 25 28 28 29 32 37 40 43 46 49 50 51 53
15 17 15 16 17 20 26 13 9 15 18 12 11 10 8 8 9 9 9 8 6 5 6 8 10 14 16 17 16 19 21 22 24 27 27 24 23 22 23 25 25 27 30 33 36 39 41 44 47 49 50 52 55 58
15 13 9 7 6 5 3 6 8 6 4 3 4 5 8 9 10 12 11 10 10 10 13 13 16 19 21 23 23 24 25 26 25 23 22 22 23 25 28 30 32 34 37 40 43 45 45 46 49 52 55 58 61 62
9 10 5 3 3 1 3 4 7 12 12 9 10 10 10 10 9 10 11 12 14 15 16 17 16 17 18 20 21 21 21 21 22 24 26 28 30 32 35 37 40 43 45 45 46 48 50 53 56 58 61 63 64 66
15 17 17 17 16 16 14 12 11 8 12 11 11 11 12 13 14 13 15 16 15 15 17 18 19 21 22 24 25 26 27 28 29 31 33 35 38 40 43 45 46 46 47 50 52 55 58 60 61 62 63 64 66 68
15 14 15 17 17 17 17 18 19 17 17 17 15 15 15 15 16 17 17 18 18 20 22 23 24 26 28 30 32 32 33 34 36 38 40 41 42 44 45 47 49 51 54 57 59 60 59 60 61 62 65 67 69 71
17 17 18 17 18 19 18 18 19 23 24 23 24 24 24 24 24 24 24 24 24 24 25 26 28 29 30 32 33 35 37 39 40 41 43 44 46 48 50 53 55 57 57 56 57 58 60 62 64 66 67 69 69 70
20 20 22 23 23 22 22 23 23 22 22 22 22 24 26 27 27 28 29 30 30 30 31 31 32 33 34 36 37 39 40 42 44 46 48 50 52 55 55 54 54 54 55 57 59 60 62 63 64 66 68 70 71 72
4 5 9 12 17 22 26 27 27 27 27 28 29 30 30 31 31 32 32 33 33 33 34 35 37 38 38 40 41 43 45 47 49 50 51 51 50 49 49 51 52 54 56 57 59 61 63 65 67 69 71 72 74 76
11 13 12 14 12 12 13 16 20 24 28 31 32 34 35 36 36 36 36 37 38 39 39 40 41 42 43 45 46 47 47 46 45 44 45 46 47 48 50 52 54 55 57 59 62 64 66 67 69 71 72 73 74 75
18 19 22 24 21 18 17 18 18 19 21 23 26 28 32 35 36 37 38 39 40 40 40 39 39 38 37 36 37 37 39 41 42 44 45 47 48 49 51 53 55 57 60 62 63 64 65 66 66 69 72 75 76 74
25 27 28 27 24 23 23 24 25 26 26 27 28 29 30 31 31 32 32 32 32 33 33 34 34 35 36 37 38 39 40 41 42 43 44 46 48 50 53 55 57 59 59 58 58 60 63 64 63 61 61 63 66 68
33 31 25 28 31 33 33 32 32 32 32 31 31 31 32 33 33 33 33 33 33 33 34 34 34 35 35 36 37 38 39 40 42 43 45 48 50 52 53 53 52 51 53 56 54 50 50 52 53 53 56 59 61 62
28 27 31 30 29 29 30 30 28 27 27 28 28 28 29 29 29 29 29 29 30 30 30 31 32 32 34 36 37 38 40 42 44 46 47 48 47 46 45 46 48 44 41 42 43 42 43 45 47 49 52 54 54 53
24 24 22 21 20 22 23 25 26 26 25 24 24 24 24 24 25 26 26 27 28 29 30 31 33 34 36 37 39 41 42 42 41 40 38 38 39 41 38 33 32 31 30 31 32 35 37 41 44 47 50 52 51 49
17 16 16 17 18 18 19 20 21 21 22 23 24 26 27 28 28 29 29 30 31 32 33 34 35 35 35 36 35 34 33 32 33 34 36 34 27 26 24 22 22 25 28 31 33 35 38 41 44 47 50 52 51 47
13 13 15 16 17 18 18 18 19 19 19 19 19 19 20 22 23 25 26 26 26 27 27 27 27 27 27 27 27 28 30 31 31 25 21 20 17 17 20 23 25 27 29 31 33 35 37 40 42 45 48 51 53 50

GFSWCAN_500_spd_063.txt.gz
Wind_Speed
24 27 5 16 24 33 44 46 46 52 60 58 57 60 58 54 49 43 36 30 29 52 71 83 83 80 76 69 59 53 51 48 51 49 50 50 56 55 54 43 41 41 35 37 35 34 33 25 26 26 23 25 26 26
20 19 19 19 23 34 40 42 53 58 55 50 55 57 56 50 46 42 34 28 23 46 69 80 82 78 75 69 60 54 48 47 46 54 54 50 50 57 54 47 40 40 39 38 34 31 31 29 27 26 27 26 26 27
27 25 30 30 32 36 40 48 54 52 47 51 52 52 53 47 45 39 31 30 28 42 60 72 76 76 75 70 61 53 50 49 50 48 52 55 53 45 45 51 44 41 41 42 36 29 29 33 29 26 30 32 33 30
22 26 30 33 38 40 42 43 45 46 48 46 44 46 46 46 38 31 30 29 33 43 53 44 69 66 68 69 60 54 50 49 50 49 47 51 53 47 42 41 41 40 41 40 31 27 32 35 35 36 32 35 35 32
22 23 25 31 34 38 40 42 41 40 41 43 45 42 41 38 33 32 27 26 42 43 38 43 56 60 64 53 59 51 52 48 45 49 49 46 49 44 44 42 43 41 41 41 35 33 37 31 33 38 37 35 36 35
21 21 22 24 28 30 32 35 37 38 39 40 40 39 35 34 32 27 27 42 42 59 29 44 54 57 47 45 44 55 50 52 46 47 47 47 43 44 43 42 37 39 42 42 39 37 33 29 35 26 25 31 35 31
15 17 19 21 23 25 27 29 32 35 37 38 36 34 29 26 27 24 41 53 44 61 41 39 44 58 51 39 40 35 48 47 47 45 44 42 39 40 41 35 35 37 36 39 36 34 34 35 30 27 30 35 34 33
10 10 13 16 20 24 26 28 30 31 30 29 27 27 27 26 26 44 45 41 42 53 37 50 44 45 40 35 36 41 41 43 47 46 43 42 37 36 36 34 39 36 33 36 37 40 38 35 33 33 34 36 35 36
10 4 8 15 19 23 26 28 27 26 25 23 22 25 26 27 38 56 44 39 47 60 36 51 53 44 42 33 33 33 39 41 42 40 42 41 39 37 33 32 32 35 39 39 41 37 32 35 37 39 40 40 42 39
35 34 24 11 24 28 28 27 24 23 23 19 21 20 33 61 60 60 44 42 42 60 41 49 47 41 44 35 30 26 27 34 38 39 41 40 36 34 37 34 39 39 40 28 28 33 35 41 44 41 43 42 46 44
32 33 41 46 46 38 32 34 33 25 34 43 47 58 52 52 42 53 46 45 28 49 56 51 50 41 42 29 26 29 26 20 23 33 36 38 40 33 31 32 38 36 37 35 37 37 34 41 44 44 42 40 39 39
29 34 36 46 51 54 53 50 52 50 50 47 40 38 34 37 39 38 49 42 32 34 41 42 43 36 36 34 30 28 24 21 20 30 26 33 36 33 34 35 36 38 37 38 39 47 43 33 37 43 37 41 44 47
21 23 35 39 41 44 48 48 53 46 35 44 43 34 33 44 51 52 45 37 32 32 31 29 31 31 32 33 31 29 19 14 17 24 29 28 28 29 28 32 34 33 30 31 32 30 31 33 34 36 39 38 39 41
43 37 36 36 36 37 37 37 38 39 31 25 28 29 22 49 48 46 38 32 32 30 27 27 25 28 29 26 23 26 14 8 15 17 16 26 30 26 24 26 24 25 27 30 30 29 31 33 33 33 34 36 45 46
62 62 63 62 59 56 50 47 46 42 33 23 24 19 27 27 29 24 21 19 21 24 27 31 32 31 29 26 29 31 18 16 15 15 17 19 19 20 21 21 24 27 29 30 28 27 27 28 29 31 35 40 44 48
53 53 51 50 47 43 37 34 29 30 24 23 23 25 23 25 24 23 23 23 22 19 14 22 35 33 21 23 23 19 21 18 18 17 16 17 17 16 17 20 23 27 29 29 27 27 30 34 37 38 40 41 42 44
43 39 45 42 33 33 27 24 28 23 16 27 27 26 26 23 22 20 24 19 19 24 25 28 24 21 15 19 21 23 23 22 19 18 19 20 21 23 24 25 26 27 28 29 29 31 34 35 35 37 40 42 45 47
28 26 28 28 27 31 31 25 23 28 25 19 17 17 15 13 13 14 16 17 21 22 20 19 19 22 22 22 21 19 19 19 21 20 22 22 24 26 28 28 28 28 27 27 28 31 33 35 38 41 44 47 50 52
23 21 19 19 19 18 14 16 18 18 18 18 22 21 20 18 17 18 18 17 15 14 14 15 15 16 16 17 18 18 17 19 21 22 24 26 27 27 27 27 27 29 30 32 34 37 40 42 44 46 48 51 54 57
5 14 12 11 10 12 10 9 7 4 4 6 8 9 11 13 14 15 14 13 13 13 14 17 16 16 19 20 21 22 22 22 23 24 24 24 25 26 28 30 32 34 37 40 42 44 45 47 49 51 54 58 61 65
1 9 9 8 3 1 3 3 2 2 2 1 2 3 6 8 10 13 13 13 13 15 17 17 18 19 20 21 21 22 24 25 26 27 27 29 31 33 35 37 39 42 44 45 47 48 50 53 55 58 61 64 66 67
10 9 8 11 10 12 14 14 13 11 9 6 6 6 8 10 10 10 10 13 14 15 17 18 20 21 22 22 23 24 26 29 31 33 34 36 39 41 43 45 46 47 49 51 53 55 57 60 62 64 64 64 65 67
12 12 12 12 13 14 13 14 14 15 15 16 15 15 16 16 15 15 17 18 18 19 21 22 23 24 27 28 29 31 33 36 37 38 40 42 44 46 48 49 50 52 54 55 58 60 61 62 61 62 63 65 67 70
13 11 13 16 17 18 18 18 18 17 17 18 20 22 23 23 23 24 24 24 24 25 27 27 28 29 30 32 34 36 37 38 40 42 44 46 47 49 50 52 53 56 58 59 58 57 58 59 61 63 66 69 72 74
3 4 4 8 10 13 18 22 23 23 23 23 23 24 24 26 26 27 27 27 28 29 30 30 31 32 33 35 37 38 39 41 42 44 46 48 50 52 54 55 54 54 53 54 55 56 58 61 63 66 69 70 70 70
5 7 7 10 11 15 14 14 16 17 20 23 26 29 30 30 30 30 30 31 31 31 31 31 31 32 34 36 37 39 42 43 45 47 48 49 49 49 48 48 49 50 52 53 56 58 61 64 65 64 63 63 64 63
12 13 15 17 20 22 20 18 19 20 22 22 23 24 26 28 30 30 32 32 32 32 32 33 34 35 36 37 38 40 41 41 41 41 41 41 42 44 46 47 49 51 53 55 58 59 58 57 57 57 55 53 52 52
21 22 24 25 29 27 20 21 27 28 27 28 29 30 31 31 31 31 31 31 31 31 32 32 33 34 34 35 35 36 36 37 38 39 40 42 43 44 46 48 50 53 54 54 51 50 51 48 45 43 42 45 47 51
30 33 31 29 27 26 28 35 36 33 31 32 33 34 34 34 34 34 33 33 33 33 33 33 33 33 33 34 34 35 35 36 37 38 40 42 43 46 48 49 49 47 45 45 43 40 36 35 37 41 43 46 47 49
29 29 33 32 34 36 36 34 32 31 30 29 28 27 27 28 29 30 29 28 28 28 28 29 30 30 30 31 32 34 35 37 39 40 42 44 45 44 43 40 40 40 36 33 30 31 34 36 37 39 41 43 46 49
32 32 31 31 29 27 24 23 23 23 23 23 24 24 25 25 25 25 25 25 25 26 27 28 29 30 32 33 34 36 37 39 40 40 39 37 36 34 36 33 29 26 25 28 30 32 34 36 39 40 42 43 45 47
25 24 22 20 19 19 19 20 22 23 24 25 24 23 21 21 23 26 27 27 28 29 29 30 31 32 33 34 35 34 34 33 32 30 30 31 31 26 22 19 20 23 26 29 30 32 34 37 38 39 40 41 43 45
18 17 17 17 17 19 20 22 23 23 22 20 20 19 20 19 20 21 22 23 24 25 26 26 27 27 27 26 26 25 25 26 27 28 24 19 17 14 15 18 22 25 27 29 32 34 35 36 36 37 38 40 41 42

GFSWCAN_500_spd_069.txt.gz
Wind_Speed
32 37 43 44 40 31 32 36 42 49 48 49 49 48 50 56 70 61 57 59 51 49 47 48 48 47 42 41 47 65 57 69 59 56 52 48 47 51 45 51 42 44 53 51 45 45 43 38 30 31 24 31 31 32
30 37 37 25 23 27 32 38 46 43 54 49 47 45 43 56 63 60 57 54 49 46 42 48 49 44 37 34 42 60 63 62 51 51 54 49 40 55 50 46 40 31 49 48 49 43 41 37 31 33 33 33 34 35
31 32 17 13 19 13 16 27 44 52 52 47 42 42 48 57 63 52 52 50 47 42 39 31 35 34 31 36 45 55 62 57 55 54 53 53 48 45 45 54 50 45 36 43 44 43 42 41 38 37 36 36 38 38
25 25 8 13 20 20 27 39 47 49 45 40 41 46 50 56 52 52 48 45 43 45 43 38 33 28 32 33 37 63 57 57 54 52 51 49 43 42 43 47 50 53 46 43 40 39 39 39 32 35 38 39 40 42
22 22 12 14 19 25 37 44 46 46 43 44 48 46 49 51 51 46 44 41 41 39 33 29 27 26 39 31 28 49 66 49 60 54 50 47 46 45 43 40 40 46 49 47 46 41 40 44 45 38 37 38 36 39
20 31 21 17 23 25 29 41 45 43 46 54 50 45 49 48 46 44 42 41 41 37 32 25 26 34 45 38 43 40 56 60 55 54 51 49 44 45 42 38 31 35 36 34 41 43 41 41 40 40 45 46 42 37
16 25 33 34 35 35 39 41 43 46 48 46 47 44 46 46 41 39 42 41 37 29 24 17 34 39 49 50 49 45 51 63 50 49 49 45 44 42 41 36 25 25 27 29 36 36 33 36 31 32 39 39 38 39
15 15 23 28 30 36 40 41 48 48 45 42 43 44 42 39 38 41 38 30 25 21 20 21 41 34 33 39 40 38 43 60 51 44 46 44 41 39 35 28 28 28 24 20 26 35 37 35 36 39 39 38 40 41
18 19 20 24 27 30 34 39 41 43 43 46 44 41 40 41 41 38 31 26 12 19 25 43 42 33 37 31 31 31 40 46 53 50 46 42 40 39 32 24 21 23 23 25 24 27 29 32 34 38 40 39 39 37
20 24 25 27 29 30 33 36 39 41 43 43 42 42 41 38 36 28 25 16 30 37 41 40 39 32 27 38 31 39 38 46 47 48 47 42 35 35 36 27 23 23 25 23 24 26 30 34 37 40 40 40 40 40
26 27 28 29 31 34 35 35 35 37 38 38 36 35 36 31 29 25 16 29 43 41 41 46 42 48 34 33 31 27 26 29 39 47 42 41 39 36 35 24 25 26 25 27 30 33 36 34 34 36 39 36 36 35
31 31 32 31 29 28 29 32 33 34 33 32 33 29 29 29 28 21 21 40 38 46 40 21 19 37 32 48 37 33 28 26 29 32 37 41 36 31 30 29 27 26 27 29 33 35 33 33 33 34 34 35 35 38
32 30 28 27 27 27 25 23 23 25 26 27 29 27 24 22 25 20 20 45 46 39 24 24 28 51 42 41 36 34 31 28 25 26 28 30 28 28 28 28 27 29 31 33 33 31 30 33 33 35 35 37 39 39
33 29 26 25 22 20 18 16 18 22 24 27 27 23 24 21 23 24 31 47 41 31 30 24 35 47 41 48 37 32 29 28 25 25 24 23 24 23 21 28 29 27 25 28 30 31 32 33 38 39 43 40 37 38
28 27 22 23 30 28 33 37 35 26 33 35 30 34 26 29 28 27 34 41 39 25 32 26 28 46 46 41 37 32 27 25 22 20 18 16 20 21 19 21 22 23 23 24 23 26 29 33 36 36 36 36 37 38
35 33 31 38 37 35 32 35 31 29 24 25 29 31 25 26 24 22 45 45 27 30 37 29 26 35 35 32 30 28 25 22 17 15 17 14 12 15 20 20 23 25 27 32 33 31 31 32 31 31 31 33 36 38
41 38 34 34 33 31 27 25 22 19 18 25 28 28 26 24 24 28 45 43 28 30 31 32 30 31 28 26 26 20 15 14 17 14 14 15 16 16 17 18 20 23 25 27 28 26 26 27 29 31 34 36 37 38
34 34 34 31 30 24 22 23 23 21 23 25 25 27 25 30 39 47 51 42 35 36 34 33 30 30 25 16 12 13 14 18 18 17 17 18 18 19 18 19 21 22 25 26 27 29 31 32 34 36 38 39 40 42
33 32 31 30 28 25 26 28 32 28 25 23 22 23 30 36 37 36 34 29 26 25 25 22 19 16 17 17 17 18 19 18 17 18 20 23 23 23 25 26 23 22 24 28 31 32 34 36 37 38 40 42 44 47
27 28 28 28 24 23 22 21 19 16 17 15 15 13 10 12 15 15 17 16 19 20 22 19 10 5 12 13 16 18 16 16 18 21 24 25 23 22 22 23 25 27 30 32 34 35 37 38 41 43 45 48 51 54
16 18 20 20 19 20 21 19 17 15 15 16 16 17 16 14 13 14 14 13 11 11 10 11 15 19 16 16 18 19 20 20 20 21 21 22 23 24 25 27 29 32 34 35 38 40 41 43 46 49 51 54 57 60
8 8 7 6 9 10 10 8 8 8 9 9 9 8 7 7 7 8 9 11 12 14 16 17 17 17 17 17 18 20 20 21 22 24 25 25 26 28 30 32 35 38 40 42 44 46 48 50 52 54 57 59 61 63
7 5 4 4 2 1 1 2 2 3 4 5 5 6 7 7 9 10 11 12 12 14 15 16 16 17 19 20 20 21 23 24 25 27 28 30 32 34 37 39 42 44 46 48 49 50 52 54 56 58 60 62 64 66
7 4 1 1 2 2 3 3 4 4 5 7 9 11 12 12 13 15 17 17 19 20 21 22 22 22 23 24 25 27 29 30 31 32 34 37 39 41 43 45 46 47 49 50 52 53 55 57 58 60 62 64 63 63
5 6 5 7 7 6 6 7 7 8 9 12 14 16 16 17 19 22 24 26 27 29 29 30 31 32 33 34 35 36 37 38 39 39 40 41 42 44 45 46 47 49 50 51 53 55 57 59 59 59 58 59 60 63
4 7 9 10 11 12 13 14 14 14 15 15 15 16 17 19 22 25 27 28 30 30 32 33 35 35 36 37 38 39 39 39 39 39 39 41 42 44 45 46 48 49 51 53 54 54 54 54 54 56 58 61 61 58
10 12 14 16 18 19 20 20 20 21 21 21 22 22 22 22 24 25 27 29 30 31 32 34 35 36 37 37 37 37 37 37 38 39 40 41 43 45 47 48 49 50 51 50 49 49 51 53 55 57 55 52 48 45
17 18 20 21 23 25 27 27 27 27 27 27 28 28 29 29 31 32 33 34 35 37 38 38 39 38 37 37 37 37 38 39 40 41 43 44 46 47 47 47 47 47 47 48 49 51 52 52 49 46 42 39 40 42
26 29 31 31 31 28 27 28 30 31 32 33 34 35 36 38 39 39 39 39 39 39 39 40 40 39 39 39 40 41 41 42 43 44 45 45 45 44 44 45 45 46 47 47 47 46 42 39 36 33 35 37 40 40
29 25 22 22 24 28 31 32 33 35 36 38 38 38 36 33 31 30 30 30 31 32 33 34 35 36 37 38 39 40 41 41 41 41 41 41 41 41 42 42 42 43 43 40 37 34 31 29 31 33 36 36 34 35
25 27 29 31 33 34 35 35 34 32 30 27 25 24 24 25 26 27 27 28 28 28 28 29 30 31 31 32 33 34 34 34 35 35 36 37 38 38 39 39 38 34 33 30 26 23 26 29 31 33 32 31 33 35
29 28 30 30 30 29 28 25 23 22 23 24 25 27 29 30 30 29 27 27 27 27 28 28 28 29 29 30 31 32 33 34 35 35 36 36 36 34 32 30 29 27 22 19 21 25 27 30 30 29 29 31 34 35
22 23 23 24 23 22 22 22 22 23 24 26 28 27 24 22 20 20 20 21 22 24 25 26 26 27 27 28 29 30 30 30 29 29 27 27 26 27 26 22 18 16 18 21 24 27 28 27 27 28 30 32 34 36

GFSWCAN_500_spd_072.txt.gz
Wind_Speed
37 35 36 39 44 49 52 52 54 55 55 55 54 53 51 59 70 66 59 63 61 62 59 51 48 44 44 42 38 32 30 40 54 56 51 55 53 35 53 48 30 34 56 57 47 47 54 43 40 41 31 26 32 37
31 33 37 42 43 41 39 40 37 35 42 48 52 48 48 51 73 63 64 62 63 57 53 44 44 37 36 40 36 33 25 38 42 56 60 52 57 45 39 41 38 32 34 48 59 53 48 37 38 32 30 37 40 42
26 30 35 25 29 38 43 39 35 34 33 39 43 41 41 50 65 67 58 57 55 54 49 46 41 39 38 36 34 38 37 35 41 34 44 58 49 46 38 35 44 28 27 35 38 45 48 49 43 43 32 31 33 38
26 26 15 21 30 28 19 23 35 36 32 43 43 39 39 44 52 53 62 57 52 51 47 39 38 36 37 37 38 38 32 37 56 47 36 34 55 51 40 34 49 51 41 33 39 41 45 39 42 36 32 40 37 39
21 19 12 16 20 20 20 26 28 37 33 43 41 42 41 44 53 59 56 56 50 45 42 39 28 32 34 38 38 37 30 34 54 54 62 60 50 46 49 37 40 50 46 46 38 31 39 42 35 36 41 38 39 36
20 19 15 16 16 27 33 36 39 40 41 39 37 38 41 46 54 60 58 53 47 39 38 38 35 32 29 32 35 32 30 40 49 35 51 55 50 48 50 39 34 38 43 49 49 46 47 39 39 39 40 40 44 46
16 20 16 19 27 29 33 38 39 39 38 39 38 41 45 51 56 54 49 46 41 39 39 33 29 28 29 30 32 31 37 56 50 40 33 45 52 50 46 45 35 32 28 31 38 41 39 48 46 45 46 46 40 38
14 21 21 25 26 24 29 35 41 44 42 45 44 46 49 50 51 48 41 35 38 40 38 29 27 20 24 33 33 37 54 51 55 42 44 50 43 49 46 33 32 28 30 27 25 24 28 32 35 35 33 35 35 36
15 20 25 26 25 33 43 46 43 42 41 43 44 43 43 43 42 39 37 36 36 35 31 28 24 24 28 40 36 39 54 50 53 35 30 45 47 42 36 32 30 31 33 31 28 24 25 26 28 34 36 37 36 37
16 20 25 30 33 34 35 38 38 40 40 42 41 43 42 38 35 33 34 32 29 29 28 24 26 34 34 41 41 38 40 31 40 47 50 41 40 42 40 32 28 29 28 25 26 29 28 30 31 30 31 33 35 36
18 23 25 25 30 32 30 31 34 37 41 43 43 41 40 39 39 36 32 23 21 26 25 28 42 35 28 33 29 31 24 37 33 46 45 43 41 35 33 26 22 21 22 23 27 29 32 33 35 36 34 34 32 34
25 25 27 27 27 29 32 35 34 33 33 34 34 36 37 36 31 26 24 17 19 16 25 40 47 18 26 40 37 34 22 29 34 45 47 48 37 29 26 23 23 25 26 27 29 33 36 37 39 37 35 34 35 34
27 27 27 28 30 30 30 30 31 33 33 34 34 34 32 29 26 19 16 21 21 26 27 29 30 24 24 40 39 35 26 29 31 38 42 42 37 33 32 29 23 26 29 30 31 33 34 35 34 34 33 35 35 35
27 26 24 24 25 24 24 25 26 28 29 28 30 29 29 27 22 14 16 30 28 32 19 22 26 34 26 33 34 21 29 29 27 28 29 34 38 38 34 30 27 29 29 30 31 32 34 36 36 35 33 34 35 39
19 18 18 18 21 24 24 23 23 23 25 25 26 26 24 21 20 16 16 35 33 31 18 25 29 42 34 37 37 28 32 27 25 23 25 28 28 28 29 28 25 28 31 30 29 26 23 25 27 31 35 38 37 42
24 30 30 27 22 18 19 22 23 21 21 22 21 21 18 19 20 20 18 26 36 27 17 27 35 37 47 43 28 28 27 26 21 18 20 20 21 22 25 27 26 24 22 23 21 21 24 29 33 36 41 44 43 39
32 30 28 28 29 32 31 26 19 16 15 17 20 17 15 20 18 14 17 34 24 20 15 12 27 32 36 34 32 29 24 17 18 24 20 15 16 17 19 20 19 20 22 25 28 30 33 36 37 36 34 35 36 38
22 20 21 19 20 18 20 18 15 15 15 16 16 15 12 10 12 16 31 23 20 20 19 16 30 38 34 28 29 21 17 18 19 18 13 15 16 16 15 15 17 19 21 24 27 29 31 32 33 34 36 38 40 41
28 24 19 19 18 16 16 17 15 12 11 11 12 12 9 11 22 29 27 20 20 22 22 22 25 29 30 28 20 19 19 17 16 16 18 17 18 18 17 18 20 22 23 25 28 31 32 34 37 39 40 40 40 42
28 26 25 24 26 27 25 21 18 17 16 15 18 19 21 24 26 28 26 22 17 19 20 19 19 18 19 19 21 21 21 18 18 20 20 18 22 21 21 22 22 23 25 28 30 33 36 38 39 40 41 43 45 48
23 23 22 22 20 15 15 13 12 13 23 32 35 30 31 31 31 29 26 21 20 20 21 21 19 11 10 8 17 21 20 19 18 17 18 20 23 24 23 24 25 27 29 31 34 36 38 39 42 44 47 50 53 55
14 14 16 16 17 16 16 16 17 17 18 16 14 14 15 21 24 26 25 24 23 23 25 29 23 16 13 13 14 14 15 16 18 19 21 22 23 25 26 28 30 32 34 36 39 41 43 46 48 50 53 54 57 59
11 10 10 10 8 8 10 10 9 8 7 8 9 9 8 8 7 9 10 11 12 11 12 12 14 14 15 16 16 16 16 17 19 21 23 24 26 28 30 33 35 38 40 42 44 47 48 50 52 54 56 57 58 60
6 10 9 7 6 7 6 5 4 3 2 0 2 3 4 4 5 7 9 10 11 12 13 15 17 18 19 20 21 21 22 23 24 25 27 29 31 34 37 39 41 43 45 47 48 50 51 52 54 55 56 58 60 62
7 9 8 8 8 9 9 8 7 6 5 4 5 7 8 10 12 14 17 18 19 21 21 23 24 26 27 27 28 28 28 29 30 31 33 35 37 38 40 42 44 46 47 48 49 50 51 52 54 56 58 59 59 60
6 8 9 10 11 12 13 13 14 14 14 14 15 15 15 15 16 16 18 20 23 25 27 28 28 29 29 30 30 31 32 33 34 36 37 38 39 40 41 43 44 45 46 48 49 51 52 54 54 55 56 57 58 60
9 11 12 13 16 17 20 21 22 22 22 22 23 24 25 25 25 24 24 25 26 28 29 30 30 31 32 33 34 35 36 37 37 38 38 39 40 41 42 43 44 46 48 49 51 51 52 52 53 53 54 56 56 54
14 16 19 20 22 23 23 23 23 22 23 24 26 26 26 27 29 30 31 33 33 34 35 35 36 38 39 39 39 39 39 38 39 39 40 41 41 42 43 45 46 47 49 50 49 49 50 51 51 52 51 48 44 41
23 26 26 24 23 22 23 23 25 26 27 29 32 34 37 38 38 39 39 39 39 39 40 41 41 41 42 42 41 40 39 39 39 40 41 42 43 44 46 48 47 47 47 48 48 48 47 47 47 43 39 36 35 37
20 20 21 21 22 24 27 30 33 36 37 38 40 43 45 44 41 38 36 34 32 31 31 32 33 34 35 37 38 39 40 41 42 42 43 43 43 43 43 43 43 43 43 44 43 43 41 38 35 30 30 33 35 34
26 28 29 28 29 30 32 34 35 36 37 38 36 33 30 28 28 28 28 29 29 29 29 30 30 30 31 32 33 34 35 35 35 35 36 36 36 37 38 39 40 40 40 39 35 33 30 25 26 28 31 33 32 32
24 25 26 27 28 28 28 28 28 27 26 24 24 25 26 28 29 30 30 29 28 27 27 28 28 28 28 29 29 30 30 31 32 33 34 35 36 36 36 35 34 31 29 28 24 21 21 24 27 30 30 29 31 32
23 23 23 22 21 21 23 23 23 23 23 23 25 26 28 28 25 23 21 21 21 21 22 23 23 24 25 26 27 28 28 29 29 29 29 28 27 26 26 25 25 23 20 17 18 21 24 27 28 27 27 29 30 32

GFSWCAN_500_spd_075.txt.gz
Wind_Speed
51 44 34 33 36 38 41 43 44 45 45 45 46 46 47 52 57 61 57 56 55 57 55 54 55 49 42 37 34 34 34 34 36 35 63 72 56 43 23 21 27 27 37 41 46 51 50 42 43 47 44 40 35 35
23 26 29 31 36 41 44 47 50 51 51 51 51 50 48 47 44 46 64 61 56 56 56 53 56 48 43 37 35 37 36 31 32 31 47 65 70 48 36 27 26 28 26 44 50 48 44 45 37 36 41 47 37 44
21 23 28 33 32 32 36 40 42 43 46 49 49 52 58 56 54 50 64 65 61 58 52 57 52 42 39 39 36 37 35 34 36 25 30 53 63 63 52 45 28 30 32 27 36 44 50 47 45 47 40 39 36 41
18 24 31 27 28 38 43 45 47 47 44 39 38 38 47 56 57 57 55 60 58 57 52 51 48 39 39 42 36 36 33 32 34 28 41 48 51 48 48 52 56 36 36 43 34 33 36 38 51 49 46 38 38 34
19 25 20 20 23 18 19 8 18 31 38 35 32 38 42 48 52 50 58 55 57 50 49 44 43 42 41 40 38 34 33 30 30 26 34 52 45 39 42 38 47 44 39 40 43 34 36 34 37 43 33 34 30 29
19 18 10 15 20 13 15 22 26 29 34 34 39 40 40 44 47 51 55 53 54 46 43 46 40 41 41 42 39 38 36 31 34 24 34 37 31 40 34 44 41 39 34 36 40 34 32 29 31 36 36 43 32 36
17 11 12 15 21 23 22 23 26 34 35 39 34 30 32 35 39 46 54 49 43 43 45 38 38 39 44 43 42 40 37 35 36 32 40 44 36 34 34 35 48 42 38 33 29 39 41 39 39 34 35 35 36 37
16 15 14 14 20 25 29 30 33 34 35 37 38 36 31 35 40 45 45 50 46 41 36 36 40 37 36 38 39 37 35 34 35 34 41 62 39 29 42 34 35 39 40 37 30 34 39 38 42 45 45 45 48 49
19 22 33 33 34 34 32 32 33 35 36 36 36 34 38 37 33 44 44 45 45 40 36 34 37 35 33 31 30 33 37 36 34 33 45 46 36 42 38 35 36 38 34 34 32 30 26 28 32 33 32 32 33 35
27 32 31 33 33 35 36 37 36 34 34 35 37 39 43 42 38 38 40 43 41 38 36 35 34 33 28 25 31 30 33 36 34 45 61 42 26 21 32 31 36 35 29 34 34 30 27 28 26 26 27 29 30 32
22 25 27 27 31 35 38 39 38 40 40 42 44 44 42 40 39 39 41 42 40 37 34 34 32 28 26 18 24 26 19 31 37 53 46 35 23 27 35 34 25 28 33 34 34 30 30 33 33 34 35 35 34 33
20 22 24 25 27 31 34 35 36 37 37 37 40 40 39 38 36 35 34 32 32 32 31 27 26 27 24 22 15 28 19 25 33 34 42 34 24 32 37 34 29 28 27 28 29 30 33 34 35 36 36 36 35 35
21 22 22 24 27 28 30 32 33 34 34 35 36 38 37 34 31 29 28 22 17 18 23 26 26 19 20 21 26 21 19 22 29 29 24 25 37 35 33 28 27 29 27 25 27 28 30 32 33 34 36 37 37 37
21 20 21 22 24 26 26 26 25 26 27 29 31 32 31 26 22 18 17 16 10 13 19 24 27 14 19 28 17 22 24 20 22 26 24 25 35 36 33 26 24 23 23 27 28 30 32 33 32 33 35 38 39 40
20 20 20 20 20 22 23 25 27 27 28 28 27 23 22 17 11 8 18 27 28 22 19 25 22 15 16 16 25 26 32 24 22 20 23 30 38 41 32 28 28 24 24 28 32 32 31 32 32 33 34 35 35 35
13 15 16 17 18 18 18 18 19 21 24 22 20 17 14 9 8 8 16 23 25 18 16 17 17 18 19 22 26 35 20 27 24 18 19 25 32 35 36 32 30 29 29 32 31 29 30 33 33 29 26 25 32 38
30 26 20 16 14 14 15 16 17 17 16 16 15 13 10 8 8 6 8 16 20 13 16 17 18 19 21 16 29 20 18 22 20 21 14 17 17 18 26 31 32 31 29 28 31 32 30 28 27 27 30 34 37 39
24 25 27 28 27 23 17 10 7 13 15 17 14 14 12 12 10 7 5 13 21 18 9 15 19 21 25 23 26 29 22 12 7 10 15 20 16 18 22 26 25 25 25 22 22 24 25 27 30 33 35 36 37 38
24 23 23 23 22 18 14 11 12 14 15 17 16 14 14 18 12 8 13 24 23 16 10 9 23 24 27 25 21 21 19 14 13 16 19 20 11 13 18 18 18 19 22 23 25 28 30 31 33 34 35 35 36 39
23 22 20 18 17 17 17 16 16 16 15 12 11 12 11 14 19 26 24 19 14 12 7 7 10 13 17 24 20 18 16 16 20 20 21 19 17 13 17 19 18 20 23 25 27 29 31 33 34 34 36 38 41 42
22 19 16 16 16 16 12 10 8 10 14 13 12 11 11 15 20 20 17 15 13 11 6 5 8 13 18 20 22 23 24 24 24 25 22 23 22 22 23 26 26 25 26 28 30 31 32 33 36 38 40 42 45 48
20 21 23 23 23 23 24 23 16 14 13 9 7 8 8 10 13 15 15 13 10 11 12 13 15 16 17 15 16 16 15 16 22 29 30 26 22 23 25 27 28 29 30 31 32 34 37 39 41 43 45 47 50 53
14 15 16 16 16 16 19 19 20 20 19 17 13 7 6 7 8 9 11 12 13 12 13 14 15 17 18 18 18 17 16 16 16 16 17 19 21 23 25 28 30 32 33 35 37 39 41 43 45 48 50 52 53 55
14 17 15 12 11 14 12 13 12 11 10 9 7 7 6 6 6 6 8 12 15 16 16 16 15 15 16 17 18 18 18 18 19 21 23 25 27 29 31 33 35 36 38 40 41 43 45 47 49 50 51 51 53 54
9 10 10 11 11 12 12 11 9 8 6 5 3 2 2 3 4 6 9 12 14 16 17 18 19 20 21 23 24 24 24 25 25 27 29 31 32 34 36 37 39 40 42 43 44 46 47 48 49 50 51 52 54 55
6 8 10 10 12 13 14 14 15 15 15 15 14 13 12 11 12 13 15 17 19 19 20 21 22 23 24 25 26 27 27 27 28 30 32 34 36 38 39 40 41 42 43 44 45 45 46 47 48 49 51 53 55 56
8 9 11 13 15 16 16 16 16 16 15 15 15 16 18 19 20 21 22 23 24 25 27 28 30 31 31 31 31 31 30 30 30 31 33 34 36 37 39 40 40 42 42 43 44 45 46 47 50 52 52 52 51 50
11 14 16 18 17 16 14 14 13 13 16 20 22 23 26 27 28 28 29 30 31 32 32 34 35 36 37 38 38 37 37 36 36 36 36 37 38 39 39 40 41 43 43 44 45 47 50 50 49 48 47 46 46 44
19 20 20 16 14 13 17 20 23 24 24 27 29 32 33 35 38 39 41 42 42 41 40 39 40 40 41 42 42 41 40 39 38 38 38 38 39 39 40 41 41 42 45 47 48 46 44 43 42 42 42 40 37 34
18 18 18 19 23 28 27 27 28 30 31 33 35 38 40 42 42 42 40 37 34 32 31 30 29 30 31 31 32 32 33 34 35 37 38 38 39 40 41 42 42 40 39 39 39 40 40 40 39 36 33 30 28 31
22 24 27 29 29 29 29 30 31 33 34 35 36 35 33 31 29 28 28 28 28 28 29 30 30 30 31 31 31 31 31 31 31 31 32 32 32 32 32 33 35 36 37 38 37 36 34 31 29 26 24 26 29 29
26 26 26 27 29 30 30 30 29 28 28 27 27 26 25 25 26 28 29 28 27 26 25 25 24 24 25 26 27 27 28 28 28 28 29 29 31 32 33 33 33 32 31 29 27 27 25 21 20 23 26 28 27 27
25 25 25 25 26 22 21 21 23 24 25 24 23 23 24 26 26 23 20 17 17 16 16 17 18 19 20 21 22 23 25 25 26 26 26 27 27 27 27 26 25 24 24 24 20 18 18 20 23 25 25 25 26 27

GFSWCAN_500_spd_078.txt.gz
Wind_Speed
35 37 40 41 42 45 48 51 54 57 59 60 59 59 59 57 57 58 54 55 53 49 48 47 47 46 42 37 33 27 28 28 29 31 32 25 45 74 63 58 41 26 23 38 39 39 42 36 36 46 48 51 51 52
33 26 23 26 28 29 31 34 38 41 44 49 58 64 66 64 62 62 63 58 53 54 52 48 45 47 44 41 39 36 31 26 28 29 30 24 27 50 56 52 26 20 15 21 40 38 35 34 35 41 36 50 48 51
17 20 22 23 28 34 38 42 46 49 49 48 47 47 49 50 52 58 63 62 61 60 58 57 51 44 47 45 42 38 34 31 31 33 33 34 23 37 55 51 31 25 24 25 25 26 33 38 37 38 43 35 38 42
18 19 22 27 29 29 32 37 41 44 46 45 51 48 46 44 43 44 47 55 65 60 59 56 50 48 46 47 45 41 35 31 32 32 34 33 34 30 55 64 55 39 29 21 24 22 24 33 40 41 40 36 36 36
14 18 22 21 19 22 21 25 37 47 51 49 40 45 51 49 47 44 39 44 53 49 49 43 44 48 46 46 45 40 31 32 31 27 34 33 34 30 49 68 66 52 36 29 32 30 27 29 33 42 43 40 42 37
15 15 8 14 14 10 14 13 12 18 38 44 43 35 42 48 49 47 46 53 57 52 41 42 40 38 40 47 44 41 31 33 33 32 33 33 33 34 35 43 62 58 52 43 36 35 34 33 32 27 33 28 31 37
15 10 9 12 11 10 6 10 14 26 31 42 40 35 36 41 42 44 43 40 42 54 51 44 44 35 35 36 33 32 35 34 36 34 33 39 33 31 41 40 41 49 42 42 39 39 39 34 33 30 31 31 37 40
16 14 8 11 18 21 22 23 32 31 34 35 36 33 35 35 40 39 38 42 45 40 45 42 36 35 35 37 33 33 35 38 41 41 39 39 30 35 40 36 33 39 39 40 38 37 38 29 32 36 33 33 32 30
20 21 24 25 26 24 28 30 31 32 33 34 38 43 44 45 38 33 42 35 40 47 37 35 35 34 32 38 39 41 37 39 43 44 41 41 29 36 35 39 38 37 44 42 42 37 36 28 26 22 24 29 32 35
24 25 24 25 29 30 31 35 35 36 37 36 39 39 37 34 34 37 48 43 39 38 40 32 31 34 35 39 43 43 43 40 41 41 42 41 35 29 45 36 28 29 30 30 32 38 34 28 27 25 27 27 29 31
24 25 26 28 28 30 31 36 36 41 45 48 46 47 41 43 41 39 38 36 38 36 34 33 33 33 36 33 30 30 30 34 37 37 39 40 40 35 40 41 25 27 28 31 29 29 29 28 29 33 32 30 31 33
22 24 27 29 30 32 34 34 37 37 36 42 40 41 37 42 42 39 42 40 39 36 31 28 26 32 32 27 25 22 26 29 31 30 37 40 30 30 35 36 33 30 23 30 30 30 31 31 34 37 38 37 38 38
21 23 25 26 29 34 37 37 36 36 36 35 37 39 38 35 36 37 35 34 34 30 27 26 29 27 23 21 17 11 17 14 17 22 30 31 34 23 21 26 33 28 27 22 28 32 32 33 35 37 36 36 37 37
19 20 22 24 24 24 27 31 31 31 31 32 31 30 30 28 25 25 25 27 27 26 24 24 24 24 19 19 20 19 10 14 16 20 17 25 38 38 30 31 33 31 30 28 30 31 31 31 29 31 32 33 35 37
15 15 15 16 17 19 20 22 25 25 25 24 24 22 21 20 21 22 23 19 17 19 22 22 19 16 18 20 26 20 11 22 19 18 16 21 25 29 27 25 30 32 34 35 32 32 28 27 30 31 32 32 33 34
18 18 20 19 19 19 20 19 20 21 20 20 18 18 15 11 17 21 23 24 20 16 23 26 20 15 13 20 21 17 21 22 18 18 19 12 18 22 24 25 28 32 32 29 27 30 31 31 30 26 26 31 32 34
14 15 16 15 15 14 13 15 16 18 16 16 14 12 14 17 24 28 25 22 15 11 15 18 18 20 16 12 21 23 12 17 20 15 14 15 15 17 21 30 34 30 26 30 33 34 32 25 24 31 30 30 32 33
18 12 12 11 10 8 7 9 11 11 11 11 10 9 11 15 15 15 19 17 11 5 8 12 9 12 12 13 9 17 16 12 19 9 12 18 17 14 12 14 22 30 32 33 31 27 27 30 36 38 34 31 32 32
21 21 19 15 12 11 11 10 10 13 13 12 9 9 7 7 8 8 11 19 13 7 8 9 6 9 10 14 11 13 18 13 6 10 9 10 11 17 11 18 22 23 25 28 30 31 30 30 29 27 29 32 35 37
21 19 17 16 18 16 15 15 15 17 16 15 12 9 9 9 7 7 11 23 16 6 3 2 4 10 9 12 17 19 16 15 16 14 12 15 19 18 13 15 21 27 27 26 26 26 27 29 31 33 34 36 37 37
17 18 19 15 12 15 22 23 22 20 18 16 13 11 12 14 12 13 19 17 13 8 4 2 4 6 12 13 13 17 17 17 18 16 20 22 23 23 19 17 19 22 24 25 26 27 28 30 31 33 34 35 37 39
25 25 23 22 20 19 19 19 19 21 20 20 20 18 18 19 21 20 17 15 10 7 5 8 9 11 13 14 16 20 22 20 23 25 28 29 26 27 27 26 25 26 28 30 31 30 30 32 33 35 36 39 42 45
18 19 21 22 22 23 24 22 20 20 20 19 17 15 13 11 8 7 5 5 6 9 13 13 12 13 14 17 19 20 18 16 16 14 11 12 19 24 25 24 24 26 28 28 29 31 32 34 36 39 42 45 47 49
16 18 15 15 16 17 17 18 17 16 14 15 15 13 12 10 8 7 5 7 9 10 11 12 13 15 15 16 19 21 22 21 20 18 16 17 19 20 22 25 27 28 30 31 33 35 37 40 42 44 46 48 50 51
14 13 13 14 13 13 12 10 9 8 7 6 6 4 3 1 2 4 6 9 11 12 13 15 16 16 17 18 19 20 20 21 21 22 23 24 26 28 29 30 32 34 35 37 39 40 42 44 45 46 48 49 50 50
6 7 9 10 11 10 9 8 7 6 5 4 2 0 3 6 9 10 12 15 17 18 20 21 22 23 23 24 25 25 26 26 26 26 26 27 29 31 32 34 36 37 39 40 41 43 43 44 45 46 47 47 49 51
6 6 8 8 8 7 5 3 3 1 0 3 5 7 9 10 13 15 18 20 23 25 27 28 29 30 31 31 31 31 31 30 30 30 32 33 35 35 36 37 38 39 40 41 42 43 44 45 45 46 47 49 51 51
9 11 12 12 10 7 4 3 6 11 13 14 16 17 20 22 23 24 26 27 29 31 32 33 33 34 35 37 39 38 37 35 35 35 36 37 37 38 38 39 40 41 42 43 43 43 44 45 46 48 48 47 45 44
15 15 16 13 12 11 12 17 21 24 25 27 28 28 29 30 33 35 38 39 40 39 37 35 34 34 35 37 38 38 36 35 35 35 36 36 37 38 39 39 40 41 41 41 41 42 44 44 43 41 41 41 40 38
16 16 16 17 20 23 26 29 29 30 31 32 33 35 37 39 40 40 37 35 32 30 29 27 26 26 26 26 28 29 29 29 30 31 32 34 35 36 37 37 38 38 38 38 37 36 37 37 38 38 37 34 32 29
19 22 24 25 26 28 29 30 31 32 33 34 34 34 34 33 31 29 27 27 27 28 28 28 28 28 27 28 28 29 29 29 29 29 29 30 30 30 30 30 30 31 31 32 33 34 34 34 32 30 28 26 24 25
27 27 27 26 27 27 27 29 28 25 25 26 28 28 27 26 26 25 26 26 24 20 19 19 20 21 21 22 22 22 23 23 24 25 25 26 26 26 27 28 29 29 30 30 29 28 27 27 26 23 21 22 25 27
25 24 23 23 23 23 20 19 20 23 26 28 31 30 31 28 27 25 24 21 18 16 15 14 14 14 14 15 17 18 20 21 21 22 23 24 25 25 25 26 26 25 25 24 24 24 22 19 19 21 23 25 26 26

GFSWCAN_500_spd_081.txt.gz
Wind_Speed
30 31 31 33 35 36 38 39 40 40 39 38 40 43 48 49 50 50 49 47 47 46 40 37 36 32 29 28 29 31 34 32 28 25 22 22 23 25 24 28 49 55 48 47 18 25 38 29 26 40 37 39 40 51
35 38 41 42 43 44 45 45 46 48 50 50 49 47 46 48 56 57 56 51 50 50 44 40 39 36 31 32 34 31 34 35 33 30 27 22 24 24 28 29 36 51 42 40 42 11 38 34 33 30 26 31 45 38
28 25 23 23 26 28 30 30 32 35 38 42 48 57 59 57 54 56 57 55 55 53 49 45 41 39 34 38 39 38 35 33 34 32 29 24 25 26 30 27 35 54 48 43 36 22 32 23 30 31 33 31 30 35
13 16 19 21 23 25 28 32 36 40 43 45 44 44 48 58 64 61 58 56 56 55 53 49 44 41 39 38 38 39 37 36 36 36 33 28 26 25 29 26 27 45 50 49 43 6 15 22 29 33 29 35 30 26
14 18 20 23 25 28 31 33 35 38 42 43 42 50 47 45 46 55 62 64 62 58 57 54 49 44 42 39 39 39 41 40 40 39 37 32 29 29 28 29 19 34 49 54 40 29 16 10 17 26 35 36 34 33
15 18 17 12 15 21 25 30 32 35 38 41 43 45 46 46 41 41 45 51 55 54 56 57 53 46 46 44 43 42 42 40 41 42 40 34 31 34 34 28 22 23 50 54 42 27 23 15 12 19 25 30 37 41
16 10 3 5 7 7 11 14 21 32 42 48 43 44 41 45 43 40 30 29 40 53 54 54 50 45 44 43 43 41 42 41 43 42 42 37 32 34 35 32 27 27 52 53 44 39 33 26 23 21 15 19 23 25
13 11 5 6 10 10 11 4 5 10 25 39 47 40 38 42 40 39 33 31 33 43 48 41 39 43 44 42 45 45 43 43 40 41 41 35 34 38 38 34 29 31 39 51 61 56 43 36 26 30 24 22 24 24
14 16 13 14 15 15 20 22 31 35 42 45 42 35 41 40 40 41 37 34 34 38 46 25 26 33 34 29 29 33 40 42 42 41 40 37 35 36 34 33 30 32 42 44 60 65 64 44 33 32 23 23 25 32
18 20 22 26 24 22 21 31 39 32 39 37 38 41 39 36 36 39 37 38 36 37 44 29 25 25 28 30 31 32 34 37 39 39 38 35 34 35 37 31 27 33 40 36 43 53 46 47 36 30 27 24 27 26
20 24 27 26 26 27 32 35 35 39 42 38 41 38 36 35 31 31 35 40 33 30 27 33 27 27 28 28 30 31 31 31 33 36 40 41 39 40 36 34 25 26 40 35 35 41 38 36 37 39 35 30 29 27
22 28 28 25 32 39 42 42 39 34 33 31 32 35 35 33 29 35 36 31 37 45 30 27 27 27 30 30 27 30 31 33 35 35 36 37 35 37 37 37 33 29 37 23 31 34 36 35 37 37 32 32 28 29
24 27 32 27 33 36 36 33 34 39 42 46 39 37 45 41 32 30 30 35 26 29 31 27 28 29 29 24 25 25 31 30 28 29 28 29 28 32 35 33 35 31 41 25 25 30 35 38 35 32 31 34 36 34
23 23 24 28 29 32 33 31 34 29 33 35 42 41 35 39 31 32 30 29 28 27 28 27 23 21 22 25 25 22 15 16 16 17 18 19 22 25 27 32 30 33 37 28 28 28 32 35 34 34 36 38 35 34
17 19 21 20 20 22 26 30 31 29 31 28 28 26 25 24 23 23 23 23 24 21 19 17 18 21 23 19 22 21 20 19 15 6 7 12 14 20 24 22 21 32 35 33 31 18 27 32 35 36 37 35 33 31
19 20 18 17 17 18 18 20 21 21 21 21 17 17 16 18 20 19 18 18 19 19 19 20 19 20 20 22 21 24 23 17 10 11 14 13 10 18 27 33 19 22 38 28 30 38 33 31 33 37 36 30 30 31
20 19 17 17 16 16 17 17 18 16 16 18 13 10 13 19 17 17 13 14 16 19 19 19 16 16 13 16 15 19 16 15 15 15 16 7 8 10 17 24 25 25 26 29 29 32 34 35 37 31 28 31 33 32
13 15 15 15 15 14 14 15 17 17 18 14 14 18 21 22 24 24 17 12 21 17 13 19 17 15 10 10 8 6 8 12 9 13 14 11 12 15 13 12 15 22 29 31 26 28 32 29 29 34 31 29 30 38
14 10 8 9 9 9 12 14 14 15 15 15 15 17 17 16 17 19 18 17 21 19 16 10 10 10 10 10 8 8 13 17 9 11 13 13 15 19 15 17 16 20 24 25 25 29 30 30 28 27 30 35 37 37
16 16 14 14 14 15 14 13 14 14 14 14 14 13 11 10 10 17 20 16 14 14 10 6 5 4 3 6 10 10 14 13 9 9 10 12 11 12 13 15 16 16 21 26 28 28 29 31 33 35 35 33 32 33
17 17 16 20 18 15 16 17 17 18 15 12 10 10 9 7 6 7 17 15 12 11 9 6 4 2 8 8 9 12 17 18 18 17 16 15 13 14 18 17 16 13 16 20 24 27 28 28 29 30 31 33 34 35
20 20 21 21 21 21 20 19 18 17 14 13 13 13 14 13 8 9 15 16 13 8 4 3 3 4 6 10 13 15 16 17 17 18 20 24 27 27 24 21 20 20 21 22 24 27 28 30 31 32 33 34 35 37
22 22 24 23 22 22 20 18 16 15 17 19 19 18 16 15 15 15 15 14 10 8 9 11 11 10 12 15 16 17 18 17 17 16 16 16 14 17 23 24 24 25 25 25 26 28 29 31 33 34 36 37 38 40
19 21 20 20 20 21 21 19 18 17 17 15 13 12 12 11 11 10 10 10 11 12 12 12 13 15 16 17 18 19 19 20 21 22 21 20 19 20 21 23 24 25 27 28 30 32 34 35 37 38 40 41 42 44
13 12 12 13 12 14 13 13 13 12 11 11 10 8 7 7 7 7 7 8 10 11 13 14 15 16 17 17 17 18 18 19 20 20 21 22 22 22 24 26 28 30 32 33 35 36 38 40 41 42 43 43 44 44
7 6 7 6 7 6 5 5 4 3 3 3 3 4 4 4 5 7 8 10 11 13 14 15 16 17 18 19 21 22 24 25 26 26 25 24 25 26 28 30 32 34 35 36 37 39 40 40 41 42 43 44 45 45
4 4 5 5 5 4 2 2 3 4 6 8 8 10 12 14 15 17 19 21 24 25 26 27 28 29 29 29 30 30 29 29 29 30 30 29 30 32 33 34 35 37 38 38 39 40 41 42 42 43 44 46 48 49
7 8 9 9 8 7 7 7 9 10 12 15 18 20 22 24 26 27 28 29 30 32 34 35 36 38 39 40 40 40 40 38 35 33 32 33 34 34 36 37 38 39 39 40 41 42 42 43 44 44 46 47 48 47
12 13 14 10 8 8 12 15 18 22 25 28 29 30 31 32 34 36 38 40 42 41 41 39 36 34 32 31 32 35 38 37 36 34 34 35 36 36 37 37 38 39 40 41 42 43 44 45 45 44 43 42 40 40
15 15 13 15 19 21 23 26 28 30 31 32 33 35 36 36 35 35 33 32 31 29 28 27 26 26 26 26 26 27 28 29 29 29 30 32 33 35 36 37 38 39 39 40 40 39 39 37 36 36 37 37 37 36
14 19 24 26 28 29 29 29 29 30 31 30 28 28 29 30 31 30 29 27 25 24 24 24 23 23 23 25 26 27 28 29 29 29 29 29 30 30 31 31 31 32 32 32 32 32 33 33 34 34 33 32 31 30
27 28 27 26 26 26 25 26 26 24 23 24 26 29 32 35 35 32 28 26 23 22 21 18 16 15 15 16 17 18 20 20 21 22 23 24 25 25 26 26 27 27 27 28 29 30 30 30 29 28 28 26 24 24
28 27 25 22 21 22 21 19 20 22 24 27 30 34 38 39 34 29 24 21 19 18 17 16 16 16 15 15 14 13 14 16 17 18 19 20 21 22 23 23 24 24 25 25 25 25 24 24 23 22 21 22 24 26

GFSWCAN_500_spd_084.txt.gz
Wind_Speed
23 24 26 27 29 31 32 33 33 33 32 32 30 29 31 31 34 36 33 27 24 28 28 26 25 26 25 23 22 19 19 29 33 36 33 27 22 19 21 20 21 18 22 22 38 40 37 30 17 38 34 34 43 45
27 28 30 32 33 34 34 35 35 35 34 34 35 35 35 37 35 35 36 33 33 35 30 28 28 30 28 27 25 19 23 29 31 30 29 25 22 18 19 20 19 21 16 26 37 27 36 35 21 18 33 20 33 37
30 32 35 38 40 42 44 45 45 45 44 42 40 38 40 41 39 41 42 39 38 40 35 31 29 29 30 28 25 23 23 33 35 32 32 30 26 22 19 19 18 21 21 25 33 40 43 41 38 34 38 29 21 29
16 17 18 20 23 26 29 31 34 36 39 43 45 47 45 45 48 48 47 45 44 43 40 35 34 33 33 32 28 27 27 33 36 37 35 33 30 26 21 19 21 18 21 20 33 36 45 27 10 27 34 31 29 24
18 21 22 24 25 27 29 31 32 32 33 33 35 38 44 50 51 49 51 52 51 48 48 44 40 38 37 35 33 33 32 36 38 38 38 35 31 29 24 22 21 20 19 23 29 36 43 31 20 6 26 28 32 32
14 16 18 23 24 23 26 30 34 37 38 39 39 37 36 37 41 49 57 54 54 53 53 51 45 42 40 37 34 36 34 35 40 42 43 39 34 33 31 26 20 21 26 25 25 34 39 35 21 20 18 23 33 35
15 16 11 8 11 17 20 24 30 36 39 40 40 41 41 41 41 41 49 49 54 54 52 49 51 47 43 38 34 36 37 34 39 42 43 40 37 37 36 33 23 21 25 29 25 32 36 40 25 18 13 13 14 28
15 11 5 3 2 6 13 20 26 33 36 37 37 38 38 35 37 38 31 28 37 47 51 46 36 47 46 40 38 38 39 39 38 40 44 41 39 40 40 34 26 23 24 30 28 26 35 40 35 26 15 17 15 19
12 8 7 3 5 8 9 7 10 25 33 38 38 35 34 38 37 32 30 26 29 34 42 46 39 34 35 26 36 36 36 37 39 44 44 43 42 42 39 36 29 26 28 27 29 23 27 33 41 35 24 24 21 23
15 16 14 14 16 20 21 27 28 31 42 43 44 43 39 40 38 33 28 27 29 27 34 38 30 28 29 26 27 32 32 34 36 38 42 46 42 39 37 36 36 32 30 29 30 30 26 28 43 48 45 42 31 27
20 23 23 27 20 22 28 30 39 42 44 46 42 38 39 41 35 34 30 30 26 24 32 40 34 24 25 20 19 22 27 28 33 38 44 47 42 35 34 36 37 35 30 28 28 30 32 31 37 41 47 50 45 36
21 27 29 28 26 27 28 29 29 32 35 35 36 34 38 36 34 33 29 27 23 21 35 36 30 26 18 20 22 22 26 30 28 29 36 38 31 33 34 36 39 37 30 28 28 26 30 27 31 36 38 40 42 47
23 26 32 28 27 25 29 32 33 31 29 31 37 36 33 32 30 34 34 25 24 28 26 25 28 25 23 20 24 24 25 26 25 29 30 28 26 30 34 38 37 34 34 31 28 24 28 33 35 37 39 38 36 36
20 24 29 27 30 30 26 30 33 25 19 28 29 20 21 17 22 25 34 27 29 25 25 22 20 20 20 21 28 27 24 24 25 26 24 22 22 23 27 29 28 30 33 32 31 27 35 29 37 40 39 36 36 35
18 20 23 26 27 26 24 25 24 28 27 28 30 26 27 23 27 26 26 25 23 27 27 21 18 18 18 21 24 24 24 25 25 23 16 17 18 24 24 24 23 25 29 30 33 31 39 31 29 34 37 33 36 35
15 17 18 19 23 23 21 21 23 23 23 26 21 17 17 15 17 17 17 15 15 16 18 18 17 18 19 20 20 22 25 24 20 21 10 10 8 9 14 20 21 19 19 20 23 23 35 28 21 26 29 36 37 36
19 17 16 16 17 16 15 17 18 16 16 15 17 19 18 16 15 16 16 15 17 18 18 17 18 18 18 20 21 19 19 19 19 16 13 14 12 12 10 17 22 23 29 23 20 22 26 23 25 24 24 30 30 34
14 15 16 17 15 14 14 15 16 14 11 9 10 14 15 17 16 15 14 13 16 15 14 13 13 13 12 8 10 9 12 16 13 8 8 13 13 13 13 15 17 19 21 22 22 24 27 26 28 31 33 33 33 32
11 10 11 13 14 14 14 15 16 14 14 17 19 19 18 16 14 14 12 17 15 13 11 9 7 10 8 6 11 10 7 9 10 9 12 10 13 11 14 15 16 17 19 19 21 22 28 29 26 26 30 29 26 29
11 11 10 10 11 14 15 16 15 16 15 15 16 15 14 14 12 12 13 15 14 13 12 11 9 8 12 12 12 11 9 13 15 11 9 9 9 9 13 18 17 21 22 19 23 26 26 26 27 30 33 33 32 35
15 13 11 9 10 11 15 16 16 17 16 13 12 12 11 11 17 17 14 14 18 19 15 9 10 11 10 10 11 13 15 17 20 18 15 15 14 12 13 12 11 13 17 16 19 22 26 27 28 29 30 29 29 30
17 17 15 14 14 14 14 13 16 16 14 12 10 9 9 8 8 11 16 15 14 14 12 10 9 10 10 10 11 11 13 16 18 20 21 22 21 23 26 27 25 22 20 18 19 20 21 22 24 26 27 28 30 32
18 16 15 14 15 16 15 13 11 11 9 12 12 9 7 5 6 7 15 19 16 14 13 13 13 13 13 14 16 16 16 17 19 20 20 20 23 24 26 25 24 26 25 25 25 26 27 28 29 30 32 34 35 36
20 19 17 14 13 12 12 10 10 10 10 11 11 10 9 8 8 9 11 14 16 17 18 18 17 17 17 17 17 18 19 20 20 21 22 23 23 23 24 24 25 27 29 29 29 30 31 33 34 35 37 38 39 40
14 12 13 14 13 13 12 11 9 8 6 6 6 6 8 9 10 11 13 14 15 16 16 17 17 17 17 18 18 19 19 19 19 20 21 22 24 24 25 26 28 30 31 32 34 35 36 37 38 39 40 40 41 41
7 8 8 7 7 6 5 4 4 3 3 4 5 5 6 8 10 11 13 14 15 17 18 19 19 20 20 20 21 21 22 22 23 24 25 26 26 26 28 29 31 32 34 36 38 39 40 41 41 42 42 43 44 44
4 4 5 4 4 4 4 5 7 8 8 9 10 11 13 16 18 21 23 25 27 29 30 30 31 31 32 32 32 31 31 30 29 29 30 30 31 32 33 35 37 38 40 41 42 42 42 43 43 44 44 44 45 46
6 7 7 8 9 8 8 9 11 13 15 17 20 23 26 28 31 33 35 37 39 40 41 42 43 43 43 42 42 41 40 39 38 37 36 36 36 37 38 39 39 40 41 42 43 44 44 44 45 45 46 47 48 48
10 12 14 12 9 9 13 17 20 21 24 27 31 33 34 36 38 39 39 39 39 38 37 36 36 35 34 33 33 33 34 36 37 36 35 34 35 37 38 39 41 41 42 42 42 43 44 45 46 47 47 46 45 43
16 18 15 13 16 21 24 26 28 30 32 33 34 35 32 30 29 29 30 31 31 30 29 29 28 27 26 26 27 28 29 30 31 31 31 31 32 34 36 38 39 40 41 42 43 43 43 42 40 39 39 38 37 38
15 15 17 24 27 27 28 29 28 28 29 27 25 25 26 28 31 33 35 33 31 28 26 25 23 22 22 21 21 22 24 26 29 30 31 31 31 31 31 31 32 33 33 34 34 34 34 34 34 35 35 36 35 35
21 26 28 27 25 24 22 23 24 22 21 23 25 28 31 33 36 38 34 28 24 20 19 18 18 17 16 16 15 15 16 17 19 20 22 23 24 25 25 25 25 26 27 28 28 28 29 30 30 30 30 30 30 29
26 23 20 17 17 18 19 18 19 21 23 26 29 32 34 37 38 33 26 22 20 19 16 15 15 15 16 16 17 17 17 16 15 15 15 17 18 19 20 21 22 22 23 23 24 24 24 24 24 24 24 23 23 23

GFSWCAN_500_spd_087.txt.gz
Wind_Speed
22 21 21 21 22 23 23 25 25 24 23 22 20 19 20 19 15 13 11 16 15 20 26 21 25 33 38 40 30 27 23 25 32 38 36 35 29 25 20 16 17 20 23 20 21 21 16 19 36 41 31 18 34 35
22 23 24 25 26 26 27 28 28 28 27 25 23 20 21 26 23 21 22 22 19 13 18 16 25 35 35 27 21 21 21 26 30 33 33 28 24 22 20 17 17 16 18 17 19 22 12 19 33 46 44 18 31 38
22 24 26 28 30 32 32 33 33 32 31 29 26 23 22 24 26 28 26 25 26 13 19 33 32 25 22 18 19 20 21 22 24 27 26 25 24 21 19 13 15 12 15 19 21 17 30 34 27 25 37 30 22 26
17 18 20 21 23 26 31 35 37 36 34 32 30 28 25 25 26 25 25 21 18 17 23 24 19 16 17 19 22 22 21 20 20 22 26 25 24 23 19 17 14 12 12 14 21 21 25 31 28 25 25 30 23 32
18 20 21 23 25 26 25 24 25 30 34 34 34 33 31 30 30 31 30 28 27 26 25 24 24 22 20 22 23 24 23 22 21 25 28 27 27 25 24 21 13 15 15 16 13 18 22 22 24 21 23 20 22 28
15 17 17 19 23 27 29 27 26 26 27 28 29 31 32 31 34 37 38 37 34 32 31 29 26 25 22 22 22 23 24 26 26 27 29 31 31 29 24 20 17 17 17 18 14 19 16 15 26 27 19 15 16 24
15 17 15 14 15 15 23 28 29 30 28 28 28 29 30 31 35 42 44 33 36 35 34 31 32 29 28 26 24 23 25 28 31 30 33 33 32 33 29 25 19 20 21 22 19 16 18 14 26 31 29 21 23 25
14 12 10 8 5 7 10 19 25 28 30 31 31 31 30 31 32 34 29 27 30 32 36 38 37 33 32 30 27 26 25 27 29 31 32 32 33 35 32 26 21 21 24 25 25 23 19 20 20 36 33 23 21 20
13 12 8 5 3 4 9 18 25 29 29 34 32 30 31 37 35 29 24 23 24 31 35 39 37 29 34 33 31 30 25 26 29 30 32 33 34 35 31 28 27 25 25 28 27 27 27 19 17 34 42 32 24 20
18 15 16 10 8 11 16 13 24 31 32 33 35 35 31 31 30 28 25 26 25 26 31 34 31 30 25 19 20 18 19 26 29 28 33 38 36 34 33 31 30 29 27 27 28 28 32 29 23 22 41 43 32 24
18 18 18 18 18 21 25 24 34 39 37 37 41 37 30 29 26 27 28 27 24 22 21 23 26 31 19 12 15 16 21 24 26 29 33 38 38 34 31 30 29 29 29 29 31 30 34 32 28 23 26 36 39 35
14 23 25 26 24 27 30 34 35 38 38 35 36 35 33 35 34 38 30 19 18 19 16 15 26 23 18 22 20 15 16 20 24 28 31 35 32 29 31 33 34 35 35 34 33 32 31 31 25 21 22 28 32 38
22 20 26 29 31 31 31 34 36 37 38 37 33 33 33 36 35 26 21 21 18 15 18 29 34 30 22 25 26 27 28 26 23 20 17 13 16 20 23 28 34 36 36 36 35 35 32 29 27 22 24 22 21 29
21 27 26 22 27 34 36 29 25 26 29 29 27 30 28 29 28 24 22 19 11 16 22 32 28 27 20 17 18 18 24 20 24 20 17 17 21 24 26 27 29 33 35 36 36 31 29 29 28 25 25 22 26 24
19 21 20 16 22 22 27 22 24 31 31 24 22 20 19 18 20 22 20 16 17 19 22 24 25 23 19 17 17 21 28 25 21 20 20 19 21 25 25 25 30 32 31 29 26 26 27 29 30 25 25 21 26 29
12 13 14 13 14 20 23 26 21 21 17 16 22 22 21 19 21 23 22 21 18 21 21 17 13 13 14 14 16 19 21 21 20 20 21 21 24 22 18 24 25 24 22 23 24 25 27 28 24 20 27 29 31 33
12 11 11 10 11 13 14 14 16 22 20 17 11 17 19 18 17 20 19 16 16 18 19 17 15 15 13 15 15 17 17 15 15 18 22 25 23 19 15 18 17 16 18 18 18 15 13 18 20 22 25 27 20 28
13 12 11 9 8 9 10 10 10 12 11 9 12 15 15 16 17 17 16 14 15 15 14 11 11 13 14 12 11 12 15 16 15 16 18 20 20 19 15 14 13 11 14 18 22 23 23 23 26 18 20 24 24 25
13 13 12 11 11 13 13 11 11 10 11 16 17 14 12 11 10 9 10 12 13 11 11 12 10 7 9 9 7 6 9 10 12 14 13 10 10 14 15 15 12 13 17 19 22 23 21 23 23 23 23 25 26 25
8 9 9 10 12 12 11 11 15 16 18 20 18 16 14 14 12 10 10 10 13 12 11 7 7 10 9 9 11 11 13 14 11 11 11 10 9 9 9 11 12 12 13 15 16 17 17 18 21 25 25 26 28 29
12 10 9 8 11 12 11 11 13 15 15 13 12 11 10 8 8 9 8 9 6 4 4 6 9 14 11 12 12 13 15 15 15 15 14 13 13 14 13 13 12 17 18 18 20 23 25 22 24 28 29 28 28 29
14 15 13 11 10 14 14 12 12 11 10 8 7 6 6 8 12 13 11 12 15 14 11 11 13 14 13 15 18 19 18 16 17 17 19 21 20 21 21 20 20 20 22 22 20 20 19 20 21 22 21 22 24 26
14 13 14 12 14 10 14 13 13 11 9 7 6 5 4 4 5 7 13 18 18 16 17 17 17 16 17 18 20 20 20 21 21 20 19 20 20 22 22 22 22 22 22 23 23 23 24 24 24 26 27 28 29 30
16 15 15 14 13 13 14 13 8 5 6 8 9 8 6 6 5 5 6 10 18 19 19 21 23 23 23 21 20 21 22 22 21 21 21 22 23 24 24 25 23 22 23 25 26 26 27 28 29 30 31 32 33 35
17 15 15 14 14 13 11 10 8 5 3 3 1 1 3 5 7 9 11 13 15 19 21 22 23 23 21 22 22 22 21 21 21 20 20 20 21 22 23 24 25 25 27 29 31 32 33 34 35 36 38 39 40 41
11 11 12 11 11 10 9 6 4 3 3 3 5 6 7 8 10 12 14 16 18 20 22 23 25 26 26 27 27 26 26 25 24 23 23 22 23 24 24 25 26 28 30 32 34 36 37 39 40 41 42 42 43 44
7 8 8 8 8 8 8 8 8 9 10 11 13 14 16 19 22 24 26 28 31 32 34 35 36 37 38 38 38 37 36 36 35 34 33 32 30 29 28 29 31 32 34 36 38 39 41 42 43 43 44 44 45 45
6 8 9 10 11 11 11 11 12 13 16 19 22 25 27 30 33 37 39 41 43 44 45 45 44 43 41 40 39 38 37 36 37 38 39 38 37 37 37 36 37 37 38 39 40 42 43 44 44 45 45 45 46 46
11 13 14 15 15 14 13 16 20 24 27 29 31 33 35 35 33 31 30 30 30 31 32 33 33 33 32 30 29 27 26 26 25 26 27 28 31 33 35 36 37 37 39 40 40 41 42 42 43 43 43 44 45 47
18 19 19 17 15 17 23 28 30 31 31 31 30 27 25 25 26 27 29 30 32 32 31 30 30 29 29 28 26 25 24 25 26 26 27 28 28 29 30 33 35 37 39 40 41 42 43 43 44 45 44 43 42 41
19 17 17 19 24 28 29 28 28 26 24 22 22 23 25 27 30 32 33 33 31 28 24 22 21 21 20 20 20 20 20 20 20 20 22 24 26 28 29 30 30 31 32 33 33 34 34 35 35 36 36 36 36 36
20 24 25 27 26 25 23 22 21 20 20 21 24 26 29 31 33 34 33 28 24 21 20 19 18 16 16 16 16 16 16 16 16 16 16 17 18 19 20 21 22 23 24 25 26 26 26 27 28 28 29 29 30 29
25 25 22 18 17 18 18 17 17 19 21 24 27 29 32 33 34 32 27 24 22 20 19 17 16 16 15 14 15 16 17 17 18 19 18 17 16 16 16 17 18 19 20 21 21 22 22 22 23 23 24 25 25 24

GFSWCAN_500_spd_090.txt.gz
Wind_Speed
20 18 18 18 17 16 16 17 18 19 19 19 18 18 20 19 21 19 10 15 21 24 22 25 25 25 27 27 25 23 27 29 30 30 28 28 28 24 22 20 19 21 23 25 26 27 23 22 28 25 28 36 37 32
17 18 18 18 18 18 18 19 20 21 22 22 19 17 18 18 16 14 14 15 15 21 25 28 28 30 30 28 29 33 33 26 31 29 30 30 28 24 21 21 21 20 19 22 23 22 18 19 18 18 21 26 32 30
18 19 20 21 22 22 22 23 23 24 25 24 22 20 19 19 21 16 17 20 21 30 27 30 26 27 30 29 29 39 28 27 32 34 27 32 29 23 24 21 23 19 19 14 17 16 18 12 20 25 23 17 22 33
17 16 16 17 18 20 23 26 27 28 28 27 24 21 21 20 23 26 23 22 18 16 20 23 27 26 29 33 38 28 28 33 29 29 25 24 24 26 25 24 20 17 14 10 8 12 24 22 25 25 31 14 16 24
13 14 15 16 17 18 19 18 21 28 30 30 28 24 24 21 21 23 23 25 21 18 24 21 30 32 35 34 28 28 32 30 26 24 23 23 24 24 24 26 19 18 17 12 8 13 14 15 24 19 23 26 13 16
12 13 15 16 18 20 21 22 22 20 23 30 29 24 24 26 23 23 22 18 21 20 31 26 28 24 20 18 25 28 27 26 23 20 20 22 21 23 26 24 18 18 18 16 13 13 12 14 13 12 21 22 21 20
13 15 16 17 17 19 22 25 27 26 22 23 26 25 24 25 25 25 23 19 15 15 22 17 14 14 17 17 22 26 26 25 23 21 19 17 20 24 25 23 19 18 21 20 17 16 12 15 13 12 16 29 23 20
12 11 12 12 11 12 17 18 22 28 27 24 24 24 23 26 28 28 23 23 24 25 24 20 18 14 15 16 17 21 23 23 22 22 21 20 21 24 24 23 17 21 23 21 21 20 15 17 16 15 16 23 30 22
8 9 4 3 7 11 15 17 19 27 28 27 27 27 29 31 29 23 23 22 24 26 26 25 24 22 21 18 16 16 18 21 22 22 22 24 23 26 24 23 21 22 23 22 23 23 23 21 20 19 20 21 27 32
13 12 6 5 9 12 16 18 22 28 31 32 37 39 36 30 27 25 25 24 26 28 30 29 28 27 23 19 21 17 16 19 20 19 22 25 25 24 23 22 20 20 23 25 25 26 27 26 25 24 24 25 25 31
17 13 17 17 12 10 18 27 29 32 37 36 35 34 34 32 27 28 28 28 26 26 24 23 24 20 22 18 14 14 14 16 19 20 23 25 26 25 24 26 25 26 26 29 30 31 31 29 30 29 29 28 28 30
22 20 23 24 26 27 31 37 33 33 39 40 34 29 30 34 34 31 28 26 22 19 15 15 18 20 24 24 21 18 19 21 21 22 24 26 23 24 27 28 30 32 33 34 34 34 33 33 33 32 30 28 29 31
19 21 25 32 27 28 32 33 33 36 39 40 33 30 30 33 32 22 18 23 20 14 14 16 14 25 26 24 24 23 21 22 22 25 27 23 21 24 24 27 30 34 38 40 43 45 41 36 33 32 29 29 27 30
15 19 30 32 32 30 29 30 32 41 39 32 31 34 29 25 22 20 21 16 14 14 17 19 22 35 31 27 23 26 25 25 26 24 19 16 19 22 23 23 25 28 30 33 36 38 37 34 34 34 31 30 26 26
17 16 23 24 24 27 28 31 33 30 26 25 27 22 25 27 21 16 13 12 9 12 16 22 37 33 32 32 31 28 22 31 31 23 20 20 20 20 23 27 29 32 34 36 36 36 35 35 35 33 30 28 27 24
13 16 20 26 26 26 32 28 24 21 17 19 21 19 18 18 17 15 13 12 12 14 24 35 31 25 26 24 23 24 24 22 22 25 21 22 23 25 27 29 27 23 29 28 27 28 30 29 28 26 26 27 28 28
8 11 16 16 20 22 16 12 14 23 20 19 17 16 15 15 19 18 16 22 18 17 19 21 20 19 17 16 15 15 14 15 18 22 24 23 25 27 29 26 20 18 21 22 18 17 19 23 24 26 25 24 21 26
10 10 8 10 12 14 14 12 14 18 12 18 20 19 17 15 17 20 18 15 14 16 16 12 11 12 12 11 12 14 17 18 18 18 19 19 21 22 21 22 22 20 21 19 19 18 17 17 15 16 18 22 26 27
10 10 10 12 15 14 12 12 12 10 13 18 18 16 15 16 17 16 15 14 15 15 15 13 11 11 11 11 12 10 11 11 12 11 10 12 14 14 14 16 18 18 19 18 15 18 20 22 25 23 24 28 27 28
9 9 11 12 12 15 15 17 16 14 16 16 15 14 14 14 13 13 13 14 13 14 14 14 13 7 5 8 12 13 11 11 11 13 13 11 9 9 9 8 9 10 14 15 15 18 22 26 28 27 26 25 27 29
10 8 9 10 10 12 15 18 20 20 19 17 16 15 14 13 12 10 9 10 10 9 8 9 9 7 6 8 12 13 13 13 16 17 17 15 15 10 11 12 12 11 11 12 14 16 18 22 24 24 24 25 27 28
14 12 10 11 11 11 11 12 14 14 14 12 11 9 9 9 9 9 9 8 8 9 9 7 7 7 8 14 16 16 17 19 21 21 21 20 20 21 20 19 19 20 18 16 16 17 20 21 21 21 24 27 29 30
19 17 15 11 13 12 11 9 8 7 5 3 3 3 4 4 6 8 12 13 13 14 16 16 16 17 19 20 20 21 22 22 23 23 23 23 22 21 21 20 20 20 20 20 20 20 20 22 23 24 24 25 26 27
17 14 16 18 15 10 8 7 5 5 6 5 5 5 5 6 7 8 10 13 15 19 22 23 23 23 24 26 27 28 27 25 25 24 23 23 23 24 24 24 24 23 23 23 22 23 24 25 26 27 27 28 29 30
19 19 18 17 15 14 11 10 8 6 4 3 2 1 1 3 5 7 10 12 13 15 17 20 23 26 27 28 29 27 26 26 26 26 26 26 24 22 21 21 22 22 23 24 25 26 28 29 30 32 33 34 35 36
15 15 15 14 15 12 10 8 6 4 4 5 6 8 8 9 11 12 14 17 18 21 23 25 27 29 30 31 32 32 32 32 31 30 30 29 28 27 26 26 26 25 25 26 28 30 32 33 35 36 37 39 40 41
11 11 11 11 11 10 9 9 9 9 9 12 14 16 18 21 23 26 28 30 32 34 35 36 38 39 39 40 39 40 40 39 39 39 38 37 36 36 35 34 32 32 31 32 32 34 35 37 38 40 41 42 43 44
8 9 11 12 12 12 13 13 13 15 17 21 25 27 28 31 32 32 31 30 29 29 29 30 30 32 32 32 31 30 28 28 29 32 34 35 35 35 35 35 36 36 36 37 37 38 38 39 40 41 42 43 43 44
11 13 13 14 15 14 12 14 19 23 26 29 30 28 26 24 25 26 27 28 29 30 32 33 33 33 32 31 31 29 28 27 25 25 25 26 28 29 30 31 32 32 33 34 35 36 37 38 38 39 40 40 41 42
15 16 15 13 15 19 21 24 27 28 27 25 23 23 23 23 24 26 28 30 31 32 31 30 28 26 25 24 23 23 22 22 22 23 23 24 25 26 28 29 30 32 33 35 36 36 37 38 39 40 41 42 42 42
15 14 16 20 22 24 25 25 23 21 21 21 21 21 23 25 28 30 31 32 30 28 25 22 21 20 19 18 17 16 16 17 17 17 18 19 19 20 21 23 26 28 30 32 33 34 34 34 34 35 35 35 35 35
16 20 22 24 23 21 19 18 17 18 20 20 22 24 25 28 31 33 32 29 24 21 18 17 17 16 16 16 15 15 15 15 15 15 16 16 15 15 16 16 17 18 20 21 22 23 24 25 25 26 26 27 27 27
20 23 22 19 16 14 14 15 18 19 21 23 25 26 28 32 34 35 33 26 21 19 18 17 16 15 14 14 14 14 14 15 16 17 18 18 19 19 18 18 17 16 16 16 17 19 20 20 20 21 22 23 24 24

GFSWCAN_500_spd_093.txt.gz
Wind_Speed
29 31 27 19 16 16 16 14 15 16 18 19 18 17 18 19 19 19 14 14 11 16 23 24 26 26 26 27 23 18 17 21 23 24 23 20 24 24 27 20 15 16 19 20 20 24 22 21 20 22 24 27 32 36
29 23 18 16 14 13 12 14 15 16 18 18 18 19 19 16 16 16 15 13 14 16 21 26 25 27 27 29 29 28 21 24 22 21 17 16 13 21 22 19 19 19 19 18 19 21 23 20 20 23 24 22 27 30
22 19 17 16 16 16 15 15 17 18 20 20 20 19 18 16 18 12 13 20 21 18 24 25 23 24 28 32 25 27 27 22 22 24 21 20 19 16 21 22 24 24 22 23 23 21 20 24 22 20 20 21 25 22
19 18 19 19 19 19 20 19 19 20 21 22 23 21 19 19 21 16 19 15 15 20 23 22 28 23 27 31 30 28 35 35 29 29 24 28 22 21 19 23 27 26 26 23 19 14 19 21 23 27 25 26 33 27
15 15 16 16 18 18 18 20 22 23 23 24 25 23 21 21 25 22 22 19 23 19 16 21 23 24 26 27 29 30 38 33 29 28 30 27 23 20 22 23 26 27 24 22 14 16 12 10 15 18 19 26 28 31
13 14 16 17 19 20 20 21 20 21 24 26 25 23 22 25 26 28 29 31 28 19 21 20 20 15 28 29 29 31 41 31 33 32 27 25 24 22 20 26 26 28 25 19 18 17 9 10 6 8 15 19 18 31
13 15 18 21 22 22 22 22 22 22 21 22 26 25 22 27 26 25 27 23 24 19 25 26 21 16 27 29 29 36 36 31 31 29 24 23 24 27 27 28 27 26 23 22 21 18 13 15 12 15 13 11 16 25
14 16 18 20 22 24 24 25 25 24 24 21 21 26 25 25 28 24 22 25 25 25 27 24 14 17 25 31 33 37 33 31 29 26 23 19 20 23 25 24 26 27 27 23 23 20 18 21 19 16 16 12 11 16
7 9 10 13 16 21 22 23 23 25 27 23 23 26 30 29 28 25 22 23 24 26 31 22 19 16 13 22 26 27 27 26 23 20 17 18 19 21 22 20 20 26 24 24 25 24 23 22 23 21 20 19 18 16
9 7 8 9 12 14 19 21 23 27 32 32 32 32 32 28 26 24 22 23 24 25 30 18 18 18 19 17 18 23 22 22 23 19 20 19 17 17 18 12 15 20 25 26 27 29 28 26 26 25 24 25 24 23
6 9 9 9 14 22 22 21 24 36 38 37 37 32 30 28 27 26 27 28 29 29 29 26 28 24 19 13 14 17 18 19 19 19 20 20 16 19 14 17 19 20 22 25 27 28 29 29 30 30 30 28 30 27
12 14 12 11 7 31 32 27 27 34 35 36 32 30 30 31 30 28 29 28 25 25 22 20 25 23 23 17 13 17 19 18 17 18 19 20 18 15 19 21 22 24 26 29 32 33 35 36 36 36 37 36 34 32
21 25 21 23 26 33 37 32 27 30 32 36 36 32 30 32 30 25 23 23 19 13 14 15 18 21 25 24 23 23 22 20 20 22 22 19 14 19 21 24 27 29 31 34 36 38 40 41 42 42 41 42 39 37
24 26 26 28 31 32 32 34 36 35 32 31 32 34 34 31 25 20 18 17 16 17 18 18 18 19 22 27 24 23 23 24 25 25 25 20 20 23 25 27 30 32 35 36 37 39 42 43 42 43 45 47 46 41
21 23 26 28 29 33 37 34 27 29 25 26 21 25 29 26 19 16 16 18 19 18 18 18 19 15 28 29 28 27 28 28 24 23 19 20 20 22 23 26 27 30 30 31 33 36 38 38 38 38 35 35 39 38
25 26 24 28 35 34 26 23 26 26 24 20 26 24 17 18 18 18 15 15 15 15 18 21 20 23 37 32 30 28 25 23 19 19 24 27 27 26 25 26 29 31 33 32 34 34 33 30 31 31 33 34 35 35
20 24 25 23 22 22 21 17 18 18 22 21 19 14 15 20 16 14 11 11 9 8 12 19 22 31 29 26 21 22 22 23 25 25 27 29 32 31 29 32 33 34 33 31 31 33 31 27 24 26 25 27 29 29
15 16 17 16 19 17 19 25 20 19 19 17 16 16 17 17 16 14 13 15 13 12 14 18 25 24 21 20 19 20 20 21 23 25 25 26 30 33 33 34 33 30 29 28 30 27 27 26 24 19 17 19 22 24
14 15 15 14 14 14 13 18 16 18 16 17 16 15 14 15 16 15 17 17 13 13 19 20 21 19 19 17 16 16 17 19 21 22 22 24 24 22 22 23 25 25 26 29 28 26 24 23 21 18 18 19 19 20
14 16 15 16 15 13 14 15 17 18 17 16 14 13 13 14 15 14 13 13 13 14 16 18 16 15 14 14 15 16 15 16 18 19 16 16 16 19 16 14 13 13 17 22 24 22 21 19 20 21 22 23 24 26
12 13 15 17 19 18 14 17 18 18 16 15 12 11 10 10 11 12 13 14 14 14 15 16 16 17 17 14 13 12 11 14 16 18 19 19 19 19 20 17 15 15 15 13 13 14 16 19 23 26 27 27 27 26
11 12 14 15 17 19 18 19 18 15 14 12 12 12 12 12 12 11 10 10 10 11 12 12 13 15 18 17 16 16 16 17 18 18 19 20 21 21 22 22 24 23 22 20 19 20 21 19 19 21 23 26 28 29
13 12 12 12 12 12 13 12 12 11 10 8 7 7 8 9 9 11 12 13 13 14 15 17 19 20 20 21 22 23 23 23 23 23 23 23 23 23 23 23 23 23 23 22 22 23 25 26 26 26 26 26 27 28
20 15 13 12 11 8 6 4 2 1 2 2 3 4 5 6 8 9 12 14 16 18 20 23 27 27 28 28 28 28 28 27 27 27 27 26 25 25 24 24 23 24 25 26 26 26 27 27 27 27 28 29 29 30
19 17 17 16 13 11 8 7 6 6 5 3 2 1 1 4 7 9 11 14 16 18 19 20 21 23 24 26 27 27 28 28 28 28 28 28 27 27 27 28 27 26 24 24 25 26 27 28 28 29 29 30 31 32
18 17 15 14 12 9 7 6 4 3 2 3 5 7 9 10 13 15 17 20 22 25 26 28 30 32 33 35 35 36 37 37 37 37 37 36 35 34 33 32 31 31 30 29 29 28 28 29 30 31 32 34 35 36
13 13 12 11 10 9 8 8 7 7 9 11 14 17 20 22 24 26 27 27 26 27 27 28 29 31 32 34 36 37 38 39 41 42 42 42 42 42 41 39 38 38 37 36 35 35 35 36 36 37 38 39 40 41
8 10 10 9 9 10 9 9 9 13 17 20 23 25 25 25 24 24 24 25 26 27 28 29 31 31 32 33 33 33 34 34 34 33 33 34 35 36 38 39 40 40 39 39 38 38 38 38 39 39 40 40 41 41
8 9 10 10 7 8 11 14 17 20 22 23 22 22 22 23 23 24 25 26 28 30 32 33 34 34 34 33 32 31 31 30 30 30 30 31 31 31 32 32 32 33 34 36 37 37 37 37 37 37 37 38 38 39
10 12 8 8 13 15 17 19 21 21 20 20 21 21 22 23 24 26 27 29 31 32 32 32 30 28 25 23 22 22 21 21 22 23 24 26 27 27 28 29 29 30 30 31 31 32 34 35 36 37 38 39 39 40
12 9 12 15 16 18 19 18 17 17 18 19 21 23 24 24 25 27 31 33 34 31 28 24 21 19 18 18 18 17 17 16 16 16 17 18 19 20 21 22 23 25 26 28 30 31 33 34 34 35 35 35 36 35
11 14 17 18 19 17 15 14 15 16 19 20 22 24 25 25 27 31 34 36 33 26 21 19 18 18 17 17 17 16 16 15 14 15 15 16 16 17 17 17 18 18 19 20 21 23 24 24 25 25 26 26 27 27
15 18 18 18 15 11 11 12 15 18 20 22 24 26 27 28 30 33 37 36 30 22 18 17 17 16 15 15 14 14 14 14 15 15 16 17 18 18 19 20 20 20 20 20 19 19 19 19 20 20 21 21 22 23

GFSWCAN_500_spd_096.txt.gz
Wind_Speed
44 43 44 35 31 28 22 19 19 18 21 24 24 22 19 18 18 17 14 15 10 7 25 28 29 29 32 26 21 19 18 18 22 21 20 12 21 21 19 12 12 18 22 25 22 23 21 21 25 25 24 23 24 25
41 42 36 30 25 21 17 14 13 13 12 15 19 19 17 16 17 17 16 15 15 12 16 23 27 28 29 30 29 24 26 15 17 21 16 16 13 21 25 20 17 12 14 13 16 15 17 20 23 24 26 24 23 23
40 38 31 26 21 19 16 14 12 12 14 17 18 18 17 17 16 13 11 12 19 16 18 22 23 28 28 28 30 33 21 2 26 25 25 21 21 16 14 16 20 17 13 14 8 12 15 17 18 24 24 26 25 25
38 32 28 23 22 21 19 17 16 16 17 19 20 19 19 17 15 16 13 12 21 18 17 18 24 22 25 29 34 32 24 16 26 26 26 24 24 17 19 18 22 24 18 21 23 25 21 22 22 23 24 23 20 23
31 28 25 23 22 21 21 21 21 21 20 20 21 21 21 19 19 20 17 17 13 15 13 22 23 24 25 29 35 37 30 27 32 30 27 25 22 20 18 19 20 25 21 23 18 22 22 19 19 18 18 24 23 26
25 22 22 21 22 22 21 21 21 24 25 23 22 22 22 21 23 22 24 21 17 14 15 10 11 15 18 24 32 35 36 34 32 34 29 26 22 20 18 17 17 20 27 22 27 25 24 18 18 12 7 10 18 23
17 19 20 21 22 23 22 22 22 23 23 25 26 23 22 22 25 26 23 20 23 17 16 16 15 14 15 17 23 26 33 27 35 32 25 21 24 22 19 21 21 16 17 18 29 28 21 18 18 18 16 11 12 16
15 16 19 22 24 25 26 25 24 24 24 23 24 26 22 21 26 30 31 28 25 20 26 22 16 16 16 18 20 21 23 23 31 28 22 23 29 26 23 24 29 29 29 32 28 25 22 23 21 19 17 17 17 15
11 13 16 19 23 27 27 27 27 26 26 25 22 24 27 24 25 26 28 28 27 25 27 27 21 10 6 14 17 21 20 28 32 26 25 27 27 28 23 24 23 29 30 29 28 26 25 24 22 23 22 21 21 20
11 14 15 18 19 18 23 26 27 27 28 29 25 25 30 24 26 28 25 27 29 29 28 31 20 11 10 7 20 24 23 29 31 28 26 23 20 19 22 19 19 21 28 31 29 27 27 27 27 26 26 25 24 24
9 13 16 17 20 19 22 26 27 29 32 29 25 21 25 26 29 30 27 31 32 27 30 27 26 14 14 14 10 18 19 23 23 21 22 21 21 20 19 17 15 23 24 27 28 28 29 30 30 29 29 29 29 29
10 8 9 16 22 25 23 26 28 31 29 25 24 24 28 30 33 32 30 32 30 25 28 30 21 22 19 11 7 12 16 20 18 15 19 22 19 15 14 14 15 17 21 24 25 27 28 28 29 30 31 33 34 35
12 8 3 14 30 29 26 28 35 29 28 30 30 27 27 29 29 28 28 26 22 12 16 20 22 23 21 22 18 19 21 20 16 15 19 17 14 16 18 18 19 20 23 26 27 29 30 32 33 35 37 38 39 41
20 28 25 31 38 34 29 28 33 31 33 32 31 29 27 25 22 19 11 13 13 14 14 17 21 23 26 26 28 22 23 21 20 19 18 11 14 18 21 23 24 26 27 28 29 31 33 34 36 38 41 44 45 47
26 31 31 32 31 27 28 29 28 28 31 30 29 28 26 24 22 17 12 16 19 20 19 19 20 21 25 27 27 24 22 21 23 21 14 15 17 20 22 25 27 28 31 32 33 34 35 35 36 38 39 41 43 45
26 27 27 27 27 30 29 28 26 25 23 25 26 25 24 19 18 12 14 17 20 18 17 17 16 16 17 22 24 29 30 27 22 18 19 22 25 26 27 29 30 32 34 36 37 37 34 34 37 39 37 36 38 40
31 31 28 27 27 24 22 23 21 19 18 14 15 17 14 17 14 17 17 15 14 15 18 20 20 21 20 24 29 32 29 21 22 22 23 25 27 29 30 32 36 36 34 34 35 34 35 36 35 35 33 32 30 34
23 24 23 19 21 23 22 19 18 15 14 16 18 10 11 17 19 17 14 12 12 10 12 14 16 21 23 24 28 20 19 22 24 25 26 27 29 30 31 32 31 32 35 37 38 38 36 35 32 31 28 29 29 22
14 18 19 20 19 19 20 21 19 17 16 15 14 16 18 17 16 14 12 13 13 11 10 14 14 13 12 16 21 20 21 24 26 26 28 30 30 30 31 29 30 31 32 31 31 32 31 29 28 27 27 25 19 16
14 12 14 16 14 17 17 17 18 15 13 13 12 12 13 14 13 13 14 14 11 10 10 13 14 17 18 20 22 24 24 23 26 28 25 24 24 22 21 23 25 25 20 19 19 22 24 25 25 24 21 21 21 19
17 16 15 13 14 16 16 16 15 16 14 12 11 11 11 13 13 12 11 11 13 14 16 18 21 22 21 21 22 25 25 23 22 20 19 20 22 25 26 25 25 24 24 22 20 19 18 17 19 21 21 22 25 27
16 18 18 17 16 16 15 15 14 12 11 11 8 8 8 9 10 10 12 13 15 16 16 17 18 20 22 24 24 25 25 24 23 24 24 23 22 23 24 24 24 24 23 24 26 27 26 24 23 23 23 22 22 23
15 14 15 17 17 17 16 14 12 10 9 8 8 8 8 9 10 12 12 12 12 14 16 17 19 21 22 23 25 26 27 28 30 30 29 29 28 26 24 24 23 23 25 25 26 26 27 27 28 27 27 27 28 28
12 13 13 13 12 12 10 9 7 6 6 6 6 7 8 9 11 13 15 17 19 20 22 24 26 28 30 32 32 33 34 34 35 34 34 34 32 29 27 26 25 25 24 23 24 25 27 28 29 29 29 29 29 29
16 13 10 8 7 7 7 5 5 4 4 3 2 2 2 4 7 9 11 13 16 19 22 24 25 27 29 30 31 33 34 35 35 34 33 32 32 31 30 30 29 27 27 26 26 26 26 26 27 28 29 30 30 30
17 15 13 11 10 8 6 4 2 2 1 1 2 5 7 10 13 15 18 21 23 26 29 32 34 35 36 37 38 39 40 41 41 42 42 41 41 40 39 38 36 35 34 34 33 32 32 32 32 32 32 32 33 34
13 11 10 9 7 5 3 2 2 3 5 9 12 15 16 17 17 18 19 19 20 22 23 24 26 27 28 29 31 33 34 35 36 37 38 38 38 39 39 39 40 39 39 39 38 38 38 38 38 39 38 39 39 39
9 8 7 7 6 5 4 5 8 10 14 16 17 18 19 20 21 22 24 25 25 26 28 29 31 32 34 35 36 36 37 37 38 38 39 39 39 38 38 36 35 35 36 37 38 39 40 40 41 41 41 41 41 41
6 6 9 6 3 6 9 12 14 16 17 17 18 20 21 22 24 25 24 24 25 28 31 32 34 34 35 34 33 32 31 30 30 30 31 33 34 35 35 34 34 33 33 33 33 34 35 36 36 37 37 38 38 38
6 8 8 7 9 12 14 16 16 16 16 17 19 20 21 22 23 23 23 25 30 32 35 35 33 30 26 23 22 21 21 21 21 21 22 23 24 26 27 29 29 30 30 29 29 30 30 31 32 33 34 34 36 37
11 10 9 10 14 16 17 16 14 14 15 18 19 21 22 24 25 25 26 29 33 36 35 31 25 22 21 20 20 20 20 19 19 18 18 18 18 18 19 20 21 23 24 25 26 27 27 28 29 30 31 32 32 33
11 10 11 15 17 18 16 13 12 14 16 18 21 23 25 26 27 27 29 33 36 37 33 26 21 20 19 19 18 18 17 17 17 17 17 17 17 17 18 18 18 18 19 19 20 21 22 22 23 24 24 25 25 25
12 12 15 17 18 16 12 10 12 14 17 20 23 25 27 28 30 31 32 35 38 36 29 23 20 19 18 18 17 16 15 15 15 15 14 15 16 17 18 19 20 21 22 22 23 23 24 24 24 23 23 23 23 23

GFSWCAN_500_spd_102.txt.gz
Wind_Speed
58 54 49 46 42 37 34 32 31 33 32 31 26 24 23 24 23 14 20 21 19 14 18 21 22 28 30 28 24 19 18 16 13 10 9 10 15 13 11 12 11 14 19 25 26 27 27 31 25 28 28 29 27 27
57 53 49 45 41 37 34 31 31 32 30 26 23 21 19 21 23 21 19 16 14 12 14 15 15 23 29 29 23 25 20 16 15 13 12 15 15 15 10 7 10 21 20 19 17 14 22 27 24 26 25 25 25 23
53 50 47 44 40 37 33 32 33 29 26 22 17 17 15 15 15 16 19 17 12 10 11 4 10 24 23 30 28 28 23 20 19 12 12 11 14 15 10 6 14 13 13 21 23 23 30 28 25 23 27 27 25 23
49 48 45 42 40 36 34 33 32 26 24 16 11 10 13 14 14 16 17 15 13 13 10 7 10 12 22 27 24 28 25 22 17 12 15 19 21 17 13 3 10 8 15 14 15 14 19 22 17 25 30 25 22 23
41 45 44 41 37 35 35 34 28 25 25 20 17 16 16 14 15 16 15 14 13 10 9 6 9 7 11 17 20 27 25 25 26 20 15 17 21 21 12 9 11 10 7 7 13 19 20 19 17 20 22 25 19 18
35 43 40 38 36 37 36 28 27 27 27 24 23 21 19 17 17 18 16 13 11 10 14 12 13 12 13 18 20 23 26 28 20 16 18 14 18 20 13 11 4 14 13 15 5 8 13 22 22 23 22 15 10 17
34 40 37 37 37 35 28 27 28 27 28 25 23 21 20 20 18 17 13 17 14 11 6 10 10 12 12 15 17 19 22 24 22 18 17 16 16 18 14 12 14 15 20 18 5 9 13 14 18 20 23 24 19 18
33 37 36 34 29 26 27 27 26 25 24 23 21 22 21 21 20 17 13 17 14 11 8 10 11 10 7 9 12 15 20 27 23 17 12 13 18 20 17 17 17 20 22 22 13 21 20 25 19 20 21 22 25 22
31 30 28 27 25 25 25 23 24 23 21 19 17 19 22 23 21 17 17 19 16 12 10 16 14 10 9 3 5 12 17 26 23 18 14 16 17 22 18 21 20 22 25 24 26 21 29 27 32 23 23 25 26 23
25 24 25 26 25 25 25 25 25 25 23 23 25 20 19 15 19 21 23 22 18 16 21 18 13 10 9 11 8 7 16 20 25 23 25 23 21 23 21 25 25 26 31 29 29 30 32 33 33 35 31 29 29 27
25 25 25 25 25 25 26 27 28 28 29 25 20 17 13 20 22 24 26 29 24 21 19 17 13 13 11 10 7 8 11 11 11 17 20 20 20 18 15 19 28 30 33 37 39 35 32 34 33 30 31 33 31 29
22 25 26 27 25 24 24 26 28 26 23 18 16 16 17 21 26 29 31 30 28 22 17 14 16 13 13 10 3 1 10 6 6 11 13 12 11 13 13 15 20 22 26 31 36 37 37 37 39 40 38 34 32 32
20 24 26 25 25 27 25 21 23 26 24 24 22 19 18 25 30 30 32 27 26 22 17 18 19 18 14 12 10 6 10 8 8 11 12 6 5 8 12 16 18 20 21 22 26 32 36 36 35 32 32 34 34 34
24 27 28 28 26 29 26 21 23 26 24 25 23 21 20 24 28 27 22 14 15 18 19 22 24 24 18 17 13 13 16 15 13 13 7 9 10 11 13 15 16 19 19 19 20 22 24 25 26 27 28 30 30 31
27 31 31 33 31 28 26 23 25 26 27 24 20 19 16 18 21 19 15 17 18 18 17 18 19 23 24 24 26 21 18 19 16 14 20 16 15 18 18 19 18 18 18 18 20 22 23 24 26 29 31 32 34 35
38 36 36 34 32 30 29 28 28 27 23 20 15 13 11 13 18 19 18 16 19 18 16 15 17 22 27 27 28 29 27 25 23 22 21 21 24 24 22 22 23 23 24 26 28 29 31 32 34 36 37 39 40 40
35 37 38 36 33 31 30 31 30 27 22 17 13 11 11 12 12 12 12 10 12 15 14 14 15 19 22 23 22 23 22 21 23 25 23 23 22 22 24 25 25 25 27 29 30 31 32 33 35 37 40 42 43 43
35 39 37 32 30 29 26 28 26 22 15 12 12 11 8 8 10 13 14 12 9 9 12 12 14 17 17 15 15 17 19 18 15 23 25 23 23 25 25 26 27 28 28 29 29 29 30 31 32 31 32 34 35 36
34 32 29 27 27 24 24 24 20 17 14 13 13 12 11 12 13 13 11 10 11 12 13 14 16 17 18 19 21 22 22 22 23 21 30 34 31 30 28 29 31 31 31 30 29 28 25 24 26 29 27 26 26 28
28 30 28 28 27 26 24 23 17 15 17 17 14 12 13 13 12 12 12 13 12 12 16 17 14 12 12 15 17 20 21 20 19 20 27 29 28 31 32 32 30 31 29 28 29 30 31 31 31 30 28 26 23 21
23 22 20 19 19 19 19 18 16 16 14 10 8 9 10 10 10 11 12 13 15 16 15 16 17 17 16 18 18 20 22 24 23 23 26 30 32 31 30 31 31 32 30 29 29 28 29 30 30 28 27 27 25 24
16 16 17 17 17 16 16 14 14 13 11 10 9 8 8 8 9 10 11 12 12 14 16 18 20 22 23 25 26 28 29 31 32 32 31 30 31 34 33 34 34 33 33 31 31 30 29 29 28 27 27 26 26 26
16 16 15 15 15 15 14 13 12 10 9 8 7 6 6 7 9 11 12 14 15 17 18 20 22 23 25 26 28 30 30 31 32 33 33 34 34 35 35 35 35 35 35 35 35 35 34 33 33 30 28 26 26 26
17 15 14 13 12 11 10 9 8 6 6 5 6 6 7 9 11 12 14 16 18 20 21 23 26 27 29 30 31 33 34 36 38 39 39 40 40 40 40 40 40 40 40 40 40 39 38 37 35 34 32 31 30 30
16 15 14 13 11 10 9 6 5 4 5 6 7 7 8 10 11 12 14 16 18 20 22 25 27 29 31 34 35 37 39 40 41 42 43 43 44 44 44 44 43 42 41 39 38 38 37 36 36 36 36 36 36 35
13 12 11 10 9 8 7 7 5 4 2 1 3 6 10 13 16 17 19 20 22 23 24 25 28 29 30 31 32 33 35 37 39 39 40 41 40 40 40 41 41 42 42 43 44 44 44 43 43 42 42 42 42 41
12 10 9 7 6 4 3 3 3 0 3 6 8 10 11 11 13 14 15 15 16 18 20 21 22 24 27 31 34 36 38 39 40 41 43 44 44 44 43 42 41 41 41 41 40 39 39 39 40 41 42 42 43 43
11 8 6 5 5 5 3 2 4 6 8 9 9 10 11 13 14 15 17 19 21 22 24 26 28 31 34 36 37 39 39 38 35 33 31 31 31 32 33 34 35 35 35 35 36 36 37 38 38 38 38 38 38 39
6 5 4 3 1 1 3 6 8 10 11 10 11 12 12 14 15 17 19 21 22 24 26 27 29 31 34 36 36 32 27 25 24 23 23 23 23 23 23 23 23 24 25 26 28 29 30 31 32 33 34 34 34 34
1 2 2 3 4 5 6 8 10 11 11 11 11 13 14 16 17 19 21 22 24 26 27 28 31 33 34 32 26 22 21 21 21 21 21 20 20 21 21 21 20 20 20 20 20 21 22 24 25 27 28 29 29 30
5 5 5 5 7 8 9 11 12 12 11 11 12 13 15 16 18 21 23 25 28 30 30 31 34 36 33 26 21 20 20 20 18 18 17 17 17 17 17 18 18 19 18 17 17 17 17 18 19 20 21 23 24 25
9 8 8 8 10 10 11 13 13 13 12 12 13 14 15 17 20 23 26 28 32 33 33 34 37 36 30 24 21 20 19 18 16 16 15 15 14 14 14 14 15 16 17 17 17 18 19 20 20 20 20 21 22 23
12 12 12 13 12 12 13 14 15 14 13 13 13 14 15 17 21 25 28 30 34 36 36 37 38 36 29 23 20 19 19 18 16 15 15 14 14 14 13 12 12 12 13 13 14 15 16 17 18 19 20 20 20 21

GFSWCAN_500_spd_105.txt.gz
Wind_Speed
60 63 62 57 52 48 44 39 35 33 31 29 30 29 28 28 28 23 25 20 18 16 18 21 23 21 24 25 25 25 22 18 15 9 6 10 11 14 16 13 4 13 21 28 27 29 28 30 29 28 28 30 24 22
47 55 58 57 52 48 44 40 36 33 31 30 30 27 26 27 26 19 20 19 15 11 15 19 18 19 23 28 26 25 21 18 18 15 10 9 10 12 16 10 5 13 19 20 26 21 20 25 27 27 25 27 24 25
49 39 48 54 50 47 44 41 37 34 31 31 27 24 23 24 17 13 16 16 12 13 18 15 15 14 17 25 26 22 22 21 20 17 15 10 10 7 13 12 6 6 14 16 21 23 23 28 25 24 22 27 22 19
47 44 41 48 48 46 44 40 38 34 33 30 23 21 21 16 12 12 14 13 13 15 14 16 7 4 12 20 21 23 26 23 22 16 15 14 14 12 17 8 14 5 9 17 21 23 23 24 19 23 24 19 25 21
49 44 37 43 44 44 43 41 39 36 34 26 22 20 13 13 14 15 13 11 13 14 15 12 7 4 2 10 18 23 28 26 23 22 16 14 15 17 19 8 6 11 15 16 17 15 15 18 23 23 24 27 25 23
47 41 35 39 42 41 41 39 37 35 30 24 23 24 20 18 18 16 13 10 9 13 12 8 7 8 6 5 12 19 28 26 25 23 17 12 13 16 21 10 4 9 18 14 5 10 14 17 20 21 19 19 21 24
45 40 32 38 41 39 41 38 36 30 25 25 24 26 23 22 17 10 10 11 11 11 10 13 13 10 8 7 9 11 20 23 27 28 13 13 16 14 17 11 5 10 15 13 17 13 15 8 18 25 25 20 19 17
43 37 31 39 40 38 41 36 29 26 25 24 24 24 23 22 20 14 13 14 14 12 11 11 8 7 7 5 6 9 15 23 28 22 15 14 16 14 15 11 9 8 11 18 8 7 18 20 30 30 28 27 26 24
38 31 32 42 40 38 35 28 28 25 24 21 21 23 25 24 16 18 17 16 17 16 6 12 12 10 11 7 1 5 13 22 27 20 16 14 11 11 12 12 13 13 14 15 17 13 9 13 14 21 20 20 18 14
30 32 41 42 35 30 31 28 26 26 26 25 25 24 19 14 18 19 20 18 20 13 13 16 13 9 8 5 3 3 14 23 26 19 18 15 13 12 14 15 16 19 19 21 23 24 24 19 19 23 21 22 25 22
36 38 38 34 33 31 30 31 32 30 28 29 24 16 15 17 18 22 23 19 15 19 20 15 11 10 6 10 7 6 12 17 18 20 23 21 18 14 17 19 19 23 23 23 26 28 28 29 31 30 30 28 24 25
34 34 34 33 35 35 34 33 33 34 30 20 16 16 15 18 23 24 24 25 24 24 21 16 13 10 10 6 9 4 7 9 7 17 22 18 14 15 19 19 23 28 29 29 29 29 32 36 36 39 37 33 32 30
35 36 36 35 34 31 31 32 34 31 26 23 22 21 18 20 26 26 23 23 24 21 20 17 15 12 11 10 7 0 11 8 5 9 7 11 14 18 20 21 25 29 31 32 32 34 34 36 39 40 41 40 39 39
33 34 33 32 32 31 31 31 31 31 28 26 24 23 22 22 19 19 16 13 22 23 25 19 16 17 16 13 10 8 11 11 12 9 12 7 13 12 13 15 18 20 22 23 23 23 25 27 28 31 34 35 35 35
30 32 34 32 32 30 29 30 32 29 28 27 25 22 19 13 13 14 12 16 18 23 21 21 21 23 24 18 19 17 15 16 13 12 14 14 13 16 15 15 16 17 18 18 19 20 20 21 23 24 26 27 28 29
33 33 32 32 34 31 28 27 27 27 29 24 17 11 11 11 13 14 14 14 16 15 14 15 17 19 24 26 26 26 25 23 22 20 19 19 20 23 24 23 22 22 22 23 23 24 25 26 27 28 30 31 32 33
36 35 34 34 33 30 27 28 29 28 22 16 11 10 9 10 13 16 16 14 16 15 15 15 13 13 15 19 19 22 23 24 25 25 25 24 25 27 28 27 27 28 27 27 26 27 28 30 30 31 33 34 35 35
37 37 34 33 33 31 25 25 25 21 18 16 13 11 13 16 16 16 16 14 13 15 15 14 15 15 16 16 16 19 19 20 22 23 22 22 24 26 26 25 26 27 26 27 27 28 29 30 30 30 31 31 32 31
37 36 35 33 33 32 30 27 25 20 17 18 17 14 14 15 16 15 14 12 12 13 15 17 17 14 15 17 20 22 22 24 25 26 25 25 23 29 32 33 31 30 33 31 31 30 31 30 30 30 28 29 30 30
34 32 31 31 31 30 27 24 21 19 18 15 12 10 11 12 13 13 12 12 12 12 11 10 11 13 16 18 20 21 21 21 22 23 25 26 26 29 30 33 37 34 32 33 32 31 29 28 29 29 30 31 31 31
29 29 29 30 29 27 24 21 18 17 16 15 13 11 11 11 11 11 11 11 11 11 12 13 15 17 19 20 19 20 22 21 22 24 26 28 29 29 29 31 36 38 37 35 34 32 30 30 29 30 30 29 28 29
23 23 22 21 20 18 18 17 18 17 13 11 10 10 9 9 9 10 10 12 14 17 18 19 19 20 22 23 25 26 28 30 31 32 34 35 35 37 38 36 35 35 37 37 36 35 34 33 34 32 32 32 32 30
22 21 20 19 18 16 15 14 13 11 9 7 7 6 6 7 8 9 10 12 14 16 18 20 22 24 26 28 30 31 33 34 35 35 36 36 36 36 36 37 37 38 38 37 37 37 37 37 38 38 37 36 36 35
18 17 17 16 15 14 13 10 8 7 6 5 5 5 6 8 10 11 14 16 17 19 21 24 25 27 29 31 32 33 35 36 37 38 39 40 40 41 41 40 41 41 41 41 41 41 41 41 41 40 39 38 38 37
15 14 13 11 11 9 8 7 5 4 3 3 4 6 8 10 12 12 14 16 18 21 23 24 25 26 28 29 29 31 31 32 32 33 34 35 36 37 38 39 39 40 40 41 42 43 43 42 42 41 40 39 38 38
14 13 12 9 8 7 5 5 5 4 3 1 3 5 9 13 15 16 17 18 19 20 21 22 23 24 25 27 28 30 33 35 38 39 41 42 43 44 44 43 42 41 41 41 41 40 40 40 40 41 41 42 42 42
10 9 8 8 8 8 6 5 4 2 2 5 7 9 11 12 13 15 16 16 18 19 21 22 23 25 27 29 32 34 36 38 40 42 43 42 41 40 40 39 38 38 37 37 36 37 39 40 40 40 39 39 39 39
9 7 6 5 4 5 6 3 1 2 5 7 9 10 11 13 14 15 15 16 18 20 22 24 26 28 29 31 34 37 39 39 37 31 28 26 25 25 25 25 25 26 26 27 27 29 30 33 35 36 37 37 38 38
6 5 4 5 5 4 3 3 4 5 7 9 10 12 12 13 14 14 16 18 20 22 24 27 28 29 30 33 35 36 33 27 23 22 22 22 22 22 22 22 23 22 22 21 21 21 22 23 25 27 29 30 31 31
3 2 3 3 4 4 4 4 5 7 8 9 11 12 12 13 13 14 16 19 23 26 27 29 30 31 34 36 35 29 24 22 21 20 18 18 18 18 18 18 18 19 19 20 19 19 18 18 19 20 21 22 23 25
3 3 3 4 5 5 6 6 7 9 10 11 12 12 13 13 13 14 17 21 25 29 32 33 34 34 37 37 32 25 21 20 20 18 16 16 15 15 15 15 14 14 15 16 17 17 17 17 17 17 18 18 18 19
7 7 6 6 7 8 9 8 9 10 12 13 14 14 14 14 15 16 19 23 26 30 34 36 37 37 39 38 31 24 21 20 19 19 17 16 16 15 15 14 13 12 11 12 13 14 15 16 17 18 19 20 20 21
13 13 13 13 11 10 11 11 11 12 13 15 15 16 17 18 19 20 23 25 28 31 35 38 40 40 40 39 32 25 22 21 20 19 18 17 16 16 15 15 14 13 13 12 12 12 12 12 13 13 14 15 16 16

GFSWCAN_500_spd_108.txt.gz
Wind_Speed
68 67 67 66 64 59 54 49 44 42 39 37 35 32 30 30 31 30 29 28 27 19 20 21 19 20 22 25 23 23 20 22 20 13 10 4 8 9 11 11 13 18 18 15 20 29 26 22 16 15 11 10 14 14
56 55 54 54 54 56 56 50 45 42 39 36 34 31 30 30 29 28 26 26 17 15 15 18 18 20 21 23 21 23 19 16 15 13 17 3 5 6 10 14 10 2 13 15 14 21 21 23 19 17 15 16 18 19
54 51 48 45 46 50 50 50 47 43 40 37 34 31 31 28 27 25 23 13 12 11 16 17 18 19 20 21 19 22 23 20 16 15 17 11 10 5 16 20 14 13 6 7 14 19 20 19 18 17 12 14 14 18
57 52 47 44 40 44 50 49 47 43 40 38 35 32 31 25 25 21 17 10 10 14 19 19 16 14 15 11 14 21 24 21 19 18 18 14 15 7 9 16 5 14 8 10 9 14 22 20 18 15 12 16 18 21
52 51 47 43 41 39 46 46 46 43 41 37 35 33 27 23 21 18 14 10 13 15 16 12 13 12 5 3 11 18 24 23 22 21 19 15 13 11 7 15 4 17 8 8 8 15 19 18 16 16 20 20 14 19
49 49 46 42 41 36 42 43 44 42 41 38 36 31 25 21 19 15 10 11 12 12 13 14 10 10 6 2 6 15 22 23 22 24 21 14 13 13 13 17 9 10 8 9 15 15 16 15 19 23 26 27 24 23
47 46 44 41 38 35 40 40 38 39 36 36 32 27 25 24 18 13 14 9 9 8 9 9 12 9 7 6 6 8 16 23 24 25 20 14 14 14 13 18 15 4 7 10 14 8 21 21 15 20 31 27 26 20
47 47 43 39 33 37 37 37 37 36 33 28 26 25 23 22 20 15 11 11 10 11 9 6 7 8 6 4 5 7 10 17 23 23 21 15 10 8 7 13 14 7 4 9 10 13 14 21 30 27 23 26 21 16
46 43 42 37 35 40 36 37 36 31 27 28 25 24 25 22 17 16 16 15 14 15 6 5 9 7 6 5 4 4 10 16 19 18 21 15 10 7 9 12 14 11 9 9 9 4 5 12 20 23 26 29 19 17
45 45 41 36 40 40 37 37 32 30 29 26 27 27 21 17 21 19 19 19 18 18 8 8 10 10 7 3 3 2 7 15 17 20 20 12 8 8 7 9 12 15 14 13 10 11 11 7 9 9 11 15 17 16
47 44 39 37 44 40 35 34 34 30 30 28 24 19 20 21 18 20 22 20 17 8 12 15 14 10 5 8 5 7 7 9 12 16 15 11 9 12 14 15 15 15 18 17 17 17 15 13 15 17 19 20 20 21
41 38 37 44 41 35 36 35 34 32 28 25 21 19 19 21 21 25 25 20 13 15 18 16 12 10 5 6 7 6 3 5 8 16 18 19 19 18 18 18 17 18 20 20 21 22 21 21 23 24 27 29 31 30
35 40 45 41 39 37 37 37 33 30 28 24 22 20 17 20 25 23 16 15 15 17 20 16 12 9 7 3 4 1 6 6 5 8 10 7 11 13 14 15 15 17 21 23 24 25 25 26 26 27 28 30 33 36
45 43 40 39 41 43 39 34 32 29 25 23 21 20 20 17 9 6 10 15 20 21 23 20 16 12 9 10 9 6 6 8 7 8 7 10 8 11 12 15 18 20 21 23 24 25 26 28 28 30 31 31 32 34
40 42 44 43 41 39 36 31 30 29 25 23 18 17 17 11 8 7 12 14 20 25 24 22 19 15 14 14 13 12 9 9 10 11 13 12 13 12 15 14 14 15 17 20 22 24 26 27 26 27 27 28 29 29
43 41 41 37 35 34 33 32 29 29 25 20 17 15 12 11 10 11 15 16 21 27 24 22 19 20 20 21 19 18 18 17 19 20 18 18 17 18 20 21 21 20 19 21 22 24 25 25 25 25 26 26 26 27
37 35 36 35 32 33 35 31 28 28 27 23 16 13 12 13 14 13 15 16 18 19 17 19 19 21 16 18 20 22 23 23 24 24 24 23 22 23 23 26 28 29 29 29 30 29 29 28 27 28 30 31 32 31
35 34 37 33 30 29 31 29 28 23 20 18 14 10 11 12 14 16 17 14 14 15 17 18 19 18 16 13 14 17 19 21 21 21 21 22 23 23 24 25 27 30 30 30 30 29 28 27 29 31 32 32 32 32
35 37 35 31 30 30 30 27 23 22 21 19 15 15 16 18 17 17 14 13 13 15 17 19 20 18 17 17 16 18 20 22 24 24 25 26 27 27 28 29 28 29 31 32 35 34 33 34 33 33 32 32 31 31
34 34 36 32 29 28 26 25 25 23 20 16 16 13 13 15 14 13 12 12 12 12 13 14 15 14 15 16 18 19 19 21 23 24 25 25 23 23 23 23 25 27 31 35 38 42 40 38 35 33 31 31 30 29
31 31 30 27 26 25 25 22 20 20 18 16 14 13 11 10 9 9 10 11 13 13 13 13 14 15 17 19 21 23 23 24 25 26 27 28 29 29 30 30 31 33 34 34 35 36 38 39 38 36 35 33 32 31
28 28 28 28 27 25 21 19 17 15 13 14 12 10 9 8 9 10 11 11 12 14 17 19 21 22 23 24 25 26 27 28 31 32 34 35 36 36 37 38 39 40 40 40 38 37 36 37 37 38 37 36 35 34
24 23 22 21 19 17 15 15 15 12 11 10 9 8 7 7 8 9 11 13 14 15 17 18 20 22 24 25 28 30 32 34 35 37 38 39 40 41 42 42 42 42 42 42 41 41 40 40 40 40 39 39 39 39
22 21 19 18 17 16 16 14 12 10 8 7 5 4 4 6 8 10 11 14 16 17 19 21 23 25 27 28 30 31 33 35 36 37 37 38 39 40 40 41 41 42 42 43 44 44 44 44 44 43 43 43 42 42
19 17 17 15 14 13 10 8 7 6 5 3 3 4 5 7 8 10 13 16 18 18 19 19 20 21 23 24 26 29 31 32 34 36 37 38 40 41 42 42 43 43 43 43 43 43 43 43 43 44 44 44 44 44
15 14 13 12 11 9 8 6 5 4 3 1 2 4 8 11 12 13 15 17 17 18 19 20 20 21 23 25 27 30 32 33 35 37 40 42 43 45 46 46 46 46 46 45 44 44 44 44 45 45 45 45 44 43
11 11 9 9 8 7 7 6 5 2 1 3 5 7 9 10 12 13 14 15 15 17 18 20 22 25 27 29 30 32 35 38 40 43 43 41 37 34 33 33 33 33 33 33 34 35 36 38 40 42 43 43 43 44
9 8 8 7 6 6 5 4 3 2 2 5 7 8 10 12 13 13 13 14 14 16 20 23 25 27 28 30 32 35 37 40 40 36 30 27 27 26 26 26 26 26 27 26 26 25 25 26 27 29 32 34 36 37
7 6 6 4 4 5 5 5 5 4 5 6 8 10 12 13 14 14 14 15 17 20 22 24 28 31 32 32 34 38 40 37 29 25 24 24 23 21 21 21 22 22 22 23 23 23 23 22 21 21 22 23 25 27
4 2 3 4 5 7 6 6 7 7 6 7 9 11 12 13 14 15 15 17 19 22 24 27 29 33 36 38 39 41 39 32 26 23 22 22 19 18 17 17 17 17 17 17 18 18 19 19 19 19 18 18 19 19
5 4 4 6 7 7 7 8 8 8 8 8 10 12 13 14 16 17 18 20 22 25 26 28 31 34 37 42 42 43 39 31 25 24 23 22 20 19 18 18 17 16 15 14 14 14 15 16 17 18 18 19 19 19
6 6 6 5 5 8 9 9 9 9 9 10 11 13 15 16 18 20 21 23 25 27 29 30 32 35 37 41 44 43 40 31 27 25 24 22 21 20 19 18 17 16 16 15 14 14 14 13 14 14 15 16 17 18
12 11 12 13 13 14 11 10 11 11 12 12 13 14 16 18 20 22 24 26 28 30 31 32 33 36 38 40 43 43 40 33 29 27 25 23 22 20 19 18 17 17 16 15 15 15 15 15 15 14 14 14 14 15

GFSWCAN_500_spd_111.txt.gz
Wind_Speed
75 74 69 67 65 63 61 58 54 50 46 41 38 35 33 31 29 28 29 28 30 28 29 26 20 22 19 17 16 18 19 18 14 15 13 8 4 4 6 5 7 8 7 8 12 15 11 17 10 6 9 11 14 15
61 64 65 64 62 60 57 55 52 48 45 42 38 35 32 31 29 28 29 29 28 25 20 16 18 17 14 14 16 20 19 18 14 12 11 12 8 8 10 12 12 7 5 9 13 17 14 19 17 8 8 8 6 9
58 53 55 54 55 55 53 52 48 46 45 40 38 36 33 32 30 29 29 26 24 17 17 17 17 14 16 18 20 18 20 18 14 13 13 17 10 5 7 12 11 14 10 8 14 22 21 20 22 15 14 11 10 7
53 54 48 47 45 46 49 50 50 47 44 43 39 37 34 33 30 29 26 24 20 16 16 16 15 14 16 17 19 14 15 17 17 15 17 18 14 8 3 6 4 6 4 3 10 19 18 24 20 17 18 13 12 14
48 52 50 43 42 40 40 45 50 47 46 45 42 38 35 32 30 27 24 21 18 16 13 12 12 12 14 14 9 10 14 18 19 16 19 18 16 10 6 0 1 9 6 3 5 8 10 21 22 22 23 22 20 14
46 50 51 47 42 39 37 36 42 42 43 43 41 38 35 33 30 22 19 17 17 12 11 10 8 5 7 8 7 7 13 16 17 16 19 17 14 12 4 4 6 6 14 22 1 10 14 19 24 23 21 18 23 13
44 48 51 47 42 40 37 33 38 41 41 40 37 36 34 32 22 18 18 17 12 11 9 6 3 3 4 9 8 6 11 15 17 17 18 18 16 9 7 7 10 7 5 12 7 8 14 18 21 26 27 26 27 25
46 44 37 43 42 38 36 32 38 37 37 36 33 33 31 24 23 19 19 17 16 14 9 4 3 1 0 1 2 3 5 9 13 17 18 19 14 6 9 7 11 10 3 6 13 11 14 19 25 24 24 28 29 25
45 49 45 43 43 37 33 37 36 36 35 33 30 27 24 22 20 22 19 18 15 9 5 10 8 4 4 3 2 1 6 9 11 14 17 17 13 7 12 7 5 8 7 2 6 9 10 9 17 21 30 30 26 24
44 51 43 43 39 36 38 37 37 35 33 31 28 25 20 20 24 22 21 19 16 6 7 6 5 7 11 6 2 1 4 4 8 13 14 12 10 13 12 9 7 8 12 10 3 1 2 3 6 18 20 22 29 26
44 51 46 43 39 41 39 37 36 34 32 30 26 22 23 25 23 23 22 19 12 3 9 11 11 11 7 8 0 3 2 5 5 13 13 12 9 12 12 9 8 10 10 13 11 5 5 6 5 5 7 10 8 11
46 47 44 40 43 40 36 35 33 32 28 26 25 25 25 24 24 23 22 20 13 7 11 12 15 11 8 5 8 7 5 2 6 10 13 14 12 12 12 13 12 12 12 12 12 12 11 12 13 13 15 14 14 14
48 45 42 44 43 38 36 37 33 33 30 27 24 23 28 27 24 22 17 12 10 8 16 16 13 9 6 4 3 3 4 2 2 2 5 5 7 10 14 16 14 14 15 15 13 14 16 19 19 19 19 20 20 20
44 40 44 46 40 39 37 32 35 33 30 26 24 24 25 18 11 5 7 8 12 15 19 18 14 11 8 5 7 4 2 7 7 6 4 5 6 8 8 9 10 12 14 16 16 16 16 17 18 18 19 20 21 22
40 48 47 43 42 35 35 38 34 31 29 25 21 16 13 11 8 4 6 11 15 20 20 20 17 13 10 7 7 10 8 7 8 9 9 10 10 9 11 11 13 13 13 13 13 14 15 16 17 17 18 19 21 23
50 46 45 41 39 42 38 34 31 27 21 18 16 13 9 7 5 6 7 14 17 23 24 20 17 14 14 14 13 13 13 14 16 17 16 17 17 16 16 15 17 20 21 20 19 19 20 20 20 20 21 22 23 24
43 44 47 45 41 37 33 28 25 20 16 14 11 8 8 8 8 10 11 15 18 26 23 21 19 13 17 15 13 16 17 20 23 23 24 20 18 21 19 18 20 23 25 28 29 31 31 29 29 29 29 29 28 30
47 44 42 38 34 32 28 25 21 18 13 10 9 9 8 10 11 12 13 15 15 18 21 21 23 24 20 16 16 16 17 19 21 21 21 21 22 21 22 22 22 23 23 24 26 29 30 30 30 30 30 30 31 32
39 36 33 31 29 26 28 22 18 16 13 13 12 11 12 11 11 12 14 15 14 16 18 21 23 23 23 21 19 18 19 21 23 23 23 25 25 26 26 27 28 29 30 31 31 31 31 32 33 33 34 35 34 34
33 31 30 31 28 27 26 22 19 18 17 15 14 10 7 6 5 8 10 9 9 10 11 11 13 15 17 19 21 20 20 22 24 24 23 23 23 24 25 25 26 27 28 28 28 28 29 30 31 32 34 37 40 38
31 31 30 30 29 25 23 23 22 20 17 13 12 10 9 8 8 7 8 9 10 9 10 12 15 17 17 17 19 21 23 25 26 27 29 29 29 30 30 31 32 33 34 35 36 36 37 37 38 39 37 36 36 37
28 29 29 29 27 24 22 19 17 16 14 12 9 7 7 8 8 8 7 8 9 11 12 13 16 19 22 25 27 28 29 30 31 32 33 34 35 36 38 38 39 39 39 39 40 40 40 41 40 39 39 39 39 38
23 27 28 27 24 20 17 14 12 10 9 8 8 8 6 6 5 6 8 10 12 14 15 17 18 20 22 23 25 27 28 30 32 33 35 37 39 40 41 42 43 44 44 44 45 45 45 45 45 45 44 44 43 42
23 21 19 17 15 14 14 15 13 11 10 8 7 5 4 4 5 7 9 11 13 14 16 17 19 20 22 23 23 24 25 27 29 30 32 34 36 38 39 40 41 42 42 43 43 43 43 43 43 43 44 44 45 45
21 19 18 17 16 15 14 13 11 10 8 6 4 3 3 3 4 7 10 11 11 12 13 15 16 17 18 20 22 24 25 27 29 31 33 36 38 40 42 44 44 45 45 46 46 47 47 47 48 48 48 47 47 46
18 18 17 16 14 12 10 9 7 6 4 3 2 2 5 6 7 9 10 11 12 13 13 13 15 17 19 21 23 24 26 29 32 34 38 41 42 41 40 38 38 38 38 40 40 41 41 42 42 43 44 45 46 47
14 12 11 10 10 9 8 7 7 5 3 0 2 5 6 8 10 11 11 12 13 15 16 18 20 22 23 25 27 30 33 35 37 40 42 39 33 29 27 27 26 27 27 27 27 28 28 28 28 29 30 32 35 37
11 11 9 8 8 7 6 5 2 1 2 3 5 6 8 10 11 12 12 14 15 17 18 21 23 24 26 28 31 34 38 40 41 43 38 30 27 26 25 24 23 23 23 23 24 24 25 25 25 25 25 25 25 26
9 8 7 6 5 5 4 3 4 5 6 5 6 8 9 11 12 13 14 15 17 19 21 24 26 27 29 31 33 36 39 43 42 42 33 28 26 25 24 23 21 20 20 19 19 19 20 20 21 21 22 22 23 23
5 4 5 4 4 5 6 6 6 7 8 8 8 9 10 11 13 14 15 17 19 21 24 26 29 31 32 33 35 36 40 43 42 40 32 28 27 25 24 23 22 21 21 20 18 17 16 16 17 17 18 19 19 20
5 4 4 4 4 5 6 7 8 10 10 10 11 11 11 12 13 15 16 19 21 24 26 29 31 33 34 34 35 36 39 42 42 40 33 29 27 25 24 22 21 21 20 19 18 18 17 15 15 14 15 15 16 17
7 7 7 6 5 5 6 8 9 11 11 11 12 12 13 13 14 16 18 20 22 24 27 28 30 32 34 34 34 36 39 42 43 40 34 30 27 24 22 21 20 19 19 18 17 16 16 16 16 16 15 15 15 15
12 11 10 9 8 10 12 11 11 11 11 11 12 14 15 16 16 18 19 21 23 25 27 27 30 33 34 34 33 36 39 42 42 39 33 29 27 24 21 20 19 18 17 17 17 16 16 15 15 15 15 15 15 15

GFSWCAN_500_spd_114.txt.gz
Wind_Speed
70 73 70 67 65 63 62 60 58 52 49 45 42 39 36 34 30 27 27 25 25 27 28 27 28 28 18 18 16 14 16 16 14 11 14 11 7 5 6 8 11 8 5 8 9 7 9 7 9 20 21 18 10 15
63 63 66 66 65 63 58 56 58 56 51 48 44 39 35 32 29 27 27 25 25 27 27 25 26 17 13 13 13 16 15 16 17 14 15 14 12 9 8 11 11 11 6 7 10 13 11 11 12 13 24 15 10 14
62 62 59 58 60 59 53 56 56 51 47 44 42 39 35 33 29 29 29 27 27 27 24 23 22 15 18 17 18 19 20 21 18 15 16 19 16 12 11 10 7 13 14 15 13 18 17 16 16 14 14 9 10 7
48 55 58 56 51 53 54 56 53 49 45 42 38 35 33 32 32 31 31 29 28 25 22 24 19 18 19 18 18 19 20 13 17 18 18 20 19 13 12 11 7 7 3 13 14 20 25 25 24 22 19 12 7 8
39 41 51 52 50 46 49 51 50 50 48 44 41 38 36 34 34 33 31 30 24 21 22 16 17 16 17 16 16 14 10 14 18 19 17 20 21 17 9 9 8 10 4 14 9 8 18 21 30 31 27 22 15 13
41 39 41 50 49 43 42 44 43 44 47 46 45 44 41 38 35 33 29 26 22 20 18 16 16 15 15 14 11 8 9 13 16 18 17 18 22 19 8 6 3 3 5 15 4 15 15 5 22 30 32 27 17 19
36 42 38 47 48 43 39 37 38 39 41 40 45 42 42 38 34 29 24 25 21 18 17 16 14 13 12 9 9 8 8 13 15 17 17 19 21 18 11 7 5 5 6 8 8 12 17 13 21 29 32 33 18 24
34 42 44 47 44 42 40 37 38 42 42 37 37 38 37 35 33 25 23 21 21 20 18 15 12 10 10 8 5 4 5 8 12 15 17 18 19 17 11 10 8 9 5 6 9 10 14 18 18 29 33 37 32 27
37 47 49 57 54 45 38 36 37 38 33 33 34 35 34 29 25 26 24 22 21 16 14 12 7 10 9 7 6 4 2 2 4 9 15 16 16 13 14 9 10 7 7 0 10 13 14 18 21 25 28 31 28 29
45 50 59 53 43 37 37 35 31 33 34 33 34 32 25 26 28 25 23 22 16 12 10 6 7 8 9 11 6 4 5 4 3 6 9 12 13 15 14 15 11 8 5 7 4 6 12 16 16 18 18 20 21 25
48 56 61 55 49 42 34 31 33 35 34 31 30 31 30 28 25 24 24 22 15 14 13 8 8 14 13 10 5 3 4 3 5 6 11 13 14 15 17 17 13 10 9 7 4 6 1 3 6 13 16 15 12 14
50 48 47 48 42 36 35 38 36 31 32 35 31 30 28 26 25 26 27 20 16 16 16 12 16 15 13 9 5 5 7 5 5 5 7 9 10 9 12 16 15 11 12 11 10 7 6 4 3 4 3 5 6 6
46 45 40 40 40 40 41 38 38 40 37 33 32 32 28 28 28 27 21 15 16 18 15 16 17 14 10 6 5 3 1 6 4 3 5 6 7 10 13 15 16 16 15 15 15 15 14 11 12 12 12 13 14 14
49 42 43 43 45 42 40 43 43 37 36 35 32 32 29 25 18 14 14 14 18 16 16 18 17 14 8 6 9 5 6 7 8 7 10 10 8 8 8 8 12 12 14 15 17 17 17 16 16 16 16 16 16 17
44 45 49 47 45 46 46 41 39 42 40 32 27 23 19 15 14 11 13 16 14 17 18 19 18 15 10 6 7 9 7 6 5 6 6 6 10 10 9 11 10 11 13 13 15 16 17 18 18 18 18 18 18 19
50 53 48 47 47 43 38 41 41 36 30 26 23 20 19 17 14 11 9 11 18 22 23 21 19 15 12 10 8 9 9 11 14 15 15 16 15 14 16 16 15 16 17 18 19 20 20 20 20 20 21 22 23 23
50 47 48 42 39 40 42 39 36 30 27 25 21 18 15 13 10 8 8 9 13 21 22 22 18 13 13 13 12 12 13 15 17 19 20 20 20 18 16 17 18 19 21 23 24 27 28 29 30 30 30 30 29 28
48 44 42 42 42 42 39 34 31 28 24 21 17 15 13 12 10 7 7 8 11 15 21 21 22 21 19 18 16 16 17 19 19 19 20 20 19 21 22 22 22 22 23 24 26 27 27 28 30 32 32 32 34 34
45 44 43 40 37 34 33 29 24 21 17 14 11 11 8 4 5 5 5 7 10 12 16 20 23 23 25 25 25 24 23 22 22 23 24 25 23 23 25 26 27 26 26 27 27 28 30 31 32 32 33 34 35 36
41 38 35 33 30 27 23 20 19 14 11 10 7 3 2 2 2 3 6 9 9 9 10 13 15 18 20 20 21 23 23 24 24 24 24 25 26 28 28 28 27 27 28 28 29 29 30 31 31 31 31 32 32 33
34 31 28 25 23 20 18 15 12 12 10 7 4 4 3 3 3 3 2 1 3 5 7 9 11 12 15 17 19 21 22 24 26 29 31 33 33 33 33 34 34 35 35 36 36 37 38 39 39 40 41 41 41 41
27 26 24 21 19 16 13 11 11 9 8 6 5 2 2 2 2 2 3 4 6 8 10 12 13 16 18 21 23 25 27 29 30 30 31 32 33 35 36 37 39 40 41 42 43 44 44 44 44 45 45 45 45 44
23 23 22 21 19 16 14 12 10 9 7 6 4 3 3 2 2 3 5 7 8 10 11 13 15 17 19 21 22 23 25 26 26 27 28 30 31 33 34 36 38 39 40 41 42 43 44 44 44 45 45 46 46 46
23 22 20 19 18 15 12 11 10 8 7 6 5 4 3 2 3 5 6 8 9 11 12 13 13 13 14 15 17 18 20 21 23 25 27 29 31 33 36 38 40 42 44 45 46 47 47 48 48 48 48 47 47 46
21 20 18 15 13 11 11 10 9 8 7 5 4 4 4 3 4 4 5 6 7 9 9 9 10 11 13 15 15 16 17 19 21 24 27 29 31 34 37 39 40 41 41 43 44 45 46 47 48 48 49 49 49 50
17 16 15 15 14 12 11 10 9 7 7 6 6 4 2 1 2 4 6 6 8 9 10 12 13 15 17 19 21 23 24 26 27 29 33 34 36 39 37 32 30 28 28 28 29 30 31 32 32 33 35 37 39 41
14 14 13 12 12 10 10 9 9 8 7 4 2 1 1 3 5 6 7 7 9 11 13 15 17 19 21 24 26 28 29 29 30 33 37 39 40 38 32 28 26 25 24 23 23 24 25 26 27 28 28 28 28 28
13 12 12 11 10 10 9 8 7 5 4 3 3 2 3 5 6 8 9 10 10 13 15 18 20 21 24 27 30 32 31 31 32 35 39 41 40 35 30 28 26 24 23 22 21 20 20 20 21 21 22 23 23 24
13 11 10 9 9 9 9 6 5 5 5 5 6 6 6 7 8 9 10 11 12 14 16 19 22 23 24 27 31 33 32 31 32 36 40 41 38 33 30 28 27 24 23 22 21 21 21 19 18 17 17 18 19 19
11 10 10 10 9 9 8 7 7 6 6 7 8 9 9 10 10 11 12 13 14 16 18 20 23 24 25 29 32 34 32 31 33 36 41 41 37 32 29 27 24 22 21 20 19 19 18 18 17 16 16 15 15 16
9 8 7 7 7 7 7 8 8 8 8 8 10 10 11 12 12 13 14 15 16 18 19 21 23 25 26 29 32 35 33 32 34 38 41 41 36 31 29 25 22 20 19 19 18 18 17 17 16 16 16 16 15 15
12 10 10 9 8 8 7 7 7 7 8 9 9 11 12 13 14 16 17 18 20 21 22 23 24 26 27 30 33 35 34 33 35 38 42 41 36 32 28 24 22 20 19 18 17 17 17 17 17 16 16 15 15 15
16 14 12 10 10 11 11 11 10 9 9 9 10 12 13 13 14 16 17 19 20 21 23 24 26 27 27 30 33 35 34 33 36 39 42 41 36 32 27 25 22 20 19 18 17 17 16 16 16 16 16 16 16 16

GFSWCAN_500_spd_117.txt.gz
Wind_Speed
61 62 62 60 58 58 56 52 49 46 44 39 36 33 30 27 25 24 25 23 22 22 22 24 26 27 25 24 24 23 20 18 15 13 10 16 17 14 13 12 15 16 12 11 12 9 9 5 15 24 20 11 8 7
59 60 62 61 63 60 59 54 53 52 49 45 41 37 34 31 29 27 26 25 25 25 25 26 27 27 24 22 23 21 19 17 16 13 18 17 21 17 13 14 14 15 16 14 14 14 10 8 6 24 24 18 1 5
61 60 59 60 64 62 60 56 46 53 50 46 44 41 38 33 30 28 28 26 26 27 28 27 29 25 25 23 24 22 21 20 18 18 19 19 21 19 15 12 13 18 18 17 18 19 17 12 12 15 17 20 10 9
51 59 62 60 59 60 59 56 54 50 44 45 42 40 37 35 33 31 29 29 29 30 31 30 27 25 26 24 24 23 23 23 21 23 22 22 23 22 18 16 14 16 20 16 19 21 20 21 24 23 23 19 12 9
45 45 52 61 59 56 53 52 47 38 37 45 40 37 36 33 33 34 33 32 33 33 32 27 24 24 24 22 23 24 23 22 18 17 22 23 25 24 21 18 7 11 9 5 20 17 24 27 25 28 27 19 12 10
39 42 41 45 58 56 51 48 48 46 48 52 43 42 40 36 36 37 34 34 34 32 28 23 23 23 21 21 23 21 17 13 15 19 22 22 25 25 22 14 11 7 11 6 15 14 16 21 29 30 32 27 21 14
35 38 40 37 45 55 52 45 54 50 50 48 40 40 44 43 41 39 37 34 32 29 21 21 22 21 20 20 17 12 11 10 15 18 21 21 25 27 25 14 10 8 8 9 8 14 16 15 17 26 33 34 30 25
29 37 38 37 40 49 52 51 57 52 55 45 39 35 42 42 41 36 34 30 27 23 22 21 20 19 17 14 10 8 7 7 12 15 18 19 21 27 24 17 10 11 7 7 9 10 19 20 15 14 25 34 32 25
28 33 40 36 40 48 49 50 59 39 45 34 31 29 37 40 37 33 32 29 24 22 19 20 18 9 12 9 6 4 3 2 4 10 15 19 19 24 22 15 11 9 8 7 11 14 15 17 19 19 20 27 33 34
28 34 42 40 46 48 42 36 50 52 46 39 33 29 31 31 31 30 30 24 24 17 17 14 14 12 9 10 6 6 7 5 2 4 10 15 17 18 19 17 13 12 11 6 5 14 18 18 18 19 20 24 26 32
28 41 44 58 54 45 40 37 42 41 41 39 34 28 30 32 30 29 27 26 20 17 18 15 14 14 13 13 10 6 4 6 6 7 7 10 13 17 22 19 17 14 11 9 6 6 5 15 22 20 18 22 21 29
44 54 61 55 49 44 42 39 41 33 31 30 32 34 34 32 30 30 27 22 20 23 17 14 13 18 16 13 8 6 8 10 8 8 8 9 9 15 18 19 19 15 12 12 13 10 5 3 7 10 15 16 18 21
63 60 62 60 51 43 40 39 34 33 30 34 35 33 31 31 30 27 24 21 21 20 17 16 17 18 15 12 6 7 5 4 5 5 5 6 9 10 10 12 15 17 18 17 17 16 13 11 11 6 8 8 11 13
60 55 47 44 40 37 36 38 35 34 36 34 32 30 25 27 23 20 16 17 22 24 19 18 21 19 15 9 9 8 5 5 8 7 7 8 11 9 10 10 8 14 17 18 22 22 21 19 18 17 16 17 17 19
59 54 50 40 44 46 42 35 37 38 34 32 21 15 19 16 16 15 18 22 24 24 20 19 21 19 14 9 9 9 7 6 6 6 11 12 13 14 11 11 13 14 14 15 16 20 23 24 24 24 24 24 24 25
47 44 41 47 48 43 41 40 38 41 39 27 24 22 18 17 16 15 17 21 22 25 22 22 20 20 15 11 8 9 11 10 12 14 15 13 13 14 16 16 18 19 20 21 22 21 22 23 25 26 27 28 29 29
45 51 53 47 45 46 44 49 44 37 32 26 20 20 20 19 16 14 14 17 19 22 22 24 22 18 18 16 14 13 13 14 14 15 19 20 21 22 24 23 21 21 23 24 25 27 29 30 31 32 32 32 32 33
48 46 46 48 47 52 47 40 33 29 28 25 23 20 18 15 13 10 9 9 11 15 19 21 24 23 21 17 20 19 19 19 18 18 19 20 21 22 22 23 24 25 26 27 28 28 29 30 32 34 36 38 39 40
46 44 42 44 45 42 39 36 32 27 22 20 19 17 13 10 8 8 9 9 11 12 13 17 21 22 22 24 25 25 24 24 26 27 25 24 25 26 27 27 28 28 28 27 29 30 31 32 34 35 36 37 38 38
44 46 45 42 39 36 33 31 28 24 19 16 13 9 6 5 5 7 8 7 6 4 4 6 9 15 21 25 27 28 27 26 25 26 27 27 27 28 30 31 32 33 33 34 34 34 35 35 36 36 37 37 37 37
44 42 39 37 33 30 26 24 22 17 15 13 11 11 9 11 11 11 9 7 5 2 3 5 7 9 12 14 17 20 23 25 26 27 28 31 33 35 36 36 36 36 37 38 39 40 42 43 43 44 44 44 44 45
36 35 33 31 28 24 20 17 15 14 13 12 11 9 7 7 6 5 4 2 1 4 6 8 10 12 14 17 20 22 24 26 27 29 30 31 32 33 35 36 37 38 40 42 43 44 46 47 48 49 49 50 50 50
27 27 25 23 20 17 15 15 14 13 11 10 6 6 6 5 4 2 1 3 4 6 8 10 13 15 16 17 18 19 20 21 22 23 24 26 27 29 31 33 36 38 40 42 44 45 46 48 49 49 50 50 51 51
21 19 19 18 17 15 16 13 11 9 6 5 6 6 4 2 1 1 3 4 6 7 8 9 9 9 10 12 14 17 19 20 22 24 25 26 27 28 30 33 35 38 40 43 45 48 49 51 52 52 53 53 53 53
18 16 15 15 13 11 10 9 7 7 7 5 4 3 2 2 2 3 4 4 5 5 5 6 7 9 10 12 14 17 20 22 23 25 26 26 26 28 33 36 36 39 39 38 36 35 35 35 36 37 38 40 41 43
14 13 12 10 7 7 8 8 7 6 5 4 3 4 4 4 3 3 3 3 3 5 7 9 11 13 14 15 18 22 25 27 28 28 27 27 29 33 39 39 41 38 34 31 30 30 29 28 28 29 30 31 32 32
11 10 10 9 9 9 8 8 7 6 7 6 6 5 4 3 2 3 3 4 5 7 9 11 13 16 18 18 20 24 28 31 33 31 28 28 32 38 42 41 40 35 32 30 29 28 27 26 24 23 23 24 25 26
12 11 10 10 9 9 8 9 9 8 8 7 6 5 5 4 4 5 6 7 7 9 10 13 15 18 20 21 22 25 30 33 34 31 28 30 35 40 42 40 35 32 29 27 25 24 24 23 24 24 23 22 21 21
11 11 11 11 11 11 11 10 10 8 8 8 8 8 8 8 7 8 9 9 11 12 13 15 17 19 21 23 24 25 30 33 35 31 29 32 37 42 42 38 34 29 26 24 22 22 21 21 21 20 20 20 19 18
15 15 14 14 13 13 13 11 11 10 10 10 10 10 10 10 10 11 11 13 14 15 17 18 20 22 23 25 26 26 30 33 35 31 30 34 39 43 42 37 32 27 25 23 21 20 20 20 19 19 18 18 19 19
16 15 14 13 12 13 12 12 13 13 13 12 12 11 12 11 12 13 14 15 15 17 19 21 22 23 24 25 27 27 30 34 36 33 31 35 39 43 41 36 30 28 25 22 20 19 19 18 18 18 18 18 18 17
18 17 17 16 15 14 13 12 11 11 12 12 12 11 11 11 11 13 14 15 17 18 19 21 23 24 25 26 27 28 30 33 37 35 33 35 39 43 41 36 31 28 25 22 20 19 18 18 17 17 17 18 18 18
22 21 20 18 17 15 15 14 14 13 12 12 11 11 12 12 13 14 16 18 20 21 22 23 24 25 27 27 29 29 30 33 36 37 35 36 39 43 42 37 32 27 24 22 21 20 19 19 19 19 19 19 19 19

GFSWCAN_500_spd_120.txt.gz
Wind_Speed
58 56 54 51 48 46 44 43 42 40 38 36 33 30 27 24 23 23 24 21 19 20 20 21 22 21 21 22 25 26 27 27 22 21 15 7 11 16 16 15 14 15 17 16 7 12 14 8 3 13 16 7 9 4
57 58 57 55 53 51 48 46 44 42 40 38 35 32 30 26 23 23 22 21 24 23 22 22 23 22 22 25 27 26 27 25 24 20 14 14 18 19 20 17 14 16 19 18 15 15 16 8 6 13 25 18 8 6
52 54 56 57 58 48 52 48 49 46 42 40 38 34 32 29 28 27 28 27 26 24 24 22 23 23 26 30 28 27 27 26 25 24 23 21 24 25 25 23 20 18 22 19 20 22 18 16 13 12 12 25 16 1
55 55 54 54 58 56 56 40 45 50 44 41 39 38 36 33 30 29 28 27 26 25 25 25 25 27 30 29 27 27 25 26 27 28 28 25 23 29 29 26 19 15 18 23 24 23 22 22 21 18 17 19 19 12
45 52 58 55 55 56 55 57 57 55 42 35 37 37 35 34 32 31 30 29 28 29 28 26 27 31 31 28 25 24 24 26 28 30 29 24 22 26 25 25 22 16 18 18 25 22 22 25 26 22 21 22 20 14
39 44 48 54 60 56 62 60 56 52 38 38 33 36 34 34 34 35 34 32 31 32 31 31 30 30 29 24 23 23 23 27 27 24 18 15 23 24 25 25 21 16 14 18 17 20 22 25 27 28 23 22 23 19
36 38 43 47 51 62 60 65 58 52 48 39 34 35 34 33 39 37 36 35 34 35 34 33 30 28 23 21 20 20 22 21 20 15 13 16 21 21 21 25 23 10 10 15 16 16 19 17 24 26 27 28 26 26
29 33 36 43 44 50 62 61 63 50 51 43 42 40 38 37 36 38 38 37 36 33 32 28 20 19 19 17 16 15 14 14 11 11 13 16 19 19 23 28 23 14 6 7 7 10 13 18 19 18 14 15 23 28
26 27 32 38 41 42 53 57 49 44 41 39 40 41 43 37 33 36 38 35 32 30 29 19 17 12 15 12 11 7 5 2 4 8 13 16 18 19 14 22 22 18 10 7 8 11 16 16 17 23 21 17 15 22
28 26 30 36 39 39 48 52 50 44 43 42 39 42 37 33 28 30 35 33 32 27 17 19 17 11 14 12 7 5 5 2 1 4 6 11 16 16 13 16 21 19 11 9 11 15 16 18 20 20 18 18 18 18
29 26 33 35 35 41 52 57 50 48 41 45 41 35 32 26 25 28 30 32 25 19 18 18 18 20 11 9 11 8 4 5 4 7 6 8 9 12 16 19 23 18 15 12 11 12 13 13 22 26 24 21 18 18
29 28 36 35 42 54 65 53 44 42 38 30 31 33 26 27 29 27 29 23 21 22 19 19 19 18 17 13 11 9 8 7 9 10 9 11 12 12 13 19 21 20 19 17 16 15 11 13 10 17 21 19 18 18
30 38 42 49 52 56 58 49 43 38 37 33 28 28 26 28 29 23 20 22 20 18 14 19 16 16 19 15 12 10 10 6 5 8 8 8 10 9 8 15 19 21 20 20 18 18 18 19 13 6 9 12 15 15
48 61 55 57 56 49 43 45 52 48 42 32 30 32 27 27 24 22 17 16 17 19 19 17 17 18 19 16 10 9 7 8 8 9 6 9 8 10 10 11 11 13 18 20 21 21 23 22 22 18 15 11 12 15
63 53 51 45 43 38 34 38 43 40 32 28 28 26 20 14 19 15 14 17 23 26 22 18 18 19 17 13 9 7 6 6 6 8 12 13 16 15 15 16 15 15 15 16 18 22 24 26 26 26 25 25 24 23
55 55 53 44 35 36 37 36 33 29 27 26 20 22 17 19 19 17 21 24 27 25 22 15 13 20 16 12 9 9 12 13 10 13 15 14 15 14 11 17 19 20 20 21 23 24 24 25 27 28 29 31 31 32
56 50 44 42 40 38 36 35 36 37 25 20 18 20 14 15 15 14 15 22 21 22 19 16 19 17 14 16 15 15 15 16 15 16 17 18 19 21 22 23 24 26 28 28 28 30 30 31 31 32 34 35 36 36
41 44 50 46 41 38 39 39 39 28 23 19 18 20 17 16 15 12 12 14 16 17 22 18 21 24 21 18 19 20 21 20 21 22 21 21 22 25 24 25 25 26 27 28 30 31 32 33 34 36 37 39 40 42
44 48 46 44 41 41 41 40 32 26 19 19 20 20 18 15 12 10 9 10 12 14 17 19 22 25 24 25 25 26 26 26 26 27 27 30 30 28 28 29 30 31 30 31 31 33 34 35 35 36 38 39 40 41
45 47 46 44 45 40 34 29 27 22 18 19 16 12 9 8 8 8 6 7 8 8 8 8 11 18 22 26 26 27 28 29 32 32 29 28 29 31 31 31 32 33 35 36 38 38 38 38 40 40 41 41 41 42
44 42 43 42 37 33 31 28 26 21 17 15 13 11 10 9 9 9 9 11 10 9 6 4 5 6 8 11 13 16 19 22 25 26 28 31 31 32 33 34 34 35 36 37 38 39 41 42 43 44 45 46 47 48
40 39 37 34 31 28 26 23 20 19 16 15 14 12 11 11 11 10 9 8 6 3 1 3 5 7 9 12 14 17 19 21 23 24 25 25 26 27 28 29 30 32 34 35 37 39 41 43 45 46 48 49 50 52
37 35 32 28 24 21 19 19 17 17 15 13 12 11 10 9 8 6 5 3 1 2 4 5 7 8 9 10 10 12 15 18 21 24 25 26 28 30 31 32 32 34 35 37 40 42 44 46 47 49 50 52 53 54
30 29 27 22 19 17 18 16 15 14 12 9 9 10 8 6 5 3 2 1 1 2 3 5 6 7 8 9 10 11 14 17 21 23 25 28 29 29 29 30 31 33 37 41 42 42 44 45 45 45 45 44 44 45
22 21 19 19 18 16 14 13 12 10 11 10 8 7 6 4 3 2 1 1 2 2 3 4 5 7 9 11 13 14 17 21 24 28 30 31 29 26 26 28 32 39 43 43 45 44 41 38 37 36 35 34 34 34
21 20 17 14 13 11 10 10 10 10 9 8 6 5 4 3 3 2 2 1 2 3 4 5 7 9 11 13 15 17 20 23 26 31 34 35 30 27 28 32 38 44 45 46 42 37 34 32 31 30 30 29 29 28
16 13 11 10 9 9 9 8 8 7 6 6 6 5 5 4 3 3 3 3 4 5 6 8 9 11 14 16 18 21 23 24 27 31 34 36 32 29 31 37 43 45 45 41 35 31 29 28 27 26 26 26 26 27
13 11 10 9 8 8 8 7 6 6 7 8 7 6 5 6 6 6 6 7 7 9 10 11 13 14 17 19 22 23 25 26 27 31 34 37 34 31 33 39 45 45 42 36 31 29 27 25 24 23 23 23 23 23
10 10 10 10 10 9 9 9 9 11 10 9 10 10 10 10 10 10 10 10 11 12 13 14 15 18 20 22 23 25 26 28 29 31 34 37 37 34 35 40 45 45 40 34 31 27 25 23 22 22 21 21 21 20
12 13 13 13 12 12 13 12 13 12 12 13 12 13 13 13 14 13 13 13 13 14 15 16 18 20 22 23 25 26 27 29 30 31 33 36 38 36 36 40 45 45 40 34 30 27 24 22 21 21 20 20 20 20
17 16 15 16 14 15 16 15 16 15 15 16 16 17 17 16 16 15 14 14 14 15 16 17 20 22 24 26 27 28 29 31 32 32 34 36 39 38 37 40 44 45 40 34 29 27 24 23 22 21 20 20 19 19
20 19 20 19 19 20 18 18 18 18 17 16 16 17 17 17 16 14 14 13 14 15 17 20 22 24 26 28 30 31 31 32 33 33 33 35 37 38 37 40 43 44 40 34 28 26 26 25 23 22 22 21 21 20
25 25 24 23 23 22 22 22 22 21 19 17 16 15 14 13 13 14 15 16 18 20 22 24 25 26 28 29 31 32 33 32 33 33 33 34 37 38 38 39 42 44 41 34 29 27 26 25 24 22 21 20 19 19

GFSWCAN_500_spd_123.txt.gz
Wind_Speed
50 48 48 47 46 44 41 37 33 30 28 28 28 30 30 29 27 25 26 25 22 22 22 20 19 20 20 19 19 18 19 21 24 23 24 23 20 13 16 14 14 14 15 18 19 12 17 14 9 9 8 10 8 11
55 53 51 50 49 47 45 42 41 38 35 32 30 29 27 26 25 25 25 23 22 23 21 22 22 21 21 19 19 20 24 25 24 24 24 23 20 17 21 21 20 17 15 18 20 23 18 15 12 9 7 12 11 6
57 57 56 54 52 50 48 46 44 41 40 38 36 33 30 28 27 27 26 25 23 22 22 23 25 22 21 21 20 25 25 25 26 24 26 24 24 22 24 28 28 24 20 20 22 25 22 16 14 10 8 12 21 9
51 55 58 58 57 54 51 49 46 45 43 39 37 34 31 29 28 27 27 26 24 24 26 25 25 23 22 23 24 25 26 25 24 25 24 25 27 29 28 30 29 24 21 18 24 30 27 25 22 17 11 14 15 13
50 50 53 56 58 57 54 52 50 47 45 43 40 37 35 32 30 29 29 29 28 28 28 27 23 23 23 25 27 28 27 23 24 22 25 29 31 32 26 27 30 25 23 19 20 25 29 26 20 20 18 18 21 20
48 53 51 51 53 54 51 48 46 46 45 42 40 39 37 35 34 33 32 32 30 29 27 27 25 25 25 27 27 24 21 22 22 25 28 27 24 20 20 21 22 23 21 14 18 20 22 22 22 19 20 21 22 19
36 41 52 54 52 51 52 44 46 43 48 39 31 32 29 33 36 34 34 33 32 31 30 28 27 27 27 26 22 20 21 20 22 23 22 16 16 14 13 14 19 23 22 16 16 15 21 22 19 15 19 22 25 22
35 37 40 48 56 55 56 59 49 44 55 43 32 26 33 30 33 35 34 35 34 32 29 28 28 26 22 19 17 18 17 18 18 16 12 10 13 12 11 14 15 22 24 13 9 11 12 15 15 16 17 15 17 22
31 37 38 40 45 53 60 58 62 55 44 37 33 31 33 33 25 25 26 31 34 31 29 26 24 17 16 14 13 11 10 8 8 6 8 8 11 10 11 10 14 20 23 19 13 10 11 13 16 14 13 13 13 13
28 28 35 39 41 46 52 62 55 55 57 51 46 30 29 26 23 25 28 27 30 31 28 21 13 13 14 12 10 8 6 3 2 4 7 6 9 10 11 14 15 19 23 22 14 14 13 12 16 16 17 14 15 17
28 24 27 34 40 45 48 57 64 53 51 56 48 33 26 27 30 32 31 28 27 29 24 15 16 19 16 7 6 8 7 5 4 6 8 8 6 8 12 13 13 18 20 18 16 14 13 16 16 16 18 20 18 16
26 24 25 31 38 43 44 57 64 58 44 43 38 36 32 32 31 29 28 25 24 20 16 20 17 24 12 9 9 11 8 6 6 8 9 9 11 13 12 12 13 17 20 20 20 19 19 18 18 19 17 17 20 17
25 26 26 33 37 38 42 53 58 55 48 41 37 36 30 29 29 26 22 18 13 16 19 18 17 22 26 18 14 14 12 8 10 8 7 9 12 11 11 11 11 12 17 19 20 21 21 21 20 19 22 13 14 13
28 28 34 36 36 45 54 50 46 45 42 37 30 27 28 30 23 17 14 17 17 15 14 14 19 19 21 21 16 13 9 7 7 7 10 10 8 9 9 11 8 9 14 17 18 19 20 23 22 23 21 20 19 15
35 38 40 49 54 57 46 47 43 41 32 28 24 22 19 16 15 15 14 15 16 18 15 15 17 15 19 21 16 10 8 6 7 9 8 8 10 12 16 13 14 15 15 15 17 18 20 21 21 21 24 23 23 24
44 51 61 58 55 48 46 42 41 41 38 32 23 19 18 14 19 18 20 22 21 16 19 15 12 16 17 18 13 11 12 10 13 12 12 11 13 14 15 14 14 19 22 22 23 24 25 26 28 28 27 26 28 29
53 59 60 53 51 48 47 44 40 33 23 20 25 23 17 16 19 17 22 24 27 25 24 17 13 13 17 15 13 14 15 15 16 16 16 16 17 18 17 16 20 22 25 28 30 31 31 32 33 34 35 35 35 34
56 54 50 49 44 43 41 38 31 26 25 23 24 20 16 21 17 14 15 18 20 22 21 17 20 19 17 18 13 18 20 20 22 21 21 21 22 24 24 28 31 29 29 28 29 31 33 34 35 36 37 38 39 40
37 35 38 40 41 42 40 41 32 27 21 19 19 18 18 18 15 13 13 15 17 17 17 20 19 16 19 23 23 23 22 23 24 26 28 29 31 32 32 30 30 30 30 30 31 32 33 34 35 37 38 39 41 42
42 44 41 39 42 44 38 31 26 21 20 20 19 18 15 13 12 11 9 9 10 10 10 11 12 17 22 24 26 27 28 28 29 29 28 27 27 29 31 32 32 33 34 34 35 35 35 37 38 40 41 42 42 43
41 43 43 41 42 36 27 23 22 20 20 17 14 12 10 10 9 10 9 9 10 11 9 8 7 8 9 10 12 12 13 15 17 20 22 24 24 25 26 27 28 28 29 30 31 33 34 36 37 38 40 42 43 45
40 39 38 36 32 28 26 21 20 19 17 14 12 13 12 10 10 11 12 12 11 10 8 6 5 5 5 7 8 10 11 11 11 14 18 21 24 25 27 29 30 31 31 31 32 33 35 37 40 43 44 46 47 48
39 36 34 31 28 24 22 19 17 16 15 15 14 13 13 12 11 11 10 9 7 5 3 2 1 2 3 4 6 7 8 10 12 15 19 23 26 29 29 28 28 27 28 29 32 36 41 45 45 45 46 46 47 48
32 29 24 23 20 20 19 18 17 16 14 13 12 11 11 10 9 7 6 5 5 3 2 1 1 1 3 4 6 8 10 13 16 19 22 26 30 33 30 26 25 25 27 33 39 44 45 46 47 45 43 41 41 40
26 24 21 20 19 17 16 15 14 12 10 11 11 10 9 7 7 6 5 4 3 3 2 2 2 2 4 6 8 10 13 16 18 21 23 26 30 33 35 33 30 29 33 39 45 46 47 43 37 34 33 32 32 32
20 18 16 15 14 13 13 12 10 11 11 10 8 6 6 6 5 4 4 3 2 1 0 2 3 5 7 9 12 14 17 19 22 23 25 27 29 31 33 35 35 34 36 42 46 47 41 34 32 30 28 28 26 26
18 17 16 14 12 11 10 11 11 10 9 7 7 6 6 5 5 4 3 2 2 3 4 5 6 8 10 13 15 17 19 22 24 25 27 29 31 32 34 37 38 36 38 43 46 45 38 33 30 27 25 24 25 24
16 14 13 13 12 12 11 10 9 9 10 9 8 7 6 8 6 6 6 6 6 6 7 8 10 12 13 15 17 19 21 23 25 27 29 31 32 33 35 37 39 39 40 44 46 43 36 31 28 26 24 23 22 22
14 14 14 14 13 12 11 11 11 12 9 9 9 8 8 8 9 10 10 11 11 11 11 11 13 14 15 18 20 22 24 26 27 29 32 33 34 34 36 38 39 40 41 44 46 43 36 30 27 25 24 22 22 21
15 15 15 15 13 11 13 13 13 10 11 10 10 10 12 12 13 14 14 14 14 14 14 14 14 15 17 20 23 25 27 29 30 31 32 33 34 35 35 37 38 40 41 42 45 44 38 31 28 27 25 23 22 22
19 18 17 16 15 15 17 14 14 15 14 13 13 14 17 15 16 16 17 17 16 15 15 14 15 16 19 21 23 26 29 30 32 33 33 33 35 35 35 36 38 39 40 41 43 44 40 34 30 28 26 24 22 21
22 21 20 19 17 20 20 19 18 19 19 18 16 18 16 15 16 16 17 16 15 15 14 14 16 18 21 24 26 29 31 32 33 34 35 35 35 36 36 36 37 39 40 41 42 44 42 36 31 29 27 25 23 22
26 25 24 24 23 24 25 25 23 22 23 22 21 21 19 17 15 16 16 15 15 16 18 19 22 23 26 29 31 33 35 36 35 35 36 36 36 37 37 36 36 38 39 40 41 43 43 38 33 30 27 25 23 22

GFSWCAN_500_spd_126.txt.gz
Wind_Speed
48 45 40 37 33 30 27 23 21 20 19 19 20 23 24 27 29 30 30 28 27 25 23 23 23 24 25 24 23 22 20 19 19 20 22 23 22 22 19 16 18 24 23 21 21 21 21 18 14 12 10 12 5 4
51 52 50 45 39 36 33 30 28 25 24 24 22 22 23 27 28 28 26 22 23 24 24 25 24 25 25 22 21 21 20 19 19 21 24 25 22 20 19 20 20 24 26 24 20 22 25 25 15 15 11 9 15 2
52 53 53 52 49 45 40 36 32 30 29 28 27 27 26 26 25 25 24 24 24 25 24 24 23 23 23 23 22 21 20 20 21 24 25 23 22 23 22 24 23 23 29 28 25 21 24 27 22 14 12 9 9 6
54 54 54 53 53 50 47 45 42 37 33 32 31 31 30 29 28 26 25 26 27 25 25 25 24 24 23 22 22 22 22 23 25 27 24 23 23 27 27 29 29 28 29 29 25 27 24 25 26 21 18 13 8 10
52 56 57 56 55 54 52 50 45 41 39 38 36 34 32 30 30 30 29 27 27 26 24 27 25 24 23 23 23 23 24 27 27 25 23 25 26 29 32 33 29 28 26 25 22 21 23 19 23 25 20 20 17 12
45 50 56 59 58 57 56 52 49 45 39 31 38 36 36 36 33 32 31 29 28 28 28 25 24 24 24 25 25 26 27 26 25 22 24 26 29 32 27 20 18 16 15 19 19 18 19 19 19 22 22 21 22 18
49 50 49 54 58 58 57 55 52 49 45 45 43 37 35 32 30 29 29 30 28 29 28 28 27 25 25 27 27 26 26 23 20 22 24 26 27 19 15 12 14 16 18 18 15 16 17 19 18 17 21 21 22 19
34 45 54 49 51 54 56 55 52 51 49 47 43 38 36 35 34 34 32 32 31 30 30 29 28 27 28 28 27 25 20 18 20 21 20 16 15 11 7 10 10 14 15 16 17 14 14 12 13 15 14 14 16 19
32 33 41 52 48 48 49 49 49 47 44 41 38 32 29 30 31 32 34 33 33 32 30 28 29 29 26 23 21 17 17 18 15 11 7 8 10 6 5 8 10 12 15 19 22 22 12 10 8 11 12 12 14 16
29 32 33 39 50 46 45 45 41 40 40 42 33 28 27 29 27 22 24 30 32 32 29 26 27 25 21 18 16 15 13 11 7 4 3 6 6 7 6 7 11 13 18 22 24 24 17 14 7 8 11 14 15 18
29 32 34 35 42 50 45 56 51 58 52 45 39 30 27 25 27 25 24 23 22 22 24 26 26 19 17 17 15 10 12 11 6 6 6 6 6 8 10 8 7 10 15 21 22 23 20 17 13 12 13 14 16 18
31 29 33 37 37 48 55 61 58 55 55 53 40 31 30 27 27 26 24 21 19 20 14 17 19 20 19 16 11 10 12 11 8 8 9 7 9 12 12 11 9 9 11 16 20 21 21 20 18 17 17 18 17 16
30 27 27 37 40 41 50 59 60 52 50 43 34 34 32 30 26 31 27 19 15 18 17 20 23 21 20 15 13 12 14 8 7 7 8 9 11 7 8 8 8 10 10 9 11 15 18 20 21 22 21 22 19 16
29 24 24 33 41 39 44 47 56 57 47 41 39 36 37 34 35 28 22 23 21 21 22 21 20 22 24 25 25 16 15 10 8 10 7 8 13 6 9 9 11 9 11 11 12 15 16 18 19 20 22 21 22 23
28 25 29 37 40 44 44 49 46 40 49 43 39 37 35 30 21 22 20 21 23 19 17 19 17 20 27 30 25 18 15 11 7 8 10 8 8 8 8 9 10 12 15 16 19 20 19 18 18 18 20 22 24 24
30 35 40 42 44 47 54 49 43 42 38 35 30 28 22 20 18 18 22 22 21 20 17 14 12 17 17 20 24 21 16 13 9 11 11 12 12 12 12 13 14 13 14 18 21 24 26 27 27 27 27 28 26 27
40 39 47 51 53 54 46 45 46 41 35 30 26 20 17 20 23 22 23 25 26 22 17 15 12 15 14 18 21 17 15 15 16 16 14 14 16 17 18 18 21 23 26 29 29 29 30 32 33 34 34 34 34 33
59 62 60 57 56 47 47 43 42 40 34 26 18 20 22 25 22 19 25 28 27 26 28 20 14 13 16 16 12 18 17 17 18 18 20 21 22 25 27 29 30 32 32 30 29 29 30 31 32 34 34 35 36 37
59 57 51 45 44 46 44 41 34 25 21 20 24 21 23 24 20 18 22 25 26 24 21 18 17 15 14 17 22 21 21 21 20 20 24 28 29 29 28 28 30 31 31 31 31 32 32 33 34 35 37 38 39 41
61 57 51 46 42 40 34 24 23 22 23 24 21 21 22 20 17 15 14 16 17 17 18 16 14 18 19 19 21 24 24 25 26 27 27 23 22 24 25 26 27 28 28 29 29 30 31 32 33 34 35 37 39 40
44 44 40 34 32 33 33 29 26 25 22 21 19 18 17 16 15 14 12 12 13 13 14 15 15 13 13 13 14 15 15 15 13 14 14 13 16 19 23 26 28 29 29 30 30 29 29 29 30 33 36 38 41 42
35 39 42 41 33 29 24 21 22 21 20 19 16 13 12 11 11 11 11 11 11 11 10 8 7 5 5 5 6 7 8 8 7 9 12 15 18 21 24 27 29 27 26 25 25 25 27 31 35 41 44 44 45 47
43 38 32 30 28 25 22 18 16 15 14 13 14 14 14 14 14 14 13 12 11 10 9 8 6 4 3 2 2 2 3 6 8 11 14 17 19 22 25 27 29 30 30 28 28 30 34 38 45 47 48 48 45 43
36 32 29 26 21 18 16 14 12 12 13 13 13 12 12 12 13 12 12 10 9 8 8 7 6 5 4 2 1 2 4 7 10 13 15 19 21 24 26 28 30 32 33 35 34 35 38 43 46 48 43 37 35 33
28 23 20 17 16 15 14 13 12 12 12 11 11 11 11 10 9 9 9 10 9 8 8 7 6 4 2 0 3 5 8 10 13 16 18 20 23 26 28 29 31 32 34 36 38 38 40 45 47 43 37 33 31 29
19 17 16 16 15 13 13 12 11 10 10 11 10 9 9 8 8 8 8 8 8 7 6 5 4 3 2 4 6 9 11 13 15 18 20 22 25 27 30 32 32 33 34 36 39 41 41 45 46 41 34 31 28 26
15 15 15 15 13 12 11 9 10 11 11 10 9 8 8 8 8 7 7 7 7 6 6 6 6 5 6 7 9 11 14 15 17 20 22 24 26 29 30 32 34 34 35 36 39 41 42 44 46 40 34 31 29 27
11 11 11 12 11 11 11 11 12 12 11 10 9 8 8 9 7 8 7 7 8 8 9 8 8 8 9 10 12 14 16 19 21 23 25 26 28 30 31 32 33 34 35 37 38 40 42 43 45 41 35 31 29 28
15 14 13 12 12 12 13 14 14 13 11 10 9 9 10 10 11 11 10 11 11 11 11 12 11 12 12 12 14 15 18 21 23 25 27 28 30 31 32 33 34 35 36 36 37 39 41 42 44 42 36 32 30 28
17 18 16 16 15 15 17 17 16 13 13 13 13 13 14 14 13 13 12 13 13 14 15 15 15 14 14 14 15 17 19 21 24 27 29 31 31 33 34 35 36 36 37 37 37 39 40 41 43 43 39 34 31 28
23 21 19 19 19 20 22 20 18 18 17 17 17 18 18 15 14 15 14 15 15 15 16 16 15 15 14 14 16 19 22 25 28 30 32 34 34 34 35 35 36 37 37 36 37 38 39 41 42 43 42 37 32 29
26 25 24 23 23 24 25 24 23 22 22 21 20 21 21 18 16 17 17 16 16 16 17 17 16 16 16 17 20 23 25 27 30 33 35 36 36 35 35 36 37 38 38 37 37 37 39 41 42 43 43 39 34 31
29 30 29 28 27 28 29 29 28 26 25 25 24 24 24 21 19 19 21 19 20 18 17 19 20 19 20 23 25 27 29 31 32 34 36 37 38 37 37 37 38 39 39 38 38 38 38 40 42 43 43 40 37 33

GFSWCAN_500_spd_129.txt.gz
Wind_Speed
34 33 29 25 21 19 21 21 24 24 27 29 28 29 31 32 31 31 30 30 28 27 29 30 30 30 30 29 28 26 26 27 24 23 24 24 25 25 25 23 21 21 21 22 25 25 24 23 20 20 17 16 16 12
43 38 34 31 26 23 21 21 21 23 22 23 26 28 30 30 29 29 29 27 28 30 29 29 29 28 29 27 26 25 24 22 22 23 25 25 25 27 26 25 24 24 23 23 24 26 24 25 25 24 19 19 17 17
50 44 40 36 31 27 24 23 22 23 22 21 20 21 22 24 25 26 27 28 28 27 28 28 26 26 26 26 25 25 24 23 23 24 26 26 28 27 26 27 27 26 27 26 27 27 27 25 26 29 27 20 17 12
57 52 46 44 40 36 32 26 24 24 24 22 21 20 22 23 26 26 27 26 24 25 25 25 26 25 24 25 26 25 24 24 24 26 27 28 29 30 29 28 27 30 32 33 34 32 28 28 28 24 29 24 21 11
57 57 55 50 44 43 39 33 28 25 24 25 25 25 24 24 25 25 24 22 23 25 23 25 25 25 26 26 26 26 26 25 25 27 29 29 30 32 28 28 29 36 37 37 34 30 23 22 22 18 23 27 24 17
54 56 57 58 55 48 42 37 35 31 27 25 26 26 25 25 25 25 24 25 25 26 25 24 25 24 25 25 26 26 26 27 27 27 29 30 31 29 26 31 35 32 28 25 18 18 18 16 17 16 16 19 27 23
51 54 56 57 57 56 53 48 46 40 32 29 29 28 28 29 28 28 26 26 26 26 26 25 24 24 26 26 26 26 27 27 27 28 28 27 28 26 27 26 27 22 20 17 15 17 15 14 14 17 18 17 21 22
43 50 55 56 56 56 54 50 47 42 37 30 30 32 35 32 30 28 27 28 27 28 28 27 27 27 26 24 25 25 25 26 27 24 23 24 26 24 18 20 15 12 11 15 16 17 16 12 14 15 16 16 18 23
44 47 47 54 56 56 55 53 49 44 39 37 35 37 34 31 30 31 31 31 30 29 29 29 28 26 25 25 25 25 25 24 21 22 22 21 18 14 13 13 11 11 12 14 16 17 18 17 15 14 15 12 13 18
37 40 46 50 50 55 54 53 52 51 48 45 40 39 35 32 31 30 30 29 29 30 29 28 28 27 25 26 25 24 23 19 20 19 16 10 7 7 6 8 11 12 14 15 18 18 21 22 22 10 11 7 7 12
33 35 36 44 50 45 51 50 50 49 47 48 47 40 33 30 30 30 29 30 29 26 26 27 25 25 26 25 23 19 18 19 17 17 14 7 7 8 8 8 8 10 14 17 18 20 21 19 17 16 15 14 11 11
29 31 31 33 46 47 41 43 42 43 41 39 41 41 36 31 32 32 31 28 23 18 17 21 24 27 27 23 19 19 18 16 17 14 12 8 11 13 11 9 8 10 11 12 14 15 19 20 20 20 19 18 18 15
28 29 30 31 39 48 38 38 37 38 32 36 36 35 35 33 31 26 20 14 16 18 19 22 22 21 20 19 19 17 15 14 14 14 11 8 9 8 8 4 4 8 8 8 8 8 11 14 17 21 24 24 22 23
29 28 31 32 41 47 46 46 51 43 47 43 40 40 36 30 24 18 15 19 24 23 22 24 20 22 22 21 15 18 13 14 12 7 6 5 5 6 8 8 10 11 8 11 11 12 12 14 16 18 19 21 23 24
29 28 34 36 45 58 48 44 42 46 50 51 43 34 31 28 23 22 21 23 25 21 22 21 25 25 23 25 27 22 17 14 12 9 7 8 7 7 9 10 10 12 13 12 15 19 21 24 23 24 24 23 23 23
29 28 38 40 45 55 47 50 46 45 51 44 40 35 30 29 25 23 23 21 22 19 20 24 23 23 22 27 26 26 20 14 14 11 11 11 11 11 12 13 15 15 16 18 20 23 25 27 29 30 30 31 31 32
25 31 47 46 48 46 36 33 51 48 42 39 35 31 29 30 28 24 21 19 18 22 22 20 17 21 19 21 26 30 27 21 18 15 15 15 14 16 17 19 23 26 27 28 29 31 32 32 32 32 32 33 34 36
36 48 50 52 54 43 37 36 39 40 39 31 29 29 26 23 22 19 18 20 24 23 20 19 15 13 14 13 13 16 19 18 16 16 17 18 18 21 25 27 26 26 27 28 29 30 30 31 32 32 33 34 35 36
52 60 61 55 44 39 39 41 43 41 38 33 30 25 20 20 19 22 24 28 26 22 18 17 14 9 8 15 17 16 18 19 18 18 19 20 24 26 23 22 23 25 28 29 29 29 29 30 30 31 32 33 35 36
61 61 43 35 35 37 42 38 32 29 26 25 20 20 20 24 25 24 27 28 27 27 25 23 16 14 15 15 16 19 20 20 21 22 23 23 19 16 17 19 22 25 26 26 25 25 26 26 27 27 27 27 29 32
56 42 34 33 37 36 31 28 26 23 21 22 23 22 24 26 21 19 20 22 23 22 20 19 20 20 20 18 17 16 17 16 15 13 12 12 13 15 18 21 23 25 27 27 26 26 26 26 27 28 32 36 39 44
36 36 34 34 33 27 22 20 20 21 22 20 19 20 21 19 17 15 15 15 16 18 19 17 14 13 12 11 10 8 7 7 8 8 9 12 14 17 20 23 25 26 28 28 28 28 29 30 31 32 34 40 42 45
33 31 29 26 25 23 21 20 19 18 19 18 17 16 15 14 14 13 12 13 13 14 14 13 13 12 10 8 6 6 6 6 6 8 10 13 16 18 20 23 25 27 29 29 30 30 31 32 36 37 39 42 45 42
33 31 28 23 21 20 19 17 15 14 13 13 13 13 13 14 14 14 14 14 14 13 12 11 10 10 9 8 7 6 5 6 7 10 12 14 16 18 20 23 26 27 29 30 30 31 32 34 36 40 41 44 44 36
27 23 21 19 17 16 12 10 10 10 11 13 12 13 13 13 13 12 12 12 12 12 12 11 11 11 10 9 8 7 6 7 8 10 13 16 18 19 21 23 26 28 30 30 31 32 33 35 37 40 42 44 44 37
20 18 16 14 13 12 11 9 10 11 11 12 13 13 12 12 12 12 11 11 12 12 12 12 11 10 9 7 6 7 8 8 10 12 15 18 20 22 24 26 27 28 30 31 32 33 34 35 37 40 42 44 45 39
14 13 13 13 11 10 10 10 8 8 10 11 11 11 11 11 11 11 12 12 12 12 12 11 10 10 9 9 9 9 10 11 12 14 17 20 22 24 25 27 29 30 31 32 33 33 34 35 36 39 41 43 45 42
10 10 10 10 9 9 8 7 8 10 10 10 10 10 10 10 9 10 10 11 11 11 10 9 10 11 11 11 12 12 12 13 14 17 19 21 23 25 28 29 30 32 32 33 35 35 35 35 36 38 40 42 44 44
11 11 10 9 8 8 8 9 10 10 11 11 10 10 11 10 12 13 13 12 12 12 12 12 13 13 14 14 15 15 14 14 16 17 20 23 26 28 30 31 32 33 34 34 36 36 36 36 37 38 40 42 43 44
14 13 13 13 12 12 14 13 13 13 14 13 12 13 14 14 14 14 14 14 14 14 14 14 15 16 17 17 17 16 15 16 18 20 24 27 29 31 33 35 35 34 35 36 36 38 37 37 37 37 39 41 42 44
21 20 18 17 17 18 18 18 16 16 16 16 16 17 18 18 17 18 17 16 17 18 17 18 19 19 19 20 18 18 19 20 22 24 27 30 33 34 35 37 38 37 37 37 38 39 39 38 38 38 39 41 42 43
27 26 25 23 22 22 22 22 21 20 20 20 21 22 23 22 21 20 22 21 20 20 21 21 21 23 21 19 21 23 23 24 26 28 30 32 35 37 37 38 39 39 39 39 38 40 40 40 39 39 40 41 43 44
30 31 31 29 28 27 27 27 26 25 25 25 26 26 26 26 25 22 26 28 26 25 24 24 25 24 22 22 24 26 27 29 32 33 34 36 38 38 39 38 39 40 39 40 39 40 40 42 42 41 42 43 44 45

GFSWCAN_500_spd_132.txt.gz
Wind_Speed
31 25 22 17 16 18 20 22 23 24 26 28 28 30 32 33 33 33 32 33 34 33 30 28 28 28 27 27 29 31 30 29 28 26 25 26 26 25 26 27 27 27 29 28 29 25 24 23 22 24 26 26 22 21
33 29 22 18 15 18 20 22 23 23 26 27 31 31 32 33 33 33 33 32 30 30 26 28 28 29 29 32 28 27 27 28 26 25 26 27 25 25 27 27 27 28 29 30 29 25 27 26 24 24 26 28 27 20
33 30 26 22 18 15 17 19 23 23 23 27 29 30 31 32 32 31 32 29 29 29 29 28 27 29 28 25 24 25 25 24 23 24 24 24 26 28 28 28 28 28 31 29 29 27 28 28 28 27 27 29 29 27
34 35 31 29 21 16 15 17 21 24 24 23 26 29 30 30 31 30 29 27 27 24 23 25 27 27 26 25 25 25 23 22 23 23 24 25 28 28 29 30 31 33 33 32 31 29 34 35 35 32 30 30 27 28
45 40 38 33 28 18 15 15 19 21 24 25 25 26 26 27 25 26 27 26 26 25 25 25 25 26 26 25 23 22 21 22 23 24 25 26 28 29 30 31 29 35 34 33 33 36 37 34 31 28 27 27 25 25
48 45 42 42 37 32 23 15 14 20 20 21 22 25 25 23 23 23 24 24 22 22 21 25 26 26 23 21 20 19 20 21 23 24 26 27 29 30 31 30 34 35 31 32 32 32 28 21 22 21 18 20 22 22
57 53 49 47 45 39 33 27 19 18 17 19 18 18 19 20 21 21 22 22 19 20 21 23 23 22 21 20 20 21 21 22 23 24 26 28 30 29 27 31 32 29 28 29 28 24 17 17 18 18 18 20 21 23
57 57 55 52 48 45 38 32 28 23 17 17 17 18 20 20 20 21 20 20 20 20 20 19 18 20 20 20 20 21 21 22 23 25 28 27 25 25 26 28 27 25 23 21 18 14 13 15 16 13 14 16 20 23
56 55 56 55 53 50 46 37 32 26 25 22 22 21 21 19 18 19 19 19 19 19 19 20 21 19 19 20 21 22 22 24 25 26 23 22 23 21 22 22 22 19 15 14 12 12 15 16 17 18 20 19 18 19
47 54 54 54 54 56 54 49 39 40 33 28 29 26 24 23 21 20 19 19 20 20 20 21 22 20 20 21 22 23 25 24 24 21 20 17 17 17 16 13 13 13 14 14 13 12 16 19 19 19 20 15 12 14
42 43 52 53 52 53 54 53 46 41 39 36 35 30 26 24 23 23 22 22 22 22 23 23 23 22 24 24 24 23 23 21 19 18 16 13 14 14 10 11 14 15 13 13 15 16 16 16 16 19 19 14 14 13
37 42 44 47 49 50 50 50 48 46 42 37 33 29 28 26 24 22 20 21 21 22 22 22 22 21 22 21 22 21 20 19 17 16 14 10 16 12 11 12 14 12 11 12 13 14 14 13 15 15 16 17 17 17
29 36 41 44 44 42 45 46 43 43 42 39 40 36 30 28 26 22 16 14 14 16 17 18 19 20 21 21 21 20 19 14 14 14 12 10 9 12 11 9 10 10 11 12 10 10 9 10 12 14 17 21 23 25
25 32 35 38 43 43 37 39 41 40 40 49 43 40 40 34 28 20 14 17 17 14 15 18 18 18 18 19 19 20 17 15 13 11 8 6 6 7 9 10 11 12 11 13 14 14 14 13 14 15 17 20 21 23
25 32 34 35 43 45 35 33 34 45 43 40 39 37 37 31 23 18 17 17 18 18 19 20 21 20 20 20 22 22 17 15 9 12 11 10 6 4 7 9 11 11 13 15 17 18 20 21 23 25 27 27 27 29
27 32 33 41 49 44 46 43 41 38 31 29 34 27 20 22 22 18 15 17 19 19 19 21 21 19 22 25 24 22 19 13 9 12 12 13 9 9 11 13 15 18 22 25 27 28 30 31 32 33 34 35 36 36
28 34 38 52 55 47 37 40 34 35 38 39 32 26 27 27 25 23 21 18 21 20 18 18 17 17 20 21 18 18 16 19 17 11 12 12 13 14 15 17 23 25 24 23 25 26 28 29 30 31 32 32 33 34
33 40 49 56 49 47 39 40 39 34 34 37 32 34 28 25 24 23 24 25 21 18 16 13 8 12 17 16 15 17 21 20 19 18 19 18 17 17 19 24 21 19 20 21 23 26 27 27 28 30 31 32 33 34
42 49 53 50 41 39 44 42 41 37 34 37 36 30 27 26 26 24 20 20 17 17 17 21 17 10 11 15 15 13 13 13 14 16 15 16 17 20 21 18 18 19 21 23 24 25 24 23 23 23 24 26 28 29
48 48 50 43 33 39 42 40 38 37 38 34 31 29 28 27 24 19 19 18 19 20 22 21 16 10 8 6 8 13 11 12 14 15 17 18 19 17 15 16 19 21 23 25 27 27 27 26 25 24 25 27 29 31
52 44 42 41 26 28 34 37 35 29 25 25 23 21 21 22 19 18 17 19 20 20 18 14 14 14 14 11 9 9 12 14 15 14 13 10 11 11 14 17 20 22 24 27 28 28 28 28 28 28 29 31 34 35
43 36 33 27 25 25 25 25 29 23 22 21 21 21 18 18 19 15 14 17 18 19 20 21 19 18 15 12 11 10 9 8 8 8 7 7 10 12 15 18 21 23 25 27 28 29 30 31 31 32 32 33 35 38
34 30 28 27 27 24 22 21 23 24 22 20 18 15 15 16 17 16 15 14 16 17 16 15 14 14 13 12 10 9 8 8 6 6 6 9 12 15 17 19 22 24 25 27 28 29 30 31 32 33 33 34 35 38
29 28 25 21 20 20 19 18 16 15 13 13 13 14 14 15 15 13 13 13 14 14 15 16 15 14 12 11 10 8 7 6 6 7 9 11 13 16 18 20 22 24 26 27 29 30 31 31 32 33 33 34 35 38
25 24 21 20 20 18 16 14 13 13 13 13 13 13 13 13 14 14 15 17 17 16 16 15 14 13 12 10 9 8 8 8 8 9 10 12 14 17 20 22 23 25 27 28 29 30 31 32 33 34 34 34 36 39
17 15 15 17 14 11 10 9 9 10 12 12 13 14 14 15 15 15 15 15 15 15 14 13 13 12 12 11 10 9 9 9 10 11 12 14 16 18 20 21 23 24 26 28 30 31 32 33 34 34 35 35 36 38
13 13 13 12 10 8 7 8 8 8 10 12 13 12 12 13 12 12 12 12 12 13 13 13 13 12 11 11 11 12 12 12 13 14 14 15 17 18 20 22 25 27 29 30 31 33 33 34 35 35 36 36 37 38
11 12 10 10 8 8 7 7 6 7 10 11 11 10 11 11 11 12 13 13 13 13 13 12 12 12 13 13 14 15 15 15 16 16 16 17 18 20 22 25 28 30 33 34 34 35 35 36 37 36 36 37 37 38
11 11 12 11 10 9 7 5 6 9 9 9 10 10 10 11 12 13 13 13 12 12 12 13 14 14 15 16 17 18 18 18 18 18 18 20 21 24 26 29 32 34 36 37 38 37 38 37 38 39 38 38 38 39
13 14 13 13 12 10 9 8 8 9 9 9 10 11 11 12 13 13 13 14 14 14 14 15 16 18 19 18 19 19 20 21 21 22 24 25 26 28 30 33 35 37 38 39 40 40 39 40 39 40 40 40 40 40
20 19 18 17 16 15 13 11 11 11 11 13 13 14 14 14 15 16 16 16 16 17 17 17 18 20 22 23 23 22 22 22 24 27 29 29 31 32 33 35 37 39 41 41 42 42 41 41 40 40 41 42 43 43
22 23 22 20 19 19 18 17 16 16 16 17 17 18 18 18 18 19 20 20 21 22 22 22 21 22 23 24 25 25 26 27 29 29 31 33 34 37 39 40 40 41 42 43 43 43 42 42 41 41 41 43 45 46
24 25 26 27 26 25 24 23 22 22 22 23 22 22 22 23 23 22 24 27 27 26 26 27 27 27 27 27 27 28 29 31 32 33 35 36 38 40 42 40 41 43 44 44 44 44 43 43 43 42 42 44 46 48